UA47 / N19951 7700 Squawk Report (3rd of August, 2021)

Aircraft B789 Reg No. N19951 Age 6 years old
Model 787 Jet engines 2 First flight 16-10-14
Registered 01-11-14 Rollout 13-08-14 Delivered 01-11-14
Construction No. 36402 Line No. 0223 Series 9
ADSHEX A18CBB Airline name United Airlines Owner N/A
Airfield based Houston-George Bush Intercontinental~TX~N First tracked N/A
Time Lat Lon Altitude Heading Speed Vertical Rate
2021-08-03 14:57:45 GMT 52.717571 -8.891628 350 233 156 -896
2021-08-03 14:57:43 GMT 52.718445 -8.889771 375 233 158 -768
2021-08-03 14:57:41 GMT 52.719292 -8.888018 400 233 158 -768
2021-08-03 14:57:40 GMT 52.719772 -8.886948 425 232 157 -640
2021-08-03 14:57:39 GMT 52.720230 -8.886032 425 233 156 -640
2021-08-03 14:57:37 GMT 52.721153 -8.884016 450 233 156 -768
2021-08-03 14:57:36 GMT 52.721573 -8.883074 450 233 156 -768
2021-08-03 14:57:35 GMT 52.722427 -8.881302 475 233 155 -832
2021-08-03 14:57:33 GMT 52.722832 -8.880484 500 233 155 -832
2021-08-03 14:57:31 GMT 52.723663 -8.878708 525 233 154 -1024
2021-08-03 14:57:29 GMT 52.724442 -8.877029 550 233 154 -1088
2021-08-03 14:57:28 GMT 52.725109 -8.875619 575 233 154 -1088
2021-08-03 14:57:26 GMT 52.726646 -8.872245 625 233 155 -768
2021-08-03 14:57:22 GMT 52.727531 -8.870361 650 233 155 -768
2021-08-03 14:57:21 GMT 52.728230 -8.868870 675 233 154 -960
2021-08-03 14:57:20 GMT 52.729065 -8.867111 700 233 154 -1024
2021-08-03 14:57:17 GMT 52.729904 -8.865339 725 233 155 -896
2021-08-03 14:57:15 GMT 52.730885 -8.863299 750 233 155 -832
2021-08-03 14:57:14 GMT 52.731262 -8.862381 775 233 155 -832
2021-08-03 14:57:12 GMT 52.732132 -8.860550 800 233 156 -896
2021-08-03 14:57:11 GMT 52.732590 -8.859634 800 233 155 -896
2021-08-03 14:57:10 GMT 52.733585 -8.857413 850 233 156 -896
2021-08-03 14:57:07 GMT 52.734192 -8.856201 850 233 156 -832
2021-08-03 14:57:06 GMT 52.734787 -8.854904 875 233 156 -832
2021-08-03 14:57:05 GMT 52.735703 -8.852997 900 233 156 -960
2021-08-03 14:57:02 GMT 52.736515 -8.851214 950 233 156 -1024
2021-08-03 14:57:00 GMT 52.737354 -8.849487 975 233 156 -768
2021-08-03 14:56:59 GMT 52.738659 -8.846662 1,000 233 156 -768
2021-08-03 14:56:57 GMT 52.738659 -8.846662 1,000 233 156 -768
2021-08-03 14:56:56 GMT 52.739124 -8.845721 1,025 233 156 -832
2021-08-03 14:56:54 GMT 52.740101 -8.843680 1,050 233 156 -832
2021-08-03 14:56:53 GMT 52.740555 -8.842621 1,050 233 156 -768
2021-08-03 14:56:52 GMT 52.740921 -8.841858 1,075 233 156 -768
2021-08-03 14:56:51 GMT 52.741791 -8.839951 1,100 233 157 -832
2021-08-03 14:56:49 GMT 52.742382 -8.838736 1,125 233 157 -832
2021-08-03 14:56:48 GMT 52.743080 -8.837245 1,125 233 157 -896
2021-08-03 14:56:46 GMT 52.743546 -8.836304 1,150 233 157 -896
2021-08-03 14:56:45 GMT 52.744537 -8.834076 1,175 233 157 -832
2021-08-03 14:56:43 GMT 52.744942 -8.833243 1,200 233 158 -832
2021-08-03 14:56:41 GMT 52.745827 -8.831360 1,225 233 158 -768
2021-08-03 14:56:39 GMT 52.746758 -8.829398 1,225 233 158 -768
2021-08-03 14:56:38 GMT 52.747147 -8.828583 1,250 233 158 -832
2021-08-03 14:56:37 GMT 52.747787 -8.827209 1,275 233 158 -896
2021-08-03 14:56:36 GMT 52.748619 -8.825396 1,300 233 158 -960
2021-08-03 14:56:34 GMT 52.749367 -8.823905 1,325 233 158 -832
2021-08-03 14:56:32 GMT 52.749969 -8.822571 1,350 233 159 -896
2021-08-03 14:56:31 GMT 52.750854 -8.820724 1,375 233 159 -960
2021-08-03 14:56:29 GMT 52.751320 -8.819667 1,400 233 158 -896
2021-08-03 14:56:28 GMT 52.751816 -8.818588 1,400 233 158 -896
2021-08-03 14:56:26 GMT 52.752579 -8.816999 1,425 233 159 -832
2021-08-03 14:56:25 GMT 52.752949 -8.816214 1,425 233 159 -832
2021-08-03 14:56:22 GMT 52.754333 -8.813248 1,475 233 159 -896
2021-08-03 14:56:20 GMT 52.755249 -8.811340 1,500 233 159 -896
2021-08-03 14:56:18 GMT 52.756165 -8.809433 1,550 233 159 -896
2021-08-03 14:56:17 GMT 52.756721 -8.808132 1,550 233 159 -832
2021-08-03 14:56:14 GMT 52.757790 -8.805856 1,600 233 159 -896
2021-08-03 14:56:13 GMT 52.758408 -8.804550 1,600 233 159 -896
2021-08-03 14:56:12 GMT 52.758865 -8.803635 1,625 233 159 -896
2021-08-03 14:56:10 GMT 52.760468 -8.800125 1,675 233 159 -896
2021-08-03 14:56:08 GMT 52.760468 -8.800125 1,675 233 159 -896
2021-08-03 14:56:05 GMT 52.761795 -8.797226 1,725 233 160 -896
2021-08-03 14:56:04 GMT 52.762253 -8.796310 1,725 233 160 -896
2021-08-03 14:56:03 GMT 52.763535 -8.793564 1,750 233 160 -896
2021-08-03 14:56:01 GMT 52.763935 -8.792672 1,775 233 159 -896
2021-08-03 14:56:00 GMT 52.764355 -8.791731 1,800 233 159 -960
2021-08-03 14:55:59 GMT 52.765285 -8.789769 1,825 233 160 -1024
2021-08-03 14:55:57 GMT 52.765778 -8.788757 1,850 233 160 -1024
2021-08-03 14:55:56 GMT 52.766235 -8.787766 1,875 233 160 -896
2021-08-03 14:55:55 GMT 52.767010 -8.786080 1,900 233 160 -832
2021-08-03 14:55:53 GMT 52.767426 -8.785139 1,900 233 160 -832
2021-08-03 14:55:52 GMT 52.768387 -8.783112 1,925 233 160 -960
2021-08-03 14:55:50 GMT 52.768917 -8.782078 1,950 233 160 -832
2021-08-03 14:55:49 GMT 52.769707 -8.780273 1,975 233 160 -896
2021-08-03 14:55:47 GMT 52.770126 -8.779449 1,975 233 160 -960
2021-08-03 14:55:41 GMT 52.772968 -8.773289 2,100 233 162 -960
2021-08-03 14:55:40 GMT 52.773338 -8.772505 2,100 233 162 -832
2021-08-03 14:55:39 GMT 52.774292 -8.770447 2,125 233 162 -832
2021-08-03 14:55:37 GMT 52.774750 -8.769455 2,150 233 162 -832
2021-08-03 14:55:31 GMT 52.777576 -8.763480 2,225 233 160 -768
2021-08-03 14:55:29 GMT 52.778412 -8.761673 2,250 233 160 -832
2021-08-03 14:55:28 GMT 52.778870 -8.760681 2,250 233 160 -832
2021-08-03 14:55:27 GMT 52.779327 -8.759689 2,275 233 160 -832
2021-08-03 14:55:25 GMT 52.780369 -8.757516 2,300 233 160 -896
2021-08-03 14:55:22 GMT 52.781441 -8.755162 2,325 233 160 -960
2021-08-03 14:55:21 GMT 52.781906 -8.754220 2,350 233 160 -960
2021-08-03 14:55:20 GMT 52.782837 -8.752258 2,375 233 160 -960
2021-08-03 14:55:18 GMT 52.784042 -8.749619 2,425 233 161 -960
2021-08-03 14:55:15 GMT 52.784557 -8.748570 2,425 233 161 -960
2021-08-03 14:55:14 GMT 52.785416 -8.746719 2,450 233 163 -1088
2021-08-03 14:55:12 GMT 52.786331 -8.744736 2,500 233 164 -1088
2021-08-03 14:55:10 GMT 52.786835 -8.743744 2,500 233 165 -1088
2021-08-03 14:55:09 GMT 52.787304 -8.742606 2,525 233 165 -1024
2021-08-03 14:55:08 GMT 52.788208 -8.740692 2,550 233 167 -960
2021-08-03 14:55:06 GMT 52.789120 -8.738839 2,600 233 168 -960
2021-08-03 14:55:04 GMT 52.789810 -8.737259 2,625 233 168 -1088
2021-08-03 14:55:03 GMT 52.790497 -8.735809 2,650 233 169 -1152
2021-08-03 14:55:02 GMT 52.790890 -8.734916 2,650 233 171 -1216
2021-08-03 14:55:00 GMT 52.791824 -8.732910 2,700 233 171 -1216
2021-08-03 14:54:59 GMT 52.792282 -8.731918 2,700 233 172 -1152
2021-08-03 14:54:56 GMT 52.793655 -8.729019 2,750 233 172 -1088
2021-08-03 14:54:55 GMT 52.794159 -8.727951 2,775 233 172 -1152
2021-08-03 14:54:54 GMT 52.794846 -8.726501 2,800 233 172 -1088
2021-08-03 14:54:52 GMT 52.795532 -8.725052 2,825 232 173 -1024
2021-08-03 14:54:50 GMT 52.796906 -8.722153 2,875 233 173 -1088
2021-08-03 14:54:47 GMT 52.798153 -8.719535 2,925 233 174 -960
2021-08-03 14:54:46 GMT 52.799408 -8.716788 2,975 233 174 -960
2021-08-03 14:54:44 GMT 52.799408 -8.716788 2,975 233 174 -832
2021-08-03 14:54:43 GMT 52.799919 -8.715768 2,975 233 175 -768
2021-08-03 14:54:42 GMT 52.800842 -8.713760 3,000 233 175 -704
2021-08-03 14:54:40 GMT 52.801411 -8.712551 3,025 233 176 -512
2021-08-03 14:54:39 GMT 52.802856 -8.709488 3,050 233 176 -320
2021-08-03 14:54:36 GMT 52.803413 -8.708313 3,050 233 177 -192
2021-08-03 14:54:33 GMT 52.804901 -8.705096 3,050 233 178 -64
2021-08-03 14:54:32 GMT 52.805649 -8.703461 3,050 233 178 0
2021-08-03 14:54:31 GMT 52.806206 -8.702271 3,050 233 178 64
2021-08-03 14:54:27 GMT 52.808167 -8.698044 3,050 233 180 0
2021-08-03 14:54:26 GMT 52.809231 -8.695757 3,050 233 181 -64
2021-08-03 14:54:24 GMT 52.809742 -8.694659 3,050 233 181 -64
2021-08-03 14:54:23 GMT 52.810226 -8.693695 3,050 233 183 -64
2021-08-03 14:54:21 GMT 52.811325 -8.691254 3,050 233 184 -64
2021-08-03 14:54:20 GMT 52.811874 -8.690109 3,050 233 184 -64
2021-08-03 14:54:19 GMT 52.812351 -8.689165 3,050 233 186 64
2021-08-03 14:54:17 GMT 52.813339 -8.686981 3,050 233 188 -64
2021-08-03 14:54:16 GMT 52.814117 -8.685242 3,050 233 188 -64
2021-08-03 14:54:14 GMT 52.814896 -8.683548 3,050 233 190 -128
2021-08-03 14:54:13 GMT 52.816727 -8.679581 3,050 233 193 -64
2021-08-03 14:54:11 GMT 52.816727 -8.679581 3,050 233 194 -128
2021-08-03 14:54:09 GMT 52.818237 -8.676224 3,050 233 196 -192
2021-08-03 14:54:07 GMT 52.819286 -8.674020 3,075 233 197 64
2021-08-03 14:54:04 GMT 52.820435 -8.671494 3,075 233 198 192
2021-08-03 14:54:03 GMT 52.821056 -8.670175 3,075 233 198 64
2021-08-03 14:54:00 GMT 52.822540 -8.666916 3,050 233 198 -64
2021-08-03 14:53:57 GMT 52.824554 -8.662567 3,050 233 198 -64
2021-08-03 14:53:49 GMT 52.829109 -8.652832 3,050 233 199 0
2021-08-03 14:53:46 GMT 52.829727 -8.651505 3,050 233 199 64
2021-08-03 14:53:45 GMT 52.830505 -8.649826 3,050 233 199 64
2021-08-03 14:53:44 GMT 52.831192 -8.648376 3,050 233 199 0
2021-08-03 14:53:42 GMT 52.832291 -8.645935 3,050 233 199 -64
2021-08-03 14:53:41 GMT 52.832928 -8.644592 3,050 233 199 0
2021-08-03 14:53:40 GMT 52.833485 -8.643415 3,050 233 199 -64
2021-08-03 14:53:39 GMT 52.834854 -8.640442 3,050 233 199 -64
2021-08-03 14:53:36 GMT 52.835449 -8.639221 3,050 233 199 -64
2021-08-03 14:53:32 GMT 52.838013 -8.633652 3,050 233 199 -64
2021-08-03 14:53:31 GMT 52.838562 -8.632431 3,050 233 199 64
2021-08-03 14:53:30 GMT 52.839069 -8.631330 3,050 233 199 64
2021-08-03 14:53:27 GMT 52.840714 -8.627853 3,050 233 198 128
2021-08-03 14:53:26 GMT 52.841354 -8.626404 3,050 233 198 64
2021-08-03 14:53:22 GMT 52.843140 -8.622589 3,050 233 198 64
2021-08-03 14:53:18 GMT 52.845383 -8.617783 3,050 233 198 -64
2021-08-03 14:53:17 GMT 52.846100 -8.616263 3,050 233 198 -64
2021-08-03 14:53:15 GMT 52.847397 -8.613434 3,050 233 198 -64
2021-08-03 14:53:12 GMT 52.849125 -8.609750 3,050 232 199 -64
2021-08-03 14:53:07 GMT 52.852711 -8.602373 3,050 231 198 -64
2021-08-03 14:53:02 GMT 52.854851 -8.598214 3,050 229 198 -64
2021-08-03 14:52:59 GMT 52.856712 -8.594840 3,075 227 198 64
2021-08-03 14:52:58 GMT 52.857513 -8.593445 3,050 224 198 64
2021-08-03 14:52:57 GMT 52.858154 -8.592377 3,050 224 198 64
2021-08-03 14:52:56 GMT 52.858902 -8.591230 3,050 223 198 128
2021-08-03 14:52:54 GMT 52.860207 -8.589190 3,050 220 197 128
2021-08-03 14:52:52 GMT 52.861725 -8.587112 3,050 216 197 64
2021-08-03 14:52:50 GMT 52.865513 -8.583304 3,050 208 198 -128
2021-08-03 14:52:47 GMT 52.865513 -8.583304 3,050 202 197 -128
2021-08-03 14:52:43 GMT 52.869003 -8.581421 3,050 183 196 -448
2021-08-03 14:52:42 GMT 52.869888 -8.581185 3,050 183 196 -448
2021-08-03 14:52:36 GMT 52.875229 -8.580551 3,100 180 196 -576
2021-08-03 14:52:35 GMT 52.876144 -8.580551 3,100 179 195 -576
2021-08-03 14:52:33 GMT 52.877850 -8.580558 3,125 179 195 -768
2021-08-03 14:52:32 GMT 52.878662 -8.580551 3,125 179 195 -768
2021-08-03 14:52:30 GMT 52.880733 -8.580558 3,150 179 196 -1088
2021-08-03 14:52:24 GMT 52.885998 -8.580636 3,325 179 196 -1024
2021-08-03 14:52:21 GMT 52.888557 -8.580636 3,325 179 196 -1024
2021-08-03 14:52:18 GMT 52.895260 -8.580715 3,400 179 197 -896
2021-08-03 14:52:15 GMT 52.895260 -8.580715 3,425 179 197 -896
2021-08-03 14:52:10 GMT 52.898563 -8.580793 3,475 179 197 -896
2021-08-03 14:52:07 GMT 52.901779 -8.580780 3,525 179 199 -1024
2021-08-03 14:52:06 GMT 52.902695 -8.580780 3,550 179 199 -1024
2021-08-03 14:52:05 GMT 52.904343 -8.580780 3,575 179 199 -1024
2021-08-03 14:51:58 GMT 52.911972 -8.580872 3,700 179 199 -1024
2021-08-03 14:51:56 GMT 52.911972 -8.580872 3,700 179 199 -1088
2021-08-03 14:51:54 GMT 52.913788 -8.580872 3,750 179 200 -1088
2021-08-03 14:51:53 GMT 52.914642 -8.580856 3,750 179 200 -1152
2021-08-03 14:51:51 GMT 52.916107 -8.580856 3,800 179 200 -1152
2021-08-03 14:51:49 GMT 52.917938 -8.580856 3,825 179 200 -1152
2021-08-03 14:51:47 GMT 52.920071 -8.580872 3,875 179 200 -1152
2021-08-03 14:51:45 GMT 52.922012 -8.580933 3,900 179 200 -1152
2021-08-03 14:51:44 GMT 52.922974 -8.580933 3,925 179 201 -1152
2021-08-03 14:51:41 GMT 52.925659 -8.580950 3,975 179 201 -1088
2021-08-03 14:51:40 GMT 52.927521 -8.580950 4,000 179 201 -1088
2021-08-03 14:51:37 GMT 52.928879 -8.581009 4,050 179 201 -1152
2021-08-03 14:51:33 GMT 52.933182 -8.581009 4,125 179 201 -1088
2021-08-03 14:51:28 GMT 52.937714 -8.581029 4,200 179 201 -1024
2021-08-03 14:51:25 GMT 52.940598 -8.581085 4,250 179 201 -1024
2021-08-03 14:51:23 GMT 52.942841 -8.581085 4,275 179 201 -1024
2021-08-03 14:51:18 GMT 52.948887 -8.581185 4,400 179 202 -960
2021-08-03 14:51:16 GMT 52.948887 -8.581185 4,400 179 202 -1024
2021-08-03 14:51:14 GMT 52.950668 -8.581161 4,425 179 202 -960
2021-08-03 14:51:13 GMT 52.951584 -8.581238 4,450 179 202 -1024
2021-08-03 14:51:12 GMT 52.953827 -8.581238 4,500 179 202 -1024
2021-08-03 14:51:10 GMT 52.954659 -8.581264 4,500 179 202 -1024
2021-08-03 14:51:07 GMT 52.956848 -8.581238 4,550 179 203 -1024
2021-08-03 14:51:02 GMT 52.963318 -8.581342 4,650 179 203 -1024
2021-08-03 14:50:59 GMT 52.964622 -8.581342 4,675 179 203 -960
2021-08-03 14:50:56 GMT 52.967514 -8.581390 4,725 179 204 -1024
2021-08-03 14:50:55 GMT 52.968475 -8.581390 4,750 179 205 -960
2021-08-03 14:50:54 GMT 52.969803 -8.581390 4,775 179 205 -960
2021-08-03 14:50:52 GMT 52.971603 -8.581421 4,800 179 205 -960
2021-08-03 14:50:49 GMT 52.974152 -8.581390 4,825 179 206 -896
2021-08-03 14:50:45 GMT 52.977844 -8.581421 4,900 179 206 -896
2021-08-03 14:50:44 GMT 52.978634 -8.581499 4,900 179 206 -896
2021-08-03 14:50:43 GMT 52.979939 -8.581499 4,925 179 206 -896
2021-08-03 14:50:41 GMT 52.981289 -8.581499 4,950 179 206 -960
2021-08-03 14:50:40 GMT 52.983078 -8.581543 4,950 179 207 -960
2021-08-03 14:50:39 GMT 52.983940 -8.581499 4,975 179 207 -1024
2021-08-03 14:50:38 GMT 52.984818 -8.581543 5,000 179 207 -1152
2021-08-03 14:50:35 GMT 52.987202 -8.581578 5,050 179 208 -1280
2021-08-03 14:50:32 GMT 52.990459 -8.581578 5,125 179 209 -1152
2021-08-03 14:50:31 GMT 52.992508 -8.581619 5,150 179 209 -1088
2021-08-03 14:50:29 GMT 52.993343 -8.581656 5,175 179 210 -1024
2021-08-03 14:50:27 GMT 52.995300 -8.581656 5,200 179 211 -960
2021-08-03 14:50:26 GMT 52.996651 -8.581656 5,225 179 211 -896
2021-08-03 14:50:24 GMT 52.998608 -8.581656 5,250 179 214 -896
2021-08-03 14:50:21 GMT 53.001583 -8.581735 5,300 179 214 -832
2021-08-03 14:50:14 GMT 53.008568 -8.581813 5,375 179 220 -704
2021-08-03 14:50:11 GMT 53.011505 -8.581848 5,425 179 222 -640
2021-08-03 14:50:09 GMT 53.013687 -8.581892 5,450 179 223 -576
2021-08-03 14:50:07 GMT 53.015320 -8.581892 5,450 179 225 -448
2021-08-03 14:50:06 GMT 53.016342 -8.581892 5,475 179 226 -448
2021-08-03 14:50:04 GMT 53.018856 -8.581892 5,475 179 227 -384
2021-08-03 14:50:02 GMT 53.020531 -8.581892 5,500 180 228 -512
2021-08-03 14:50:01 GMT 53.021603 -8.581892 5,500 180 229 -640
2021-08-03 14:50:00 GMT 53.022766 -8.581924 5,525 180 229 -768
2021-08-03 14:49:59 GMT 53.024162 -8.581892 5,525 179 230 -896
2021-08-03 14:49:58 GMT 53.026154 -8.581924 5,550 179 230 -1024
2021-08-03 14:49:56 GMT 53.033333 -8.581970 5,675 179 232 -832
2021-08-03 14:49:50 GMT 53.033333 -8.581970 5,675 179 232 -832
2021-08-03 14:49:47 GMT 53.037804 -8.582049 5,725 179 233 -576
2021-08-03 14:49:45 GMT 53.038921 -8.582049 5,750 179 234 -448
2021-08-03 14:49:43 GMT 53.041168 -8.582077 5,750 179 235 -384
2021-08-03 14:49:42 GMT 53.042366 -8.582049 5,750 179 236 -448
2021-08-03 14:49:40 GMT 53.044647 -8.582077 5,775 179 237 -576
2021-08-03 14:49:39 GMT 53.045624 -8.582127 5,775 179 238 -640
2021-08-03 14:49:35 GMT 53.050045 -8.582206 5,825 179 239 -768
2021-08-03 14:49:34 GMT 53.051285 -8.582153 5,825 179 240 -832
2021-08-03 14:49:33 GMT 53.053398 -8.582206 5,850 179 240 -960
2021-08-03 14:49:31 GMT 53.054466 -8.582206 5,875 179 240 -1024
2021-08-03 14:49:30 GMT 53.055584 -8.582206 5,900 179 240 -1024
2021-08-03 14:49:29 GMT 53.057819 -8.582206 5,925 179 241 -1024
2021-08-03 14:49:26 GMT 53.059250 -8.582230 5,950 179 241 -1088
2021-08-03 14:49:24 GMT 53.061493 -8.582230 5,975 180 241 -1216
2021-08-03 14:49:18 GMT 53.068527 -8.582284 6,125 179 241 -1600
2021-08-03 14:49:17 GMT 53.069645 -8.582284 6,150 179 240 -1856
2021-08-03 14:49:10 GMT 53.077515 -8.582382 6,425 179 240 -1856
2021-08-03 14:49:06 GMT 53.081562 -8.582363 6,475 179 239 -1920
2021-08-03 14:49:03 GMT 53.085331 -8.582441 6,600 179 239 -1920
2021-08-03 14:49:01 GMT 53.087986 -8.582441 6,675 179 239 -1984
2021-08-03 14:49:00 GMT 53.089005 -8.582458 6,700 179 240 -1984
2021-08-03 14:48:57 GMT 53.091759 -8.582441 6,850 179 240 -1984
2021-08-03 14:48:54 GMT 53.095642 -8.582520 6,875 179 241 -1984
2021-08-03 14:48:51 GMT 53.098881 -8.582503 6,975 179 242 -2048
2021-08-03 14:48:46 GMT 53.104465 -8.582584 7,125 179 242 -2048
2021-08-03 14:48:44 GMT 53.106125 -8.582598 7,200 179 243 -2048
2021-08-03 14:48:43 GMT 53.107166 -8.582665 7,225 179 244 -1856
2021-08-03 14:48:38 GMT 53.113541 -8.582755 7,400 179 244 -1856
2021-08-03 14:48:36 GMT 53.115685 -8.582746 7,475 179 244 -1856
2021-08-03 14:48:29 GMT 53.122833 -8.582755 7,650 179 247 -1664
2021-08-03 14:48:27 GMT 53.125694 -8.582827 7,725 179 247 -1664
2021-08-03 14:48:26 GMT 53.126953 -8.582833 7,750 179 252 -1280
2021-08-03 14:48:18 GMT 53.136658 -8.582990 7,950 179 252 -1280
2021-08-03 14:48:16 GMT 53.146687 -8.583150 8,100 179 263 -1536
2021-08-03 14:48:09 GMT 53.146687 -8.583150 8,100 179 263 -1536
2021-08-03 14:48:04 GMT 53.154648 -8.583230 8,250 179 264 -1664
2021-08-03 14:48:01 GMT 53.156605 -8.583311 8,300 179 265 -1728
2021-08-03 14:47:55 GMT 53.164749 -8.583473 8,500 179 269 -1728
2021-08-03 14:47:48 GMT 53.171967 -8.583554 8,700 179 271 -1728
2021-08-03 14:47:45 GMT 53.176018 -8.583554 8,750 179 274 -1664
2021-08-03 14:47:41 GMT 53.180344 -8.583554 9,000 180 284 -1472
2021-08-03 14:47:35 GMT 53.189713 -8.583618 9,000 180 284 -1472
2021-08-03 14:47:31 GMT 53.194031 -8.583554 9,100 180 283 -1408
2021-08-03 14:47:25 GMT 53.202072 -8.583540 9,300 180 289 -2368
2021-08-03 14:47:22 GMT 53.212738 -8.583540 9,500 180 289 -2496
2021-08-03 14:47:17 GMT 53.212738 -8.583540 9,600 179 289 -2880
2021-08-03 14:47:14 GMT 53.217270 -8.583618 9,750 179 288 -2944
2021-08-03 14:47:11 GMT 53.219822 -8.583715 10,225 179 288 -2880
2021-08-03 14:47:03 GMT 53.230591 -8.583932 10,225 179 288 -2880
2021-08-03 14:47:01 GMT 53.232971 -8.583932 10,300 179 288 -2816
2021-08-03 14:47:00 GMT 53.234161 -8.583957 10,350 179 288 -2816
2021-08-03 14:46:57 GMT 53.238007 -8.584089 10,475 179 288 -2752
2021-08-03 14:46:54 GMT 53.242813 -8.584167 10,800 179 288 -2688
2021-08-03 14:46:50 GMT 53.247620 -8.584167 10,800 179 289 -2624
2021-08-03 14:46:49 GMT 53.248947 -8.584167 10,825 179 289 -2560
2021-08-03 14:46:47 GMT 53.252270 -8.584200 10,925 179 290 -2560
2021-08-03 14:46:44 GMT 53.257111 -8.584281 11,175 179 290 -2560
2021-08-03 14:46:41 GMT 53.260323 -8.584281 11,175 179 291 -2496
2021-08-03 14:46:35 GMT 53.273941 -8.584324 11,525 179 294 -2368
2021-08-03 14:46:31 GMT 53.273941 -8.584324 11,600 179 294 -2368
2021-08-03 14:46:25 GMT 53.282806 -8.584361 11,825 179 297 -2304
2021-08-03 14:46:21 GMT 53.287743 -8.584442 12,150 179 302 -1792
2021-08-03 14:46:15 GMT 53.296188 -8.584481 12,150 179 302 -1792
2021-08-03 14:46:12 GMT 53.300125 -8.584481 12,375 179 310 -1408
2021-08-03 14:46:09 GMT 53.303944 -8.584523 12,375 179 310 -1408
2021-08-03 14:46:06 GMT 53.308178 -8.584523 12,375 179 310 -1408
2021-08-03 14:46:05 GMT 53.309620 -8.584523 12,400 179 313 -1344
2021-08-03 14:46:03 GMT 53.312668 -8.584560 12,450 179 313 -1344
2021-08-03 14:46:01 GMT 53.315552 -8.584638 12,475 179 317 -1280
2021-08-03 14:45:59 GMT 53.318607 -8.584604 12,550 179 319 -1280
2021-08-03 14:45:57 GMT 53.321136 -8.584638 12,575 179 321 -1280
2021-08-03 14:45:54 GMT 53.325897 -8.584638 12,625 179 324 -1280
2021-08-03 14:45:51 GMT 53.330383 -8.584717 12,700 179 327 -1280
2021-08-03 14:45:46 GMT 53.338943 -8.584717 12,800 179 353 -1344
2021-08-03 14:45:44 GMT 53.342209 -8.584765 12,950 179 353 -1344
2021-08-03 14:45:41 GMT 53.351379 -8.584765 12,950 179 353 -1344
2021-08-03 14:45:38 GMT 53.351379 -8.584765 12,950 179 353 -1344
2021-08-03 14:45:36 GMT 53.354263 -8.584846 12,975 179 353 -1344
2021-08-03 14:45:33 GMT 53.359268 -8.584874 13,050 179 355 -1344
2021-08-03 14:45:30 GMT 53.364532 -8.584952 13,100 179 358 -1408
2021-08-03 14:45:29 GMT 53.366322 -8.585008 13,125 179 361 -1536
2021-08-03 14:45:28 GMT 53.369675 -8.585008 13,175 179 363 -1600
2021-08-03 14:45:23 GMT 53.376251 -8.585109 13,300 179 368 -1920
2021-08-03 14:45:21 GMT 53.379639 -8.585109 13,350 179 375 -2688
2021-08-03 14:45:20 GMT 53.381542 -8.585169 13,375 179 375 -2688
2021-08-03 14:45:17 GMT 53.386337 -8.585250 13,500 179 375 -2688
2021-08-03 14:45:14 GMT 53.391724 -8.585345 13,800 179 378 -3392
2021-08-03 14:45:11 GMT 53.396622 -8.585423 13,800 179 380 -3904
2021-08-03 14:45:10 GMT 53.402401 -8.585412 13,975 179 381 -4224
2021-08-03 14:45:08 GMT 53.402401 -8.585412 14,000 179 381 -4224
2021-08-03 14:45:05 GMT 53.407516 -8.585502 14,200 179 381 -4288
2021-08-03 14:45:02 GMT 53.411942 -8.585573 14,400 179 382 -4416
2021-08-03 14:45:01 GMT 53.414040 -8.585573 14,475 179 383 -4416
2021-08-03 14:45:00 GMT 53.416504 -8.585573 14,575 179 383 -4480
2021-08-03 14:44:58 GMT 53.419144 -8.585580 14,675 179 383 -4480
2021-08-03 14:44:57 GMT 53.421661 -8.585658 14,750 179 383 -4480
2021-08-03 14:44:56 GMT 53.426422 -8.585654 14,975 179 384 -4352
2021-08-03 14:44:52 GMT 53.430862 -8.585658 15,175 180 385 -4352
2021-08-03 14:44:48 GMT 53.437454 -8.585654 15,425 180 386 -4352
2021-08-03 14:44:47 GMT 53.439423 -8.585658 15,500 180 386 -4352
2021-08-03 14:44:46 GMT 53.440990 -8.585654 15,575 179 386 -4288
2021-08-03 14:44:43 GMT 53.446346 -8.585654 15,775 179 387 -4288
2021-08-03 14:44:40 GMT 53.451000 -8.585735 15,975 179 388 -4352
2021-08-03 14:44:39 GMT 53.453339 -8.585737 16,075 179 388 -4352
2021-08-03 14:44:38 GMT 53.455330 -8.585735 16,150 179 388 -4352
2021-08-03 14:44:37 GMT 53.457096 -8.585735 16,225 179 388 -4352
2021-08-03 14:44:35 GMT 53.460892 -8.585815 16,375 179 389 -4416
2021-08-03 14:44:33 GMT 53.464462 -8.585894 16,525 179 389 -4480
2021-08-03 14:44:31 GMT 53.468765 -8.585894 16,700 179 390 -4480
2021-08-03 14:44:28 GMT 53.473480 -8.585972 16,900 179 390 -4480
2021-08-03 14:44:27 GMT 53.475266 -8.585972 16,975 179 391 -4480
2021-08-03 14:44:25 GMT 53.479073 -8.586058 17,075 179 391 -4480
2021-08-03 14:44:23 GMT 53.483231 -8.586129 17,300 179 392 -4416
2021-08-03 14:44:20 GMT 53.487579 -8.586208 17,475 179 392 -4416
2021-08-03 14:44:19 GMT 53.489365 -8.586208 17,550 179 392 -4352
2021-08-03 14:44:15 GMT 53.496643 -8.586443 17,825 178 393 -4352
2021-08-03 14:44:12 GMT 53.503189 -8.586600 18,175 179 396 -4352
2021-08-03 14:44:09 GMT 53.507904 -8.586757 18,325 179 396 -4352
2021-08-03 14:44:06 GMT 53.515228 -8.586914 18,625 179 396 -4288
2021-08-03 14:44:03 GMT 53.519623 -8.586993 18,725 179 398 -4160
2021-08-03 14:44:00 GMT 53.527725 -8.587149 19,025 179 399 -4096
2021-08-03 14:43:57 GMT 53.527725 -8.587149 19,025 179 399 -4032
2021-08-03 14:43:56 GMT 53.530464 -8.587189 19,150 179 400 -3968
2021-08-03 14:43:55 GMT 53.532326 -8.587189 19,200 179 401 -3840
2021-08-03 14:43:54 GMT 53.536194 -8.587228 19,325 179 402 -3776
2021-08-03 14:43:52 GMT 53.537868 -8.587270 19,400 179 402 -3776
2021-08-03 14:43:51 GMT 53.542511 -8.587306 19,550 179 404 -3584
2021-08-03 14:43:48 GMT 53.548141 -8.587385 19,725 179 406 -3520
2021-08-03 14:43:45 GMT 53.551529 -8.587385 19,800 179 408 -3456
2021-08-03 14:43:44 GMT 53.553600 -8.587431 19,875 179 409 -3456
2021-08-03 14:43:43 GMT 53.555462 -8.587431 19,925 179 409 -3456
2021-08-03 14:43:40 GMT 53.561142 -8.587431 20,100 181 412 -3456
2021-08-03 14:43:39 GMT 53.565125 -8.587385 20,225 181 414 -3456
2021-08-03 14:43:36 GMT 53.568031 -8.587431 20,300 181 414 -3456
2021-08-03 14:43:35 GMT 53.572403 -8.587385 20,450 181 417 -3584
2021-08-03 14:43:33 GMT 53.577995 -8.587350 20,600 181 418 -3584
2021-08-03 14:43:31 GMT 53.577995 -8.587350 20,600 180 419 -3648
2021-08-03 14:43:29 GMT 53.581860 -8.587350 20,700 180 419 -3648
2021-08-03 14:43:28 GMT 53.583618 -8.587385 20,775 180 421 -3712
2021-08-03 14:43:27 GMT 53.585770 -8.587350 20,850 180 421 -3712
2021-08-03 14:43:25 GMT 53.590054 -8.587350 20,975 179 424 -3904
2021-08-03 14:43:23 GMT 53.593781 -8.587385 21,075 179 424 -3904
2021-08-03 14:43:21 GMT 53.597672 -8.587463 21,250 179 426 -4096
2021-08-03 14:43:20 GMT 53.603786 -8.587593 21,600 179 428 -4288
2021-08-03 14:43:18 GMT 53.603786 -8.587593 21,600 179 428 -4288
2021-08-03 14:43:15 GMT 53.608337 -8.587699 21,600 179 429 -4288
2021-08-03 14:43:13 GMT 53.613510 -8.587777 21,800 179 430 -4352
2021-08-03 14:43:11 GMT 53.617447 -8.587856 21,925 179 431 -4416
2021-08-03 14:43:09 GMT 53.620449 -8.587835 22,050 179 431 -4480
2021-08-03 14:43:08 GMT 53.623241 -8.587916 22,150 179 431 -4480
2021-08-03 14:43:06 GMT 53.627426 -8.587934 22,300 180 432 -4544
2021-08-03 14:43:05 GMT 53.631622 -8.587916 22,725 181 433 -4608
2021-08-03 14:43:01 GMT 53.638790 -8.587835 22,725 181 435 -4608
2021-08-03 14:42:59 GMT 53.642624 -8.587856 22,875 181 435 -4608
2021-08-03 14:42:56 GMT 53.648209 -8.587777 23,075 181 435 -4544
2021-08-03 14:42:55 GMT 53.654251 -8.587777 23,225 181 436 -4544
2021-08-03 14:42:53 GMT 53.654251 -8.587777 23,300 181 436 -4544
2021-08-03 14:42:51 GMT 53.657867 -8.587777 23,450 180 437 -4416
2021-08-03 14:42:50 GMT 53.661530 -8.587777 23,575 180 438 -4352
2021-08-03 14:42:47 GMT 53.665970 -8.587777 23,725 179 438 -4352
2021-08-03 14:42:46 GMT 53.671646 -8.587777 23,875 179 440 -4352
2021-08-03 14:42:44 GMT 53.671646 -8.587777 24,100 179 441 -4352
2021-08-03 14:42:42 GMT 53.676132 -8.587856 24,100 179 441 -4352
2021-08-03 14:42:41 GMT 53.678360 -8.587835 24,175 179 441 -4352
2021-08-03 14:42:40 GMT 53.680206 -8.587856 24,250 179 441 -4352
2021-08-03 14:42:38 GMT 53.684040 -8.587916 24,450 179 442 -4288
2021-08-03 14:42:36 GMT 53.688354 -8.587934 24,600 179 443 -4288
2021-08-03 14:42:35 GMT 53.694283 -8.588077 24,725 179 443 -4352
2021-08-03 14:42:32 GMT 53.696091 -8.588091 24,800 179 443 -4352
2021-08-03 14:42:30 GMT 53.700428 -8.588158 24,950 179 444 -4352
2021-08-03 14:42:29 GMT 53.702477 -8.588158 25,025 179 444 -4352
2021-08-03 14:42:27 GMT 53.709412 -8.588239 25,250 179 445 -4416
2021-08-03 14:42:25 GMT 53.711506 -8.588239 25,325 179 445 -4416
2021-08-03 14:42:23 GMT 53.715408 -8.588327 25,475 179 445 -4480
2021-08-03 14:42:22 GMT 53.718071 -8.588320 25,575 179 445 -4416
2021-08-03 14:42:21 GMT 53.721954 -8.588327 25,700 179 446 -4544
2021-08-03 14:42:19 GMT 53.723843 -8.588320 25,775 179 446 -4544
2021-08-03 14:42:17 GMT 53.728779 -8.588400 25,950 179 446 -4544
2021-08-03 14:42:16 GMT 53.730827 -8.588400 26,025 179 446 -4544
2021-08-03 14:42:14 GMT 53.734314 -8.588405 26,175 179 446 -4544
2021-08-03 14:42:13 GMT 53.737198 -8.588484 26,275 179 446 -4480
2021-08-03 14:42:11 GMT 53.740082 -8.588484 26,375 179 446 -4416
2021-08-03 14:42:10 GMT 53.742325 -8.588481 26,500 179 446 -4416
2021-08-03 14:42:09 GMT 53.747498 -8.588562 26,625 179 446 -4288
2021-08-03 14:42:06 GMT 53.754707 -8.588643 26,850 179 447 -4096
2021-08-03 14:42:04 GMT 53.754707 -8.588643 26,875 179 447 -4032
2021-08-03 14:42:03 GMT 53.756973 -8.588640 26,950 179 447 -4032
2021-08-03 14:42:01 GMT 53.761093 -8.588719 27,075 179 447 -3904
2021-08-03 14:42:00 GMT 53.765461 -8.588724 27,225 179 448 -3584
2021-08-03 14:41:57 GMT 53.769791 -8.588797 27,350 179 450 -3392
2021-08-03 14:41:55 GMT 53.773499 -8.588797 27,425 179 450 -3392
2021-08-03 14:41:54 GMT 53.778728 -8.588885 27,600 179 451 -3328
2021-08-03 14:41:51 GMT 53.782032 -8.588885 27,675 179 451 -3328
2021-08-03 14:41:49 GMT 53.786224 -8.588966 27,775 179 452 -3328
2021-08-03 14:41:47 GMT 53.790573 -8.589033 27,900 179 453 -3328
2021-08-03 14:41:45 GMT 53.803162 -8.589190 28,200 179 454 -3328
2021-08-03 14:41:41 GMT 53.803162 -8.589190 28,225 179 456 -3328
2021-08-03 14:41:39 GMT 53.807590 -8.589289 28,325 179 456 -3328
2021-08-03 14:41:37 GMT 53.810715 -8.589347 28,425 179 457 -3456
2021-08-03 14:41:35 GMT 53.819366 -8.589451 28,650 179 458 -3520
2021-08-03 14:41:32 GMT 53.821510 -8.589451 28,700 179 458 -3520
2021-08-03 14:41:30 GMT 53.825745 -8.589451 28,825 179 458 -3520
2021-08-03 14:41:28 GMT 53.830170 -8.589504 28,950 179 459 -3584
2021-08-03 14:41:26 GMT 53.836533 -8.589582 29,125 179 459 -3648
2021-08-03 14:41:23 GMT 53.840969 -8.589612 29,250 179 459 -3712
2021-08-03 14:41:21 GMT 53.845203 -8.589612 29,375 179 460 -3840
2021-08-03 14:41:20 GMT 53.849258 -8.589661 29,500 179 460 -3904
2021-08-03 14:41:18 GMT 53.851364 -8.589661 29,575 179 460 -3968
2021-08-03 14:41:15 GMT 53.857540 -8.589693 29,750 179 460 -4096
2021-08-03 14:41:14 GMT 53.863453 -8.589774 29,950 179 459 -4224
2021-08-03 14:41:11 GMT 53.865784 -8.589739 30,025 179 459 -4224
2021-08-03 14:41:10 GMT 53.868992 -8.589774 30,125 179 459 -4224
2021-08-03 14:41:08 GMT 53.871925 -8.589855 30,225 179 459 -4224
2021-08-03 14:41:07 GMT 53.874065 -8.589855 30,300 179 459 -4224
2021-08-03 14:41:06 GMT 53.877464 -8.589935 30,425 179 459 -4096
2021-08-03 14:41:04 GMT 53.880863 -8.589935 30,525 179 459 -3968
2021-08-03 14:41:03 GMT 53.882957 -8.590016 30,600 179 459 -3904
2021-08-03 14:41:01 GMT 53.886978 -8.590053 30,725 179 459 -3712
2021-08-03 14:41:00 GMT 53.892269 -8.590097 30,825 179 459 -3584
2021-08-03 14:40:58 GMT 53.892269 -8.590097 30,950 179 459 -3328
2021-08-03 14:40:56 GMT 53.902046 -8.590258 31,100 179 460 -3008
2021-08-03 14:40:54 GMT 53.902046 -8.590258 31,100 179 461 -2944
2021-08-03 14:40:53 GMT 53.906281 -8.590339 31,200 179 461 -2816
2021-08-03 14:40:51 GMT 53.908005 -8.590339 31,250 179 462 -2816
2021-08-03 14:40:49 GMT 53.912476 -8.590367 31,350 179 463 -2816
2021-08-03 14:40:48 GMT 53.914848 -8.590420 31,375 179 463 -2816
2021-08-03 14:40:47 GMT 53.916943 -8.590501 31,425 179 463 -2816
2021-08-03 14:40:45 GMT 53.919296 -8.590524 31,475 179 464 -2816
2021-08-03 14:40:43 GMT 53.924252 -8.590582 31,575 179 464 -2752
2021-08-03 14:40:41 GMT 53.929417 -8.590662 31,700 179 467 -2752
2021-08-03 14:40:40 GMT 53.931335 -8.590681 31,750 179 467 -2752
2021-08-03 14:40:37 GMT 53.936050 -8.590681 31,825 179 467 -2816
2021-08-03 14:40:36 GMT 53.939529 -8.590759 31,875 179 468 -2752
2021-08-03 14:40:35 GMT 53.941681 -8.590759 31,975 179 469 -2752
2021-08-03 14:40:33 GMT 53.946644 -8.590824 32,050 179 469 -2688
2021-08-03 14:40:30 GMT 53.952274 -8.590905 32,150 179 470 -2624
2021-08-03 14:40:28 GMT 53.956833 -8.590995 32,250 179 471 -2624
2021-08-03 14:40:26 GMT 53.960094 -8.590985 32,325 179 471 -2624
2021-08-03 14:40:24 GMT 53.964470 -8.591066 32,400 179 472 -2496
2021-08-03 14:40:23 GMT 53.967964 -8.591147 32,450 179 473 -2432
2021-08-03 14:40:22 GMT 53.970104 -8.591147 32,500 179 473 -2496
2021-08-03 14:40:21 GMT 53.972534 -8.591152 32,550 179 474 -2496
2021-08-03 14:40:18 GMT 53.978622 -8.591230 32,650 179 474 -2496
2021-08-03 14:40:17 GMT 53.980820 -8.591309 32,675 179 475 -2432
2021-08-03 14:40:15 GMT 53.986084 -8.591309 32,775 179 475 -2432
2021-08-03 14:40:13 GMT 53.990479 -8.591387 32,850 179 475 -2688
2021-08-03 14:40:11 GMT 53.994637 -8.591470 32,925 179 475 -2688
2021-08-03 14:40:10 GMT 54.001419 -8.591544 33,050 179 475 -2752
2021-08-03 14:40:08 GMT 54.001419 -8.591544 33,050 179 475 -2752
2021-08-03 14:40:07 GMT 54.003616 -8.591544 33,125 179 475 -2752
2021-08-03 14:40:06 GMT 54.005577 -8.591551 33,175 179 474 -2752
2021-08-03 14:40:04 GMT 54.009750 -8.591622 33,250 179 474 -2752
2021-08-03 14:40:03 GMT 54.011948 -8.591622 33,300 179 474 -2752
2021-08-03 14:40:01 GMT 54.016342 -8.591701 33,375 179 474 -2752
2021-08-03 14:40:00 GMT 54.020473 -8.591713 33,475 179 474 -2752
2021-08-03 14:39:58 GMT 54.022888 -8.591701 33,525 179 474 -2752
2021-08-03 14:39:57 GMT 54.027039 -8.591793 33,600 179 473 -2752
2021-08-03 14:39:54 GMT 54.034698 -8.591858 33,775 179 473 -2816
2021-08-03 14:39:51 GMT 54.040329 -8.591936 33,900 179 472 -2880
2021-08-03 14:39:47 GMT 54.047745 -8.592015 34,050 179 472 -2880
2021-08-03 14:39:46 GMT 54.049942 -8.592015 34,100 179 472 -2880
2021-08-03 14:39:45 GMT 54.054085 -8.592116 34,200 179 471 -2816
2021-08-03 14:39:43 GMT 54.056030 -8.592093 34,225 179 471 -2816
2021-08-03 14:39:42 GMT 54.060379 -8.592172 34,325 179 470 -2752
2021-08-03 14:39:39 GMT 54.064930 -8.592197 34,425 179 470 -2688
2021-08-03 14:39:36 GMT 54.070770 -8.592172 34,525 179 469 -2432
2021-08-03 14:39:35 GMT 54.074055 -8.592197 34,550 179 469 -2432
2021-08-03 14:39:33 GMT 54.077080 -8.592197 34,625 179 468 -2176
2021-08-03 14:39:32 GMT 54.080524 -8.592197 34,650 179 468 -2112
2021-08-03 14:39:31 GMT 54.082249 -8.592197 34,700 179 467 -1984
2021-08-03 14:39:29 GMT 54.088718 -8.592278 34,800 179 466 -1728
2021-08-03 14:39:27 GMT 54.090862 -8.592278 34,800 179 465 -1600
2021-08-03 14:39:26 GMT 54.093002 -8.592278 34,825 179 465 -1536
2021-08-03 14:39:24 GMT 54.097752 -8.592359 34,875 179 464 -1216
2021-08-03 14:39:22 GMT 54.101151 -8.592359 34,900 179 464 -1088
2021-08-03 14:39:21 GMT 54.103500 -8.592407 34,925 179 463 -960
2021-08-03 14:39:20 GMT 54.107803 -8.592407 34,950 179 463 -768
2021-08-03 14:39:18 GMT 54.109497 -8.592407 34,975 179 462 -384
2021-08-03 14:39:16 GMT 54.113754 -8.592486 34,975 179 462 -256
2021-08-03 14:39:15 GMT 54.119751 -8.592564 35,000 179 462 -192
2021-08-03 14:39:12 GMT 54.123138 -8.592564 34,975 179 462 0
2021-08-03 14:39:11 GMT 54.129547 -8.592643 35,000 179 461 0
2021-08-03 14:39:09 GMT 54.129547 -8.592643 35,000 179 461 0
2021-08-03 14:39:07 GMT 54.134014 -8.592682 34,975 179 461 0
2021-08-03 14:39:05 GMT 54.138474 -8.592721 34,975 179 461 0
2021-08-03 14:39:04 GMT 54.140579 -8.592721 34,975 179 461 0
2021-08-03 14:39:02 GMT 54.144627 -8.592763 35,000 179 461 0
2021-08-03 14:39:01 GMT 54.146351 -8.592763 34,975 179 461 0
2021-08-03 14:38:59 GMT 54.149551 -8.592800 35,000 179 461 0
2021-08-03 14:38:57 GMT 54.153809 -8.592800 35,000 179 461 0
2021-08-03 14:38:55 GMT 54.158268 -8.592843 35,000 179 461 0
2021-08-03 14:38:54 GMT 54.160412 -8.592843 35,000 179 461 0
2021-08-03 14:38:53 GMT 54.162735 -8.592878 35,000 179 461 0
2021-08-03 14:38:52 GMT 54.166786 -8.592924 35,000 179 461 0
2021-08-03 14:38:50 GMT 54.168880 -8.592924 35,000 179 461 0
2021-08-03 14:38:48 GMT 54.173164 -8.593005 34,975 179 461 0
2021-08-03 14:38:47 GMT 54.176144 -8.593005 34,975 179 461 64
2021-08-03 14:38:46 GMT 54.179352 -8.593035 34,975 179 461 0
2021-08-03 14:38:43 GMT 54.186806 -8.593086 35,000 179 461 0
2021-08-03 14:38:40 GMT 54.189560 -8.593113 35,000 179 461 0
2021-08-03 14:38:39 GMT 54.193817 -8.593113 35,000 179 461 0
2021-08-03 14:38:37 GMT 54.195923 -8.593192 34,975 179 461 0
2021-08-03 14:38:36 GMT 54.199356 -8.593192 34,975 179 461 0
2021-08-03 14:38:35 GMT 54.201283 -8.593247 34,975 179 462 -64
2021-08-03 14:38:33 GMT 54.204681 -8.593247 34,975 179 462 0
2021-08-03 14:38:32 GMT 54.207870 -8.593270 34,975 179 462 0
2021-08-03 14:38:30 GMT 54.211258 -8.593349 34,975 179 462 -64
2021-08-03 14:38:29 GMT 54.214233 -8.593349 35,000 179 462 -64
2021-08-03 14:38:28 GMT 54.216599 -8.593328 34,975 179 462 0
2021-08-03 14:38:27 GMT 54.221054 -8.593427 35,000 179 462 -64
2021-08-03 14:38:25 GMT 54.222137 -8.593409 34,975 179 462 -64
2021-08-03 14:38:24 GMT 54.224487 -8.593427 34,975 179 462 -64
2021-08-03 14:38:22 GMT 54.228935 -8.593490 35,000 179 462 -64
2021-08-03 14:38:20 GMT 54.233002 -8.593584 35,000 179 462 -64
2021-08-03 14:38:18 GMT 54.236847 -8.593663 34,975 179 462 -64
2021-08-03 14:38:17 GMT 54.240234 -8.593663 35,000 179 462 0
2021-08-03 14:38:15 GMT 54.243256 -8.593741 35,000 179 462 -64
2021-08-03 14:38:14 GMT 54.246231 -8.593741 34,975 179 462 0
2021-08-03 14:38:12 GMT 54.249207 -8.593820 35,000 179 462 0
2021-08-03 14:38:11 GMT 54.251141 -8.593813 35,000 179 462 0
2021-08-03 14:38:09 GMT 54.255615 -8.593898 35,000 179 462 0
2021-08-03 14:38:08 GMT 54.257721 -8.593898 35,000 179 462 0
2021-08-03 14:38:07 GMT 54.259872 -8.593898 35,000 179 462 -64
2021-08-03 14:38:05 GMT 54.264542 -8.593977 34,975 179 462 -64
2021-08-03 14:38:04 GMT 54.266693 -8.593977 35,000 179 462 0
2021-08-03 14:38:01 GMT 54.273514 -8.594055 35,000 179 462 0
2021-08-03 14:38:00 GMT 54.275665 -8.594055 35,000 179 462 -64
2021-08-03 14:37:57 GMT 54.282074 -8.594136 34,975 179 463 0
2021-08-03 14:37:54 GMT 54.288662 -8.594138 35,000 179 463 0
2021-08-03 14:37:52 GMT 54.292740 -8.594217 34,975 179 463 0
2021-08-03 14:37:51 GMT 54.294846 -8.594217 34,975 179 463 0
2021-08-03 14:37:50 GMT 54.296806 -8.594222 35,000 179 463 0
2021-08-03 14:37:48 GMT 54.301464 -8.594305 34,975 179 463 0
2021-08-03 14:37:47 GMT 54.303406 -8.594298 34,975 179 463 0
2021-08-03 14:37:45 GMT 54.310226 -8.594378 34,975 179 463 -64
2021-08-03 14:37:42 GMT 54.315811 -8.594378 34,975 179 463 0
2021-08-03 14:37:39 GMT 54.322411 -8.594471 35,000 179 463 0
2021-08-03 14:37:37 GMT 54.324783 -8.594459 34,975 179 463 0
2021-08-03 14:37:36 GMT 54.327347 -8.594540 34,975 179 463 -64
2021-08-03 14:37:33 GMT 54.333755 -8.594540 34,975 179 463 0
2021-08-03 14:37:31 GMT 54.338013 -8.594621 35,000 179 463 0
2021-08-03 14:37:29 GMT 54.345703 -8.594701 35,000 179 463 -64
2021-08-03 14:37:27 GMT 54.345703 -8.594701 35,000 179 463 -64
2021-08-03 14:37:26 GMT 54.350204 -8.594721 34,975 179 464 -64
2021-08-03 14:37:23 GMT 54.354485 -8.594804 35,000 179 464 -64
2021-08-03 14:37:22 GMT 54.356827 -8.594782 35,000 179 464 0
2021-08-03 14:37:21 GMT 54.358978 -8.594782 35,000 179 464 0
2021-08-03 14:37:19 GMT 54.363281 -8.594863 35,000 179 464 -64
2021-08-03 14:37:17 GMT 54.367332 -8.594887 35,000 179 464 -64
2021-08-03 14:37:16 GMT 54.369476 -8.594887 35,000 179 464 0
2021-08-03 14:37:14 GMT 54.374596 -8.594971 35,000 179 464 -64
2021-08-03 14:37:13 GMT 54.376320 -8.594971 35,000 179 464 -64
2021-08-03 14:37:12 GMT 54.378250 -8.595025 35,000 179 464 -64
2021-08-03 14:37:09 GMT 54.383579 -8.595054 35,000 179 464 0
2021-08-03 14:37:08 GMT 54.386810 -8.595105 35,000 179 464 0
2021-08-03 14:37:07 GMT 54.388962 -8.595105 35,000 179 464 0
2021-08-03 14:37:06 GMT 54.391308 -8.595137 35,000 179 464 0
2021-08-03 14:37:04 GMT 54.395782 -8.595186 35,000 179 464 0
2021-08-03 14:37:03 GMT 54.398151 -8.595220 35,000 179 464 0
2021-08-03 14:37:02 GMT 54.402237 -8.595267 35,000 179 464 0
2021-08-03 14:37:00 GMT 54.404388 -8.595267 34,975 179 464 0
2021-08-03 14:36:58 GMT 54.408859 -8.595304 34,975 179 464 0
2021-08-03 14:36:56 GMT 54.415283 -8.595387 34,975 179 465 0
2021-08-03 14:36:54 GMT 54.417206 -8.595428 34,975 179 465 0
2021-08-03 14:36:52 GMT 54.421509 -8.595428 34,975 179 465 0
2021-08-03 14:36:51 GMT 54.423897 -8.595470 34,975 179 465 0
2021-08-03 14:36:48 GMT 54.430527 -8.595509 34,975 179 465 0
2021-08-03 14:36:46 GMT 54.435020 -8.595637 34,975 179 465 0
2021-08-03 14:36:45 GMT 54.436935 -8.595590 34,975 179 465 0
2021-08-03 14:36:44 GMT 54.442978 -8.595671 34,975 179 465 0
2021-08-03 14:36:42 GMT 54.442978 -8.595671 34,975 179 465 0
2021-08-03 14:36:40 GMT 54.447914 -8.595720 34,975 179 465 0
2021-08-03 14:36:38 GMT 54.451778 -8.595803 34,975 179 465 -64
2021-08-03 14:36:37 GMT 54.453922 -8.595803 34,975 179 465 -64
2021-08-03 14:36:35 GMT 54.458622 -8.595886 34,975 179 465 -64
2021-08-03 14:36:34 GMT 54.460556 -8.595913 34,975 179 466 -64
2021-08-03 14:36:32 GMT 54.465096 -8.595886 34,975 179 466 -64
2021-08-03 14:36:30 GMT 54.469574 -8.595994 34,975 179 466 -64
2021-08-03 14:36:29 GMT 54.471725 -8.595994 34,975 179 466 -64
2021-08-03 14:36:26 GMT 54.477104 -8.596053 35,000 179 466 -64
2021-08-03 14:36:25 GMT 54.479050 -8.596075 34,975 179 466 -64
2021-08-03 14:36:24 GMT 54.481201 -8.596075 34,975 179 466 -64
2021-08-03 14:36:22 GMT 54.483994 -8.596136 34,975 179 466 -64
2021-08-03 14:36:20 GMT 54.487438 -8.596136 35,000 179 466 -64
2021-08-03 14:36:18 GMT 54.493443 -8.596219 35,000 179 466 -64
2021-08-03 14:36:15 GMT 54.501846 -8.596317 35,000 179 466 -64
2021-08-03 14:36:13 GMT 54.503586 -8.596317 35,000 179 466 -64
2021-08-03 14:36:12 GMT 54.505737 -8.596317 35,000 179 466 -64
2021-08-03 14:36:10 GMT 54.509785 -8.596386 35,000 179 466 -64
2021-08-03 14:36:07 GMT 54.516254 -8.596469 35,000 179 466 0
2021-08-03 14:36:05 GMT 54.520752 -8.596479 35,000 179 466 -64
2021-08-03 14:36:04 GMT 54.523361 -8.596479 35,000 179 466 -64
2021-08-03 14:36:02 GMT 54.532177 -8.596635 35,000 179 466 0
2021-08-03 14:36:00 GMT 54.532177 -8.596635 35,000 179 466 -64
2021-08-03 14:35:59 GMT 54.536461 -8.596635 35,000 179 465 0
2021-08-03 14:35:56 GMT 54.540741 -8.596719 35,000 179 465 -64
2021-08-03 14:35:55 GMT 54.542885 -8.596719 35,000 179 465 0
2021-08-03 14:35:54 GMT 54.544830 -8.596721 35,000 179 465 0
2021-08-03 14:35:53 GMT 54.546982 -8.596721 35,000 179 465 -64
2021-08-03 14:35:51 GMT 54.551075 -8.596802 35,000 179 465 0
2021-08-03 14:35:49 GMT 54.555359 -8.596802 35,000 179 465 0
2021-08-03 14:35:46 GMT 54.561783 -8.596885 35,000 179 464 64
2021-08-03 14:35:44 GMT 54.565842 -8.596963 35,000 179 464 0
2021-08-03 14:35:43 GMT 54.569931 -8.596968 34,975 179 464 0
2021-08-03 14:35:41 GMT 54.571838 -8.597044 34,975 179 464 0
2021-08-03 14:35:40 GMT 54.575272 -8.597044 35,000 179 464 0
2021-08-03 14:35:39 GMT 54.577423 -8.597044 35,000 179 464 0
2021-08-03 14:35:37 GMT 54.581894 -8.597135 34,975 179 463 0
2021-08-03 14:35:36 GMT 54.583199 -8.597135 35,000 179 463 0
2021-08-03 14:35:35 GMT 54.586395 -8.597125 34,975 179 463 0
2021-08-03 14:35:34 GMT 54.587479 -8.597135 34,975 179 463 0
2021-08-03 14:35:33 GMT 54.593674 -8.597206 34,975 179 463 0
2021-08-03 14:35:30 GMT 54.595779 -8.597286 35,000 179 463 0
2021-08-03 14:35:29 GMT 54.598801 -8.597286 34,975 179 463 0
2021-08-03 14:35:28 GMT 54.604565 -8.597384 35,000 179 463 0
2021-08-03 14:35:25 GMT 54.607544 -8.597384 35,000 179 463 0
2021-08-03 14:35:23 GMT 54.612030 -8.597448 35,000 179 462 0
2021-08-03 14:35:22 GMT 54.614388 -8.597468 34,975 179 462 -64
2021-08-03 14:35:20 GMT 54.618622 -8.597468 35,000 179 462 0
2021-08-03 14:35:19 GMT 54.620544 -8.597529 35,000 179 462 0
2021-08-03 14:35:18 GMT 54.622696 -8.597529 35,000 179 462 0
2021-08-03 14:35:16 GMT 54.626724 -8.597551 35,000 179 462 0
2021-08-03 14:35:15 GMT 54.628864 -8.597634 35,000 179 462 0
2021-08-03 14:35:13 GMT 54.632904 -8.597610 35,000 179 462 0
2021-08-03 14:35:12 GMT 54.638031 -8.597690 34,975 179 462 64
2021-08-03 14:35:09 GMT 54.641247 -8.597717 35,000 179 462 64
2021-08-03 14:35:08 GMT 54.643570 -8.597771 35,000 179 462 0
2021-08-03 14:35:07 GMT 54.649109 -8.597771 34,975 179 461 0
2021-08-03 14:35:03 GMT 54.655308 -8.597884 34,975 179 461 64
2021-08-03 14:34:59 GMT 54.662941 -8.597884 35,000 179 461 0
2021-08-03 14:34:57 GMT 54.668243 -8.597933 35,000 179 461 0
2021-08-03 14:34:54 GMT 54.674438 -8.598050 35,000 179 461 0
2021-08-03 14:34:53 GMT 54.676346 -8.598013 35,000 179 461 0
2021-08-03 14:34:52 GMT 54.680603 -8.598094 34,975 179 461 -64
2021-08-03 14:34:49 GMT 54.683990 -8.598094 34,975 179 461 -64
2021-08-03 14:34:48 GMT 54.686554 -8.598094 35,000 179 461 0
2021-08-03 14:34:47 GMT 54.688660 -8.598175 35,000 179 461 0
2021-08-03 14:34:45 GMT 54.691849 -8.598217 35,000 179 461 0
2021-08-03 14:34:43 GMT 54.696133 -8.598217 35,000 179 461 0
2021-08-03 14:34:42 GMT 54.699326 -8.598256 35,000 179 461 -64
2021-08-03 14:34:40 GMT 54.707165 -8.598300 35,000 179 461 0
2021-08-03 14:34:38 GMT 54.707165 -8.598300 35,000 179 461 -64
2021-08-03 14:34:37 GMT 54.709534 -8.598337 35,000 179 461 0
2021-08-03 14:34:35 GMT 54.713543 -8.598383 35,000 179 461 0
2021-08-03 14:34:34 GMT 54.715897 -8.598417 35,000 179 461 0
2021-08-03 14:34:33 GMT 54.718460 -8.598417 35,000 179 461 -64
2021-08-03 14:34:32 GMT 54.722260 -8.598498 35,000 179 461 0
2021-08-03 14:34:30 GMT 54.724411 -8.598498 35,000 179 461 0
2021-08-03 14:34:29 GMT 54.731838 -8.598550 35,000 179 461 0
2021-08-03 14:34:27 GMT 54.731838 -8.598550 35,000 179 461 64
2021-08-03 14:34:25 GMT 54.736542 -8.598633 34,975 179 461 0
2021-08-03 14:34:23 GMT 54.742722 -8.598660 34,975 179 461 0
2021-08-03 14:34:21 GMT 54.744827 -8.598741 35,000 179 461 0
2021-08-03 14:34:20 GMT 54.750599 -8.598799 34,975 179 461 0
2021-08-03 14:34:17 GMT 54.759071 -8.598883 34,975 179 461 0
2021-08-03 14:34:14 GMT 54.759071 -8.598883 34,975 179 461 0
2021-08-03 14:34:13 GMT 54.762268 -8.598902 34,975 179 461 0
2021-08-03 14:34:12 GMT 54.765495 -8.598883 35,000 179 462 0
2021-08-03 14:34:10 GMT 54.768055 -8.598966 35,000 179 462 0
2021-08-03 14:34:09 GMT 54.774014 -8.599049 35,000 179 462 0
2021-08-03 14:34:06 GMT 54.781448 -8.599064 35,000 179 462 0
2021-08-03 14:34:04 GMT 54.781448 -8.599064 35,000 179 462 0
2021-08-03 14:34:01 GMT 54.787235 -8.599132 34,975 179 462 0
2021-08-03 14:33:59 GMT 54.791473 -8.599215 35,000 179 463 0
2021-08-03 14:33:57 GMT 54.795753 -8.599299 35,000 179 463 0
2021-08-03 14:33:55 GMT 54.800262 -8.599306 34,975 179 463 0
2021-08-03 14:33:52 GMT 54.806213 -8.599387 34,975 179 464 64
2021-08-03 14:33:49 GMT 54.812420 -8.599465 34,975 179 464 64
2021-08-03 14:33:47 GMT 54.816925 -8.599468 34,975 179 464 64
2021-08-03 14:33:46 GMT 54.819077 -8.599548 34,975 179 465 0
2021-08-03 14:33:44 GMT 54.824013 -8.599548 34,975 179 465 0
2021-08-03 14:33:41 GMT 54.829597 -8.599632 34,975 179 465 0
2021-08-03 14:33:38 GMT 54.834503 -8.599710 34,975 179 466 -64
2021-08-03 14:33:37 GMT 54.841610 -8.599715 34,975 179 466 -64
2021-08-03 14:33:35 GMT 54.841610 -8.599715 34,975 179 467 -64
2021-08-03 14:33:34 GMT 54.843979 -8.599791 34,975 179 467 -64
2021-08-03 14:33:31 GMT 54.848965 -8.599798 35,000 179 467 -64
2021-08-03 14:33:30 GMT 54.851944 -8.599881 34,975 179 467 -64
2021-08-03 14:33:29 GMT 54.853912 -8.599871 35,000 179 468 -64
2021-08-03 14:33:27 GMT 54.862106 -8.599952 34,975 179 468 -64
2021-08-03 14:33:24 GMT 54.866234 -8.599964 34,975 179 469 -64
2021-08-03 14:33:22 GMT 54.871822 -8.600048 35,000 179 469 -64
2021-08-03 14:33:19 GMT 54.875931 -8.600114 35,000 179 469 -128
2021-08-03 14:33:18 GMT 54.880280 -8.600114 35,000 179 470 -128
2021-08-03 14:33:16 GMT 54.882431 -8.600195 35,000 179 470 -128
2021-08-03 14:33:15 GMT 54.886780 -8.600195 35,000 179 470 -64
2021-08-03 14:33:13 GMT 54.888931 -8.600275 35,000 179 470 -64
2021-08-03 14:33:11 GMT 54.893932 -8.600297 35,000 179 470 -64
2021-08-03 14:33:10 GMT 54.895889 -8.600356 35,000 179 470 -64
2021-08-03 14:33:08 GMT 54.899986 -8.600381 35,000 179 470 0
2021-08-03 14:33:06 GMT 54.904541 -8.600437 35,000 179 470 64
2021-08-03 14:33:04 GMT 54.908890 -8.600518 35,000 179 470 64
2021-08-03 14:33:03 GMT 54.911087 -8.600518 35,000 179 471 -64
2021-08-03 14:33:01 GMT 54.915207 -8.600547 35,000 179 471 -64
2021-08-03 14:32:59 GMT 54.920197 -8.600599 35,000 179 471 -64
2021-08-03 14:32:58 GMT 54.922348 -8.600599 34,975 179 471 0
2021-08-03 14:32:56 GMT 54.926472 -8.600714 34,975 179 471 -64
2021-08-03 14:32:55 GMT 54.928661 -8.600714 35,000 179 471 -64
2021-08-03 14:32:53 GMT 54.933876 -8.600797 35,000 179 471 -64
2021-08-03 14:32:51 GMT 54.944092 -8.600841 35,000 179 471 0
2021-08-03 14:32:48 GMT 54.946243 -8.600922 35,000 179 471 0
2021-08-03 14:32:46 GMT 54.948441 -8.600922 35,000 179 471 0
2021-08-03 14:32:45 GMT 54.950592 -8.600922 35,000 179 471 0
2021-08-03 14:32:43 GMT 54.954731 -8.600963 35,000 179 471 0
2021-08-03 14:32:42 GMT 54.957092 -8.601002 35,000 179 471 0
2021-08-03 14:32:40 GMT 54.961246 -8.601046 35,000 179 471 0
2021-08-03 14:32:39 GMT 54.963390 -8.601046 35,000 179 471 0
2021-08-03 14:32:36 GMT 54.970139 -8.601164 34,975 179 470 64
2021-08-03 14:32:34 GMT 54.974487 -8.601164 34,975 179 470 64
2021-08-03 14:32:32 GMT 54.979031 -8.601213 34,975 179 470 0
2021-08-03 14:32:30 GMT 54.987270 -8.601296 34,975 179 470 64
2021-08-03 14:32:28 GMT 54.987270 -8.601296 34,975 179 470 64
2021-08-03 14:32:26 GMT 54.991379 -8.601406 34,975 179 470 0
2021-08-03 14:32:25 GMT 54.993576 -8.601406 34,975 179 470 0
2021-08-03 14:32:23 GMT 54.998116 -8.601463 34,975 179 470 0
2021-08-03 14:32:22 GMT 55.002228 -8.601487 34,975 179 470 0
2021-08-03 14:32:20 GMT 55.004635 -8.601546 34,975 179 470 -64
2021-08-03 14:32:19 GMT 55.006989 -8.601487 35,000 179 470 0
2021-08-03 14:32:17 GMT 55.011105 -8.601546 35,000 179 470 0
2021-08-03 14:32:16 GMT 55.016556 -8.601649 34,975 179 470 -64
2021-08-03 14:32:12 GMT 55.023514 -8.601649 34,975 179 470 0
2021-08-03 14:32:11 GMT 55.024796 -8.601649 35,000 179 470 -64
2021-08-03 14:32:10 GMT 55.027405 -8.601729 35,000 179 470 -64
2021-08-03 14:32:08 GMT 55.031494 -8.601796 34,975 179 470 0
2021-08-03 14:32:06 GMT 55.036057 -8.601810 35,000 179 470 -64
2021-08-03 14:32:04 GMT 55.038666 -8.601810 35,000 179 470 -64
2021-08-03 14:32:02 GMT 55.044949 -8.601879 35,000 179 470 -64
2021-08-03 14:32:01 GMT 55.047138 -8.601879 35,000 179 470 0
2021-08-03 14:31:59 GMT 55.051468 -8.601962 35,000 179 470 0
2021-08-03 14:31:57 GMT 55.056015 -8.602053 35,000 179 470 -64
2021-08-03 14:31:55 GMT 55.062515 -8.602133 35,000 179 470 0
2021-08-03 14:31:53 GMT 55.064713 -8.602133 35,000 179 470 -64
2021-08-03 14:31:51 GMT 55.068829 -8.602212 35,000 179 470 0
2021-08-03 14:31:49 GMT 55.076843 -8.602295 35,000 179 470 0
2021-08-03 14:31:47 GMT 55.078995 -8.602295 34,975 179 470 0
2021-08-03 14:31:45 GMT 55.081192 -8.602376 34,975 179 470 0
2021-08-03 14:31:43 GMT 55.086365 -8.602376 35,000 179 470 0
2021-08-03 14:31:42 GMT 55.087452 -8.602461 34,975 179 470 0
2021-08-03 14:31:41 GMT 55.090714 -8.602456 34,975 179 470 0
2021-08-03 14:31:38 GMT 55.097214 -8.602537 34,975 179 470 0
2021-08-03 14:31:36 GMT 55.100693 -8.602537 34,975 179 470 0
2021-08-03 14:31:35 GMT 55.103092 -8.602545 34,975 179 470 0
2021-08-03 14:31:34 GMT 55.107422 -8.602628 34,975 179 470 -64
2021-08-03 14:31:31 GMT 55.111954 -8.602699 34,975 179 470 -64
2021-08-03 14:31:30 GMT 55.113937 -8.602711 34,975 179 470 -64
2021-08-03 14:31:29 GMT 55.116081 -8.602711 34,975 179 470 -64
2021-08-03 14:31:27 GMT 55.120411 -8.602711 34,975 179 470 -64
2021-08-03 14:31:26 GMT 55.122597 -8.602794 35,000 179 470 -64
2021-08-03 14:31:24 GMT 55.126926 -8.602794 34,975 179 470 -64
2021-08-03 14:31:22 GMT 55.131256 -8.602794 35,000 179 470 -64
2021-08-03 14:31:21 GMT 55.135166 -8.602878 35,000 179 470 -64
2021-08-03 14:31:18 GMT 55.138412 -8.602860 35,000 179 470 -64
2021-08-03 14:31:17 GMT 55.141685 -8.602961 35,000 179 470 -64
2021-08-03 14:31:16 GMT 55.143826 -8.602961 34,975 179 470 -64
2021-08-03 14:31:15 GMT 55.148621 -8.602961 35,000 179 470 0
2021-08-03 14:31:12 GMT 55.151646 -8.603044 35,000 179 470 -64
2021-08-03 14:31:10 GMT 55.156860 -8.603127 34,975 179 470 -64
2021-08-03 14:31:07 GMT 55.163132 -8.603184 35,000 179 470 0
2021-08-03 14:31:06 GMT 55.166405 -8.603210 35,000 179 470 0
2021-08-03 14:31:05 GMT 55.168350 -8.603184 34,975 179 470 0
2021-08-03 14:31:04 GMT 55.172874 -8.603210 35,000 179 470 0
2021-08-03 14:31:02 GMT 55.174644 -8.603294 34,975 179 470 -64
2021-08-03 14:31:01 GMT 55.177204 -8.603294 34,975 179 470 -64
2021-08-03 14:30:59 GMT 55.181351 -8.603345 35,000 179 470 -64
2021-08-03 14:30:58 GMT 55.185654 -8.603345 34,975 179 470 -64
2021-08-03 14:30:56 GMT 55.188263 -8.603426 34,975 179 470 -64
2021-08-03 14:30:55 GMT 55.190460 -8.603426 34,975 179 470 -64
2021-08-03 14:30:53 GMT 55.194351 -8.603426 35,000 179 470 0
2021-08-03 14:30:50 GMT 55.199112 -8.603507 34,975 179 470 0
2021-08-03 14:30:47 GMT 55.204742 -8.603587 35,000 179 470 0
2021-08-03 14:30:46 GMT 55.206070 -8.603587 34,975 179 470 0
2021-08-03 14:30:45 GMT 55.208221 -8.603587 35,000 179 470 0
2021-08-03 14:30:44 GMT 55.211700 -8.603587 35,000 179 470 0
2021-08-03 14:30:43 GMT 55.216263 -8.603627 35,000 179 470 0
2021-08-03 14:30:41 GMT 55.218403 -8.603710 35,000 179 470 0
2021-08-03 14:30:40 GMT 55.222961 -8.603749 35,000 179 470 0
2021-08-03 14:30:37 GMT 55.226223 -8.603793 35,000 179 470 0
2021-08-03 14:30:36 GMT 55.229248 -8.603793 34,975 179 470 0
2021-08-03 14:30:34 GMT 55.232738 -8.603793 34,975 179 470 0
2021-08-03 14:30:33 GMT 55.235767 -8.603876 34,975 179 470 -64
2021-08-03 14:30:32 GMT 55.237701 -8.603830 35,000 179 470 0
2021-08-03 14:30:31 GMT 55.242050 -8.603911 34,975 179 470 -64
2021-08-03 14:30:28 GMT 55.246147 -8.603960 35,000 179 470 -64
2021-08-03 14:30:25 GMT 55.253132 -8.604043 35,000 179 470 -64
2021-08-03 14:30:23 GMT 55.257248 -8.604072 35,000 179 470 -64
2021-08-03 14:30:22 GMT 55.259602 -8.604126 35,000 179 470 -64
2021-08-03 14:30:20 GMT 55.264618 -8.604153 35,000 179 470 -64
2021-08-03 14:30:19 GMT 55.266537 -8.604209 35,000 179 470 -64
2021-08-03 14:30:17 GMT 55.270027 -8.604209 35,000 179 470 0
2021-08-03 14:30:15 GMT 55.275009 -8.604314 35,000 179 470 -64
2021-08-03 14:30:13 GMT 55.281967 -8.604395 35,000 179 470 -64
2021-08-03 14:30:12 GMT 55.281967 -8.604395 35,000 179 470 -64
2021-08-03 14:30:11 GMT 55.296051 -8.604542 35,000 179 470 -64
2021-08-03 14:30:07 GMT 55.296051 -8.604542 35,000 179 470 -64
2021-08-03 14:30:04 GMT 55.300186 -8.604557 35,000 179 470 0
2021-08-03 14:30:01 GMT 55.308884 -8.604638 35,000 179 470 0
2021-08-03 14:29:59 GMT 55.311035 -8.604718 35,000 179 470 0
2021-08-03 14:29:57 GMT 55.315384 -8.604718 35,000 179 470 0
2021-08-03 14:29:55 GMT 55.318405 -8.604799 35,000 179 470 0
2021-08-03 14:29:54 GMT 55.321236 -8.604792 35,000 179 470 0
2021-08-03 14:29:52 GMT 55.325565 -8.604875 35,000 179 470 0
2021-08-03 14:29:51 GMT 55.327755 -8.604875 34,975 179 470 0
2021-08-03 14:29:50 GMT 55.332321 -8.604961 35,000 179 470 0
2021-08-03 14:29:47 GMT 55.336624 -8.604961 34,975 179 470 64
2021-08-03 14:29:45 GMT 55.340740 -8.605042 34,975 179 470 64
2021-08-03 14:29:44 GMT 55.342930 -8.605042 35,000 179 470 0
2021-08-03 14:29:42 GMT 55.347061 -8.605122 34,975 179 470 64
2021-08-03 14:29:41 GMT 55.348980 -8.605125 34,975 179 470 64
2021-08-03 14:29:40 GMT 55.353104 -8.605203 35,000 179 470 64
2021-08-03 14:29:38 GMT 55.355301 -8.605203 34,975 179 470 0
2021-08-03 14:29:35 GMT 55.363319 -8.605291 34,975 179 470 0
2021-08-03 14:29:32 GMT 55.369583 -8.605365 34,975 179 470 0
2021-08-03 14:29:31 GMT 55.371979 -8.605374 34,975 179 470 0
2021-08-03 14:29:29 GMT 55.376774 -8.605458 34,975 179 470 0
2021-08-03 14:29:27 GMT 55.378914 -8.605458 34,975 179 470 0
2021-08-03 14:29:25 GMT 55.385014 -8.605541 34,975 179 470 -64
2021-08-03 14:29:24 GMT 55.386932 -8.605607 34,975 179 471 -64
2021-08-03 14:29:22 GMT 55.391064 -8.605624 35,000 179 471 -64
2021-08-03 14:29:20 GMT 55.395218 -8.605688 35,000 179 471 -64
2021-08-03 14:29:18 GMT 55.399109 -8.605769 35,000 179 471 -64
2021-08-03 14:29:17 GMT 55.401073 -8.605791 35,000 179 471 -64
2021-08-03 14:29:15 GMT 55.406288 -8.605791 35,000 179 471 -64
2021-08-03 14:29:13 GMT 55.410618 -8.605707 35,000 181 471 0
2021-08-03 14:29:11 GMT 55.414948 -8.605707 34,975 181 471 -64
2021-08-03 14:29:10 GMT 55.417133 -8.605707 35,000 181 471 -64
2021-08-03 14:29:09 GMT 55.426025 -8.605526 34,975 181 471 -64
2021-08-03 14:29:06 GMT 55.427982 -8.605458 35,000 181 471 -64
2021-08-03 14:29:04 GMT 55.430168 -8.605374 35,000 182 471 -64
2021-08-03 14:29:03 GMT 55.432114 -8.605284 35,000 182 471 -64
2021-08-03 14:29:00 GMT 55.438408 -8.605125 35,000 182 471 -64
2021-08-03 14:28:58 GMT 55.443420 -8.604880 35,000 182 470 0
2021-08-03 14:28:57 GMT 55.445572 -8.604792 35,000 182 470 0
2021-08-03 14:28:56 GMT 55.447769 -8.604625 35,000 182 470 0
2021-08-03 14:28:54 GMT 55.454269 -8.604292 35,000 182 470 0
2021-08-03 14:28:52 GMT 55.456421 -8.604209 34,975 183 470 0
2021-08-03 14:28:51 GMT 55.458797 -8.604012 34,975 183 470 0
2021-08-03 14:28:48 GMT 55.467037 -8.603497 34,975 183 470 0
2021-08-03 14:28:45 GMT 55.471619 -8.603127 34,975 183 470 0
2021-08-03 14:28:42 GMT 55.478531 -8.602545 35,000 183 470 0
2021-08-03 14:28:40 GMT 55.482632 -8.602209 34,975 184 469 -64
2021-08-03 14:28:39 GMT 55.487183 -8.601712 34,975 184 469 -64
2021-08-03 14:28:37 GMT 55.489380 -8.601546 34,975 184 469 -64
2021-08-03 14:28:35 GMT 55.493683 -8.601046 35,000 184 469 0
2021-08-03 14:28:33 GMT 55.497162 -8.600714 35,000 184 469 0
2021-08-03 14:28:32 GMT 55.498901 -8.600464 35,000 184 469 0
2021-08-03 14:28:31 GMT 55.502335 -8.600131 35,000 184 470 0
2021-08-03 14:28:30 GMT 55.504280 -8.599892 35,000 184 470 0
2021-08-03 14:28:29 GMT 55.508835 -8.599299 35,000 184 470 0
2021-08-03 14:28:27 GMT 55.510796 -8.599119 35,000 184 470 0
2021-08-03 14:28:25 GMT 55.515125 -8.598518 34,975 184 470 0
2021-08-03 14:28:24 GMT 55.517269 -8.598261 34,975 184 470 0
2021-08-03 14:28:22 GMT 55.522484 -8.597660 35,000 184 470 0
2021-08-03 14:28:19 GMT 55.528748 -8.596885 34,975 184 470 -64
2021-08-03 14:28:17 GMT 55.532864 -8.596373 34,975 184 470 0
2021-08-03 14:28:16 GMT 55.534164 -8.596287 35,000 184 470 -64
2021-08-03 14:28:15 GMT 55.537399 -8.595886 34,975 184 470 0
2021-08-03 14:28:13 GMT 55.541519 -8.595343 34,975 185 470 -64
2021-08-03 14:28:12 GMT 55.543709 -8.595085 35,000 185 470 -64
2021-08-03 14:28:10 GMT 55.547791 -8.594555 35,000 185 470 -64
2021-08-03 14:28:08 GMT 55.551903 -8.594055 35,000 185 470 -64
2021-08-03 14:28:07 GMT 55.553879 -8.593805 35,000 185 470 -64
2021-08-03 14:28:05 GMT 55.556900 -8.593473 35,000 185 470 -64
2021-08-03 14:28:03 GMT 55.562531 -8.592723 35,000 185 470 -64
2021-08-03 14:27:59 GMT 55.572464 -8.591475 35,000 185 470 0
2021-08-03 14:27:56 GMT 55.577042 -8.590965 35,000 185 470 0
2021-08-03 14:27:54 GMT 55.585701 -8.589849 35,000 185 470 0
2021-08-03 14:27:51 GMT 55.587616 -8.589644 35,000 185 470 0
2021-08-03 14:27:49 GMT 55.593704 -8.588895 35,000 185 470 64
2021-08-03 14:27:48 GMT 55.595661 -8.588648 35,000 185 470 0
2021-08-03 14:27:47 GMT 55.597595 -8.588396 34,975 185 470 64
2021-08-03 14:27:45 GMT 55.601715 -8.587875 34,975 185 470 0
2021-08-03 14:27:44 GMT 55.603638 -8.587646 35,000 185 470 0
2021-08-03 14:27:41 GMT 55.609726 -8.586897 35,000 185 470 0
2021-08-03 14:27:40 GMT 55.614235 -8.586330 35,000 185 470 0
2021-08-03 14:27:38 GMT 55.617310 -8.585987 35,000 185 470 0
2021-08-03 14:27:36 GMT 55.620987 -8.585483 35,000 185 470 0
2021-08-03 14:27:34 GMT 55.625965 -8.584871 35,000 185 470 0
2021-08-03 14:27:32 GMT 55.630299 -8.584356 35,000 185 470 0
2021-08-03 14:27:30 GMT 55.634624 -8.583755 34,975 185 470 0
2021-08-03 14:27:28 GMT 55.638069 -8.583326 34,975 185 471 0
2021-08-03 14:27:27 GMT 55.641312 -8.582986 35,000 185 471 0
2021-08-03 14:27:25 GMT 55.647400 -8.582153 35,000 185 471 0
2021-08-03 14:27:23 GMT 55.649551 -8.581904 35,000 185 471 0
2021-08-03 14:27:21 GMT 55.653900 -8.581404 34,975 185 471 0
2021-08-03 14:27:19 GMT 55.657379 -8.580905 34,975 185 471 0
2021-08-03 14:27:18 GMT 55.658463 -8.580751 34,975 185 471 0
2021-08-03 14:27:15 GMT 55.664932 -8.579979 34,975 185 471 0
2021-08-03 14:27:13 GMT 55.669727 -8.579378 35,000 185 471 0
2021-08-03 14:27:11 GMT 55.673859 -8.578824 34,975 185 472 0
2021-08-03 14:27:09 GMT 55.678207 -8.578325 34,975 185 472 0
2021-08-03 14:27:08 GMT 55.680573 -8.578005 34,975 185 472 0
2021-08-03 14:27:07 GMT 55.684708 -8.577492 34,975 185 472 0
2021-08-03 14:27:05 GMT 55.687092 -8.577232 35,000 185 472 -64
2021-08-03 14:27:03 GMT 55.691666 -8.576577 34,975 185 472 -64
2021-08-03 14:27:01 GMT 55.698166 -8.575828 34,975 185 473 0
2021-08-03 14:26:59 GMT 55.700588 -8.575516 34,975 185 473 -64
2021-08-03 14:26:58 GMT 55.704254 -8.574996 34,975 185 473 -64
2021-08-03 14:26:56 GMT 55.706451 -8.574746 35,000 185 473 -64
2021-08-03 14:26:55 GMT 55.710800 -8.574163 35,000 185 473 -64
2021-08-03 14:26:52 GMT 55.714737 -8.573664 35,000 185 473 -64
2021-08-03 14:26:51 GMT 55.717758 -8.573331 35,000 185 474 -64
2021-08-03 14:26:50 GMT 55.719723 -8.573027 35,000 185 474 -64
2021-08-03 14:26:46 GMT 55.735199 -8.571084 35,000 185 474 -64
2021-08-03 14:26:43 GMT 55.735199 -8.571084 35,000 185 474 -64
2021-08-03 14:26:42 GMT 55.737598 -8.570795 35,000 185 474 -64
2021-08-03 14:26:41 GMT 55.743942 -8.570002 34,975 185 474 0
2021-08-03 14:26:39 GMT 55.743942 -8.570002 35,000 185 475 -64
2021-08-03 14:26:37 GMT 55.748119 -8.569422 35,000 185 475 -64
2021-08-03 14:26:35 GMT 55.751614 -8.568993 34,975 185 475 0
2021-08-03 14:26:34 GMT 55.755524 -8.568478 34,975 185 475 0
2021-08-03 14:26:32 GMT 55.759014 -8.568048 35,000 185 475 0
2021-08-03 14:26:30 GMT 55.763390 -8.567533 34,975 185 475 0
2021-08-03 14:26:28 GMT 55.768433 -8.566839 35,000 185 475 0
2021-08-03 14:26:27 GMT 55.772606 -8.566332 34,975 185 475 0
2021-08-03 14:26:25 GMT 55.774567 -8.566090 34,975 185 475 0
2021-08-03 14:26:24 GMT 55.776516 -8.565817 34,975 184 475 0
2021-08-03 14:26:22 GMT 55.780891 -8.565302 34,975 185 475 0
2021-08-03 14:26:21 GMT 55.783081 -8.565044 34,975 185 475 0
2021-08-03 14:26:18 GMT 55.789646 -8.564186 34,975 185 475 0
2021-08-03 14:26:16 GMT 55.794022 -8.563671 35,000 185 475 0
2021-08-03 14:26:15 GMT 55.796207 -8.563328 34,975 185 475 -64
2021-08-03 14:26:13 GMT 55.800385 -8.562844 34,975 185 475 -64
2021-08-03 14:26:12 GMT 55.803452 -8.562428 35,000 185 475 -64
2021-08-03 14:26:10 GMT 55.807148 -8.561954 34,975 184 475 -64
2021-08-03 14:26:09 GMT 55.810223 -8.561611 35,000 184 475 -64
2021-08-03 14:26:07 GMT 55.814598 -8.561096 34,975 184 476 -64
2021-08-03 14:26:05 GMT 55.818974 -8.560495 34,975 184 476 -64
2021-08-03 14:26:04 GMT 55.821396 -8.560181 35,000 184 476 -64
2021-08-03 14:26:02 GMT 55.824654 -8.559809 35,000 184 476 -64
2021-08-03 14:26:00 GMT 55.829269 -8.559265 35,000 184 476 -64
2021-08-03 14:25:59 GMT 55.831680 -8.558950 35,000 185 476 -64
2021-08-03 14:25:58 GMT 55.835640 -8.558435 35,000 185 476 0
2021-08-03 14:25:55 GMT 55.840851 -8.557749 35,000 185 476 0
2021-08-03 14:25:54 GMT 55.842621 -8.557577 35,000 185 476 0
2021-08-03 14:25:52 GMT 55.847214 -8.556935 35,000 185 476 -64
2021-08-03 14:25:51 GMT 55.849186 -8.556719 35,000 184 476 -64
2021-08-03 14:25:50 GMT 55.851372 -8.556461 35,000 184 476 -64
2021-08-03 14:25:48 GMT 55.856415 -8.555853 35,000 184 476 -64
2021-08-03 14:25:46 GMT 55.859707 -8.555431 35,000 184 476 -64
2021-08-03 14:25:45 GMT 55.863007 -8.555020 34,975 184 476 0
2021-08-03 14:25:43 GMT 55.866268 -8.554573 35,000 184 476 0
2021-08-03 14:25:42 GMT 55.871750 -8.553938 34,975 184 476 0
2021-08-03 14:25:41 GMT 55.871750 -8.553938 35,000 184 476 0
2021-08-03 14:25:39 GMT 55.876324 -8.553286 34,975 184 476 0
2021-08-03 14:25:37 GMT 55.879864 -8.552856 34,975 184 475 0
2021-08-03 14:25:35 GMT 55.883354 -8.552427 34,975 184 475 64
2021-08-03 14:25:34 GMT 55.885544 -8.552170 34,975 184 475 64
2021-08-03 14:25:33 GMT 55.891022 -8.551525 34,975 184 475 64
2021-08-03 14:25:32 GMT 55.891022 -8.551525 34,975 184 475 64
2021-08-03 14:25:31 GMT 55.896900 -8.550711 34,975 185 475 64
2021-08-03 14:25:28 GMT 55.900177 -8.550360 34,975 185 475 0
2021-08-03 14:25:26 GMT 55.903465 -8.549938 34,975 185 475 0
2021-08-03 14:25:25 GMT 55.906769 -8.549527 34,975 185 475 0
2021-08-03 14:25:23 GMT 55.913315 -8.548695 34,975 185 475 -64
2021-08-03 14:25:21 GMT 55.915512 -8.548362 34,975 185 475 -64
2021-08-03 14:25:19 GMT 55.919666 -8.547878 34,975 185 475 -64
2021-08-03 14:25:18 GMT 55.921852 -8.547621 34,975 185 475 -64
2021-08-03 14:25:17 GMT 55.925762 -8.547106 34,975 185 475 -64
2021-08-03 14:25:15 GMT 55.927952 -8.546848 34,975 185 475 -64
2021-08-03 14:25:13 GMT 55.932327 -8.546247 34,975 185 475 -64
2021-08-03 14:25:12 GMT 55.935398 -8.545904 35,000 185 475 -64
2021-08-03 14:25:10 GMT 55.938675 -8.545449 35,000 185 475 -64
2021-08-03 14:25:09 GMT 55.943268 -8.544874 35,000 185 475 -128
2021-08-03 14:25:06 GMT 55.948528 -8.544188 35,000 185 475 -64
2021-08-03 14:25:04 GMT 55.952904 -8.543587 35,000 185 475 -64
2021-08-03 14:25:03 GMT 55.959469 -8.542814 35,000 185 475 -64
2021-08-03 14:25:01 GMT 55.959469 -8.542814 35,000 185 475 -64
2021-08-03 14:25:00 GMT 55.961426 -8.542536 35,000 185 475 -64
2021-08-03 14:24:57 GMT 55.967514 -8.541787 35,000 184 475 -64
2021-08-03 14:24:54 GMT 55.974735 -8.540840 35,000 184 474 0
2021-08-03 14:24:52 GMT 55.979115 -8.540325 35,000 184 474 0
2021-08-03 14:24:51 GMT 55.981064 -8.540039 35,000 184 474 0
2021-08-03 14:24:50 GMT 55.985210 -8.539553 35,000 184 474 0
2021-08-03 14:24:48 GMT 55.987400 -8.539209 35,000 185 474 0
2021-08-03 14:24:46 GMT 55.991547 -8.538707 34,975 185 473 64
2021-08-03 14:24:45 GMT 55.993744 -8.538458 34,975 185 473 0
2021-08-03 14:24:44 GMT 55.998711 -8.537836 34,975 185 473 64
2021-08-03 14:24:42 GMT 56.003311 -8.537209 35,000 185 473 0
2021-08-03 14:24:39 GMT 56.006577 -8.536806 34,975 185 472 0
2021-08-03 14:24:37 GMT 56.012009 -8.536127 35,000 185 472 0
2021-08-03 14:24:36 GMT 56.013290 -8.535961 35,000 185 472 0
2021-08-03 14:24:35 GMT 56.018097 -8.535295 35,000 185 472 0
2021-08-03 14:24:33 GMT 56.020496 -8.535004 34,975 185 472 0
2021-08-03 14:24:32 GMT 56.024406 -8.534575 35,000 185 472 -64
2021-08-03 14:24:29 GMT 56.028534 -8.534047 35,000 185 472 0
2021-08-03 14:24:28 GMT 56.032646 -8.533459 35,000 185 471 0
2021-08-03 14:24:26 GMT 56.034790 -8.533201 35,000 185 471 0
2021-08-03 14:24:24 GMT 56.039585 -8.532600 35,000 185 471 0
2021-08-03 14:24:23 GMT 56.041534 -8.532382 35,000 185 471 0
2021-08-03 14:24:22 GMT 56.044331 -8.532000 34,975 185 471 0
2021-08-03 14:24:20 GMT 56.048710 -8.531485 35,000 185 471 0
2021-08-03 14:24:19 GMT 56.050644 -8.531217 35,000 185 471 0
2021-08-03 14:24:17 GMT 56.054993 -8.530634 35,000 185 471 0
2021-08-03 14:24:16 GMT 56.056900 -8.530369 35,000 185 471 0
2021-08-03 14:24:15 GMT 56.061905 -8.529802 35,000 185 471 0
2021-08-03 14:24:13 GMT 56.064056 -8.529469 34,975 185 471 0
2021-08-03 14:24:11 GMT 56.068169 -8.528996 35,000 185 470 0
2021-08-03 14:24:09 GMT 56.072079 -8.528481 35,000 185 470 0
2021-08-03 14:24:07 GMT 56.077290 -8.527794 35,000 185 470 0
2021-08-03 14:24:06 GMT 56.078594 -8.527622 35,000 185 470 0
2021-08-03 14:24:05 GMT 56.083145 -8.527055 35,000 185 470 0
2021-08-03 14:24:03 GMT 56.085064 -8.526850 34,975 185 470 0
2021-08-03 14:24:02 GMT 56.091583 -8.525991 34,975 185 470 64
2021-08-03 14:24:00 GMT 56.091583 -8.525991 34,975 185 470 0
2021-08-03 14:23:58 GMT 56.096558 -8.525391 34,975 185 470 0
2021-08-03 14:23:57 GMT 56.098938 -8.525047 35,000 185 470 0
2021-08-03 14:23:55 GMT 56.103268 -8.524532 35,000 185 470 0
2021-08-03 14:23:52 GMT 56.109737 -8.523674 35,000 185 470 0
2021-08-03 14:23:51 GMT 56.111042 -8.523502 34,975 185 470 0
2021-08-03 14:23:50 GMT 56.115372 -8.522987 34,975 185 470 0
2021-08-03 14:23:47 GMT 56.119904 -8.522394 35,000 185 470 -64
2021-08-03 14:23:46 GMT 56.121887 -8.522129 34,975 185 470 -64
2021-08-03 14:23:44 GMT 56.129883 -8.521146 35,000 185 470 -64
2021-08-03 14:23:41 GMT 56.133362 -8.520647 35,000 185 471 -64
2021-08-03 14:23:40 GMT 56.135296 -8.520412 35,000 185 471 -64
2021-08-03 14:23:39 GMT 56.137482 -8.520155 35,000 185 470 -64
2021-08-03 14:23:37 GMT 56.141602 -8.519648 35,000 185 471 0
2021-08-03 14:23:36 GMT 56.143955 -8.519297 35,000 185 471 0
2021-08-03 14:23:35 GMT 56.148281 -8.518782 35,000 185 471 -64
2021-08-03 14:23:33 GMT 56.150471 -8.518438 35,000 185 471 0
2021-08-03 14:23:31 GMT 56.154800 -8.517923 35,000 185 471 0
2021-08-03 14:23:30 GMT 56.159363 -8.517317 35,000 185 471 0
2021-08-03 14:23:28 GMT 56.161514 -8.517068 35,000 185 471 0
2021-08-03 14:23:27 GMT 56.163460 -8.516808 35,000 185 471 -64
2021-08-03 14:23:25 GMT 56.167603 -8.516235 35,000 185 471 0
2021-08-03 14:23:24 GMT 56.169975 -8.515949 35,000 185 471 0
2021-08-03 14:23:22 GMT 56.174305 -8.515348 35,000 185 471 0
2021-08-03 14:23:21 GMT 56.179276 -8.514737 34,975 185 471 0
2021-08-03 14:23:19 GMT 56.181244 -8.514490 34,975 185 471 0
2021-08-03 14:23:18 GMT 56.185574 -8.513975 35,000 185 471 0
2021-08-03 14:23:16 GMT 56.187973 -8.513655 35,000 185 471 0
2021-08-03 14:23:14 GMT 56.191864 -8.513156 34,975 185 471 0
2021-08-03 14:23:13 GMT 56.193810 -8.512859 34,975 185 471 0
2021-08-03 14:23:11 GMT 56.198139 -8.512344 35,000 185 471 0
2021-08-03 14:23:09 GMT 56.202518 -8.511744 35,000 185 471 0
2021-08-03 14:23:08 GMT 56.204453 -8.511491 35,000 185 471 0
2021-08-03 14:23:07 GMT 56.208801 -8.510992 35,000 185 471 0
2021-08-03 14:23:04 GMT 56.213364 -8.510370 34,975 185 471 0
2021-08-03 14:23:03 GMT 56.215714 -8.510076 34,975 185 471 0
2021-08-03 14:23:01 GMT 56.219879 -8.509598 34,975 185 471 0
2021-08-03 14:23:00 GMT 56.222260 -8.509244 34,975 185 472 -64
2021-08-03 14:22:59 GMT 56.223999 -8.508994 35,000 185 472 -64
2021-08-03 14:22:57 GMT 56.229172 -8.508329 34,975 185 472 -64
2021-08-03 14:22:54 GMT 56.235943 -8.507538 34,975 185 472 -64
2021-08-03 14:22:53 GMT 56.242218 -8.506664 35,000 185 472 -64
2021-08-03 14:22:51 GMT 56.242218 -8.506664 34,975 185 472 -64
2021-08-03 14:22:49 GMT 56.246567 -8.506165 35,000 185 472 -64
2021-08-03 14:22:48 GMT 56.248718 -8.505832 35,000 185 472 -64
2021-08-03 14:22:47 GMT 56.253067 -8.505332 35,000 185 472 0
2021-08-03 14:22:45 GMT 56.255264 -8.504999 35,000 185 472 0
2021-08-03 14:22:44 GMT 56.257416 -8.504750 35,000 185 472 0
2021-08-03 14:22:42 GMT 56.260658 -8.504362 35,000 185 472 0
2021-08-03 14:22:39 GMT 56.266983 -8.503501 35,000 185 472 -64
2021-08-03 14:22:37 GMT 56.271790 -8.502919 35,000 185 472 0
2021-08-03 14:22:35 GMT 56.275681 -8.502419 35,000 185 472 0
2021-08-03 14:22:34 GMT 56.277878 -8.502086 35,000 185 472 0
2021-08-03 14:22:33 GMT 56.279793 -8.501873 34,975 185 472 0
2021-08-03 14:22:30 GMT 56.286777 -8.500929 34,975 185 472 0
2021-08-03 14:22:29 GMT 56.288963 -8.500671 35,000 185 472 0
2021-08-03 14:22:27 GMT 56.293713 -8.500071 34,975 185 472 0
2021-08-03 14:22:25 GMT 56.298088 -8.499470 34,975 185 472 0
2021-08-03 14:22:24 GMT 56.299393 -8.499298 35,000 185 472 0
2021-08-03 14:22:23 GMT 56.301998 -8.498955 35,000 185 472 0
2021-08-03 14:22:21 GMT 56.306122 -8.498424 35,000 185 472 0
2021-08-03 14:22:19 GMT 56.310471 -8.497842 35,000 185 472 -64
2021-08-03 14:22:18 GMT 56.312622 -8.497592 35,000 185 472 -64
2021-08-03 14:22:16 GMT 56.316101 -8.497176 35,000 185 473 0
2021-08-03 14:22:15 GMT 56.319363 -8.496723 35,000 185 473 -64
2021-08-03 14:22:14 GMT 56.323517 -8.496177 35,000 185 473 -64
2021-08-03 14:22:12 GMT 56.325714 -8.495927 35,000 185 473 -64
2021-08-03 14:22:10 GMT 56.328735 -8.495511 35,000 185 473 0
2021-08-03 14:22:08 GMT 56.333084 -8.494929 35,000 185 473 0
2021-08-03 14:22:07 GMT 56.335468 -8.494663 35,000 185 473 0
2021-08-03 14:22:06 GMT 56.337433 -8.494346 35,000 185 473 0
2021-08-03 14:22:04 GMT 56.342239 -8.493763 35,000 185 473 0
2021-08-03 14:22:03 GMT 56.346176 -8.493264 35,000 185 473 0
2021-08-03 14:22:01 GMT 56.348328 -8.492931 35,000 185 473 0
2021-08-03 14:22:00 GMT 56.353348 -8.492346 35,000 185 473 0
2021-08-03 14:21:58 GMT 56.355534 -8.492002 35,000 185 473 0
2021-08-03 14:21:57 GMT 56.359863 -8.491488 35,000 185 473 0
2021-08-03 14:21:54 GMT 56.364899 -8.490850 35,000 185 474 0
2021-08-03 14:21:52 GMT 56.369247 -8.490268 35,000 185 474 64
2021-08-03 14:21:51 GMT 56.371223 -8.490028 35,000 185 474 64
2021-08-03 14:21:50 GMT 56.377739 -8.489170 34,975 185 474 64
2021-08-03 14:21:47 GMT 56.380814 -8.488741 34,975 185 474 64
2021-08-03 14:21:45 GMT 56.383419 -8.488398 34,975 185 474 64
2021-08-03 14:21:44 GMT 56.386688 -8.487937 34,975 185 474 64
2021-08-03 14:21:43 GMT 56.388885 -8.487688 34,975 185 474 64
2021-08-03 14:21:42 GMT 56.390865 -8.487453 34,975 185 474 0
2021-08-03 14:21:41 GMT 56.396301 -8.486689 34,975 185 475 0
2021-08-03 14:21:39 GMT 56.398499 -8.486439 34,975 185 475 64
2021-08-03 14:21:37 GMT 56.402847 -8.485856 34,975 185 475 0
2021-08-03 14:21:36 GMT 56.404835 -8.485565 34,975 185 475 0
2021-08-03 14:21:35 GMT 56.409210 -8.485050 34,975 185 475 0
2021-08-03 14:21:33 GMT 56.411179 -8.484775 34,975 185 475 0
2021-08-03 14:21:31 GMT 56.415356 -8.484278 34,975 185 475 0
2021-08-03 14:21:30 GMT 56.417313 -8.484025 34,975 185 476 -64
2021-08-03 14:21:28 GMT 56.421661 -8.483443 34,975 185 476 -64
2021-08-03 14:21:26 GMT 56.425644 -8.482943 34,975 185 476 -64
2021-08-03 14:21:25 GMT 56.428711 -8.482527 34,975 185 476 -64
2021-08-03 14:21:24 GMT 56.430862 -8.482194 34,975 185 476 -64
2021-08-03 14:21:23 GMT 56.435043 -8.481703 35,000 185 477 -64
2021-08-03 14:21:21 GMT 56.437042 -8.481445 34,975 185 477 -64
2021-08-03 14:21:20 GMT 56.442074 -8.480759 35,000 185 477 -64
2021-08-03 14:21:18 GMT 56.444046 -8.480530 35,000 185 477 -64
2021-08-03 14:21:16 GMT 56.448639 -8.479900 35,000 185 477 -64
2021-08-03 14:21:15 GMT 56.453293 -8.479365 35,000 185 477 -64
2021-08-03 14:21:13 GMT 56.455490 -8.479032 35,000 185 478 -64
2021-08-03 14:21:11 GMT 56.459671 -8.478527 35,000 185 478 -64
2021-08-03 14:21:10 GMT 56.462082 -8.478199 34,975 185 478 -64
2021-08-03 14:21:08 GMT 56.466236 -8.477583 34,975 185 478 -64
2021-08-03 14:21:07 GMT 56.470413 -8.477034 35,000 185 478 -64
2021-08-03 14:21:05 GMT 56.472427 -8.476810 35,000 185 478 -64
2021-08-03 14:21:04 GMT 56.477268 -8.476124 35,000 185 479 -64
2021-08-03 14:21:02 GMT 56.479248 -8.475869 35,000 185 479 -64
2021-08-03 14:21:00 GMT 56.483414 -8.475351 35,000 185 479 -64
2021-08-03 14:20:58 GMT 56.487835 -8.474751 35,000 185 479 -64
2021-08-03 14:20:57 GMT 56.489822 -8.474537 35,000 185 479 -64
2021-08-03 14:20:56 GMT 56.494446 -8.473892 34,975 185 479 -64
2021-08-03 14:20:54 GMT 56.496635 -8.473635 35,000 185 479 -64
2021-08-03 14:20:52 GMT 56.499939 -8.473206 35,000 185 479 0
2021-08-03 14:20:51 GMT 56.505249 -8.472456 34,975 185 479 0
2021-08-03 14:20:49 GMT 56.506989 -8.472207 34,975 185 479 -64
2021-08-03 14:20:46 GMT 56.516930 -8.470974 35,000 185 479 -64
2021-08-03 14:20:45 GMT 56.516930 -8.470974 35,000 185 479 -64
2021-08-03 14:20:42 GMT 56.522655 -8.470201 35,000 185 479 -64
2021-08-03 14:20:41 GMT 56.527081 -8.469601 35,000 185 479 -64
2021-08-03 14:20:39 GMT 56.533688 -8.468742 35,000 185 479 0
2021-08-03 14:20:36 GMT 56.536343 -8.468399 35,000 185 479 0
2021-08-03 14:20:35 GMT 56.538532 -8.468142 35,000 185 479 0
2021-08-03 14:20:34 GMT 56.540764 -8.467798 35,000 185 479 -64
2021-08-03 14:20:33 GMT 56.545395 -8.467213 35,000 185 479 -64
2021-08-03 14:20:31 GMT 56.547592 -8.466963 35,000 185 479 -64
2021-08-03 14:20:30 GMT 56.554871 -8.465996 35,000 185 479 0
2021-08-03 14:20:28 GMT 56.554871 -8.465996 34,975 185 479 0
2021-08-03 14:20:25 GMT 56.561691 -8.465049 35,000 185 479 0
2021-08-03 14:20:23 GMT 56.564972 -8.464622 35,000 185 479 0
2021-08-03 14:20:22 GMT 56.569199 -8.464050 34,975 185 479 0
2021-08-03 14:20:20 GMT 56.571629 -8.463764 35,000 185 479 0
2021-08-03 14:20:19 GMT 56.576004 -8.463163 35,000 185 479 0
2021-08-03 14:20:16 GMT 56.580429 -8.462563 34,975 185 479 0
2021-08-03 14:20:15 GMT 56.584625 -8.462053 35,000 185 479 -64
2021-08-03 14:20:13 GMT 56.586365 -8.461803 35,000 185 479 0
2021-08-03 14:20:12 GMT 56.588341 -8.461533 34,975 185 479 0
2021-08-03 14:20:10 GMT 56.593872 -8.460846 35,000 185 479 -64
2021-08-03 14:20:09 GMT 56.597187 -8.460359 34,975 185 479 -64
2021-08-03 14:20:07 GMT 56.600464 -8.459988 35,000 185 479 -64
2021-08-03 14:20:06 GMT 56.603989 -8.459473 35,000 185 479 0
2021-08-03 14:20:04 GMT 56.606186 -8.459215 34,975 185 479 0
2021-08-03 14:20:01 GMT 56.615250 -8.458055 35,000 185 479 -64
2021-08-03 14:19:59 GMT 56.617435 -8.457789 34,975 185 479 0
2021-08-03 14:19:57 GMT 56.621613 -8.457241 35,000 185 479 0
2021-08-03 14:19:56 GMT 56.624931 -8.456815 35,000 185 479 -64
2021-08-03 14:19:54 GMT 56.628250 -8.456383 35,000 185 479 -64
2021-08-03 14:19:52 GMT 56.633312 -8.455663 34,975 185 479 0
2021-08-03 14:19:51 GMT 56.637733 -8.455131 35,000 185 479 0
2021-08-03 14:19:49 GMT 56.639694 -8.454838 35,000 185 479 -64
2021-08-03 14:19:48 GMT 56.642574 -8.454511 34,975 185 478 0
2021-08-03 14:19:47 GMT 56.646530 -8.453979 35,000 185 478 -64
2021-08-03 14:19:45 GMT 56.648300 -8.453714 35,000 185 478 0
2021-08-03 14:19:43 GMT 56.652924 -8.453121 34,975 185 478 -64
2021-08-03 14:19:42 GMT 56.655533 -8.452778 34,975 185 478 -64
2021-08-03 14:19:40 GMT 56.660172 -8.452119 34,975 185 478 0
2021-08-03 14:19:39 GMT 56.662582 -8.451834 34,975 185 478 0
2021-08-03 14:19:37 GMT 56.665897 -8.451410 35,000 185 478 -64
2021-08-03 14:19:36 GMT 56.668762 -8.451061 35,000 185 478 -64
2021-08-03 14:19:34 GMT 56.672745 -8.450546 34,975 185 478 0
2021-08-03 14:19:33 GMT 56.677139 -8.449945 35,000 185 478 0
2021-08-03 14:19:31 GMT 56.680004 -8.449550 35,000 185 478 0
2021-08-03 14:19:29 GMT 56.684601 -8.448915 35,000 185 478 0
2021-08-03 14:19:28 GMT 56.685928 -8.448744 34,975 185 478 0
2021-08-03 14:19:27 GMT 56.692978 -8.447886 34,975 185 478 -64
2021-08-03 14:19:25 GMT 56.692978 -8.447886 34,975 185 478 -64
2021-08-03 14:19:24 GMT 56.697830 -8.447199 35,000 185 478 -64
2021-08-03 14:19:22 GMT 56.700027 -8.446941 35,000 185 478 -64
2021-08-03 14:19:20 GMT 56.703552 -8.446426 35,000 185 478 -64
2021-08-03 14:19:19 GMT 56.707947 -8.445911 35,000 185 478 -64
2021-08-03 14:19:17 GMT 56.711014 -8.445482 34,975 185 478 -64
2021-08-03 14:19:15 GMT 56.714539 -8.445053 35,000 185 478 -64
2021-08-03 14:19:14 GMT 56.716965 -8.444677 35,000 185 478 -64
2021-08-03 14:19:13 GMT 56.721542 -8.444109 35,000 185 477 -64
2021-08-03 14:19:11 GMT 56.723328 -8.443851 35,000 185 477 -64
2021-08-03 14:19:09 GMT 56.728371 -8.443170 34,975 185 477 -64
2021-08-03 14:19:07 GMT 56.732746 -8.442639 35,000 185 477 0
2021-08-03 14:19:06 GMT 56.735184 -8.442307 35,000 185 477 -64
2021-08-03 14:19:05 GMT 56.737587 -8.441930 35,000 185 477 -64
2021-08-03 14:19:04 GMT 56.741776 -8.441362 35,000 185 477 -64
2021-08-03 14:19:02 GMT 56.744198 -8.441044 35,000 185 477 -64
2021-08-03 14:19:00 GMT 56.748154 -8.440512 35,000 185 477 -64
2021-08-03 14:18:59 GMT 56.750343 -8.440247 35,000 185 477 -64
2021-08-03 14:18:57 GMT 56.754959 -8.439646 35,000 185 477 0
2021-08-03 14:18:55 GMT 56.759308 -8.439045 35,000 185 476 0
2021-08-03 14:18:54 GMT 56.761505 -8.438787 35,000 185 476 0
2021-08-03 14:18:51 GMT 56.767429 -8.437943 35,000 185 476 0
2021-08-03 14:18:50 GMT 56.769424 -8.437672 35,000 185 476 0
2021-08-03 14:18:49 GMT 56.771805 -8.437411 35,000 185 476 0
2021-08-03 14:18:47 GMT 56.777065 -8.436703 34,975 185 476 0
2021-08-03 14:18:46 GMT 56.778416 -8.436525 35,000 185 476 0
2021-08-03 14:18:44 GMT 56.782974 -8.435955 35,000 185 476 0
2021-08-03 14:18:43 GMT 56.784977 -8.435639 35,000 185 476 0
2021-08-03 14:18:42 GMT 56.790024 -8.435011 34,975 185 476 0
2021-08-03 14:18:40 GMT 56.792427 -8.434753 35,000 185 476 0
2021-08-03 14:18:38 GMT 56.795918 -8.434222 35,000 185 476 0
2021-08-03 14:18:37 GMT 56.798107 -8.433956 35,000 185 476 0
2021-08-03 14:18:36 GMT 56.801178 -8.433602 34,975 185 476 0
2021-08-03 14:18:34 GMT 56.805313 -8.433037 35,000 185 475 0
2021-08-03 14:18:33 GMT 56.809708 -8.432436 34,975 185 475 0
2021-08-03 14:18:31 GMT 56.811905 -8.432178 34,975 185 475 0
2021-08-03 14:18:29 GMT 56.816029 -8.431652 34,975 185 475 0
2021-08-03 14:18:28 GMT 56.818218 -8.431298 34,975 185 475 0
2021-08-03 14:18:26 GMT 56.822594 -8.430766 34,975 185 475 0
2021-08-03 14:18:25 GMT 56.824997 -8.430462 34,975 185 475 -64
2021-08-03 14:18:24 GMT 56.827194 -8.430119 34,975 185 475 0
2021-08-03 14:18:23 GMT 56.831810 -8.429526 35,000 185 475 0
2021-08-03 14:18:21 GMT 56.834000 -8.429260 34,975 185 475 0
2021-08-03 14:18:20 GMT 56.839676 -8.428463 35,000 185 475 0
2021-08-03 14:18:18 GMT 56.839676 -8.428463 35,000 185 475 0
2021-08-03 14:18:16 GMT 56.844681 -8.427801 35,000 185 475 0
2021-08-03 14:18:15 GMT 56.846878 -8.427544 35,000 185 475 -64
2021-08-03 14:18:13 GMT 56.851227 -8.426943 35,000 185 475 0
2021-08-03 14:18:12 GMT 56.853424 -8.426685 35,000 185 475 -64
2021-08-03 14:18:10 GMT 56.857552 -8.426071 35,000 185 475 0
2021-08-03 14:18:09 GMT 56.859741 -8.425805 35,000 185 475 0
2021-08-03 14:18:07 GMT 56.864117 -8.425185 34,975 185 475 0
2021-08-03 14:18:05 GMT 56.868492 -8.424653 34,975 185 474 64
2021-08-03 14:18:03 GMT 56.872868 -8.424033 34,975 185 474 0
2021-08-03 14:18:02 GMT 56.875057 -8.423767 34,975 185 474 0
2021-08-03 14:18:01 GMT 56.876999 -8.423510 34,975 185 474 0
2021-08-03 14:17:58 GMT 56.886833 -8.422172 34,975 185 474 0
2021-08-03 14:17:55 GMT 56.888809 -8.421879 34,975 185 474 0
2021-08-03 14:17:53 GMT 56.892933 -8.421375 34,975 185 474 0
2021-08-03 14:17:52 GMT 56.895123 -8.421021 35,000 185 474 -64
2021-08-03 14:17:51 GMT 56.897308 -8.420755 35,000 185 474 0
2021-08-03 14:17:49 GMT 56.902569 -8.420046 34,975 185 474 -64
2021-08-03 14:17:48 GMT 56.906708 -8.419476 34,975 185 474 -64
2021-08-03 14:17:46 GMT 56.908905 -8.419218 34,975 185 474 -64
2021-08-03 14:17:44 GMT 56.913464 -8.418540 35,000 185 474 -64
2021-08-03 14:17:43 GMT 56.915451 -8.418274 34,975 185 474 -64
2021-08-03 14:17:42 GMT 56.920212 -8.417673 35,000 185 474 -64
2021-08-03 14:17:40 GMT 56.921329 -8.417477 35,000 185 474 -64
2021-08-03 14:17:39 GMT 56.926544 -8.416768 35,000 185 474 -64
2021-08-03 14:17:37 GMT 56.928734 -8.416502 35,000 185 474 -64
2021-08-03 14:17:36 GMT 56.935295 -8.415616 35,000 185 474 -64
2021-08-03 14:17:34 GMT 56.935295 -8.415616 35,000 185 474 -64
2021-08-03 14:17:33 GMT 56.937698 -8.415270 35,000 185 474 -64
2021-08-03 14:17:31 GMT 56.941635 -8.414755 35,000 185 474 0
2021-08-03 14:17:30 GMT 56.945770 -8.414198 35,000 185 474 0
2021-08-03 14:17:28 GMT 56.947723 -8.413897 35,000 185 474 0
2021-08-03 14:17:27 GMT 56.949921 -8.413639 35,000 185 474 0
2021-08-03 14:17:24 GMT 56.955360 -8.412869 35,000 185 474 0
2021-08-03 14:17:23 GMT 56.958618 -8.412437 34,975 185 474 0
2021-08-03 14:17:22 GMT 56.960815 -8.412180 35,000 185 474 0
2021-08-03 14:17:21 GMT 56.965622 -8.411493 34,975 185 474 0
2021-08-03 14:17:19 GMT 56.968021 -8.411186 35,000 185 474 0
2021-08-03 14:17:17 GMT 56.972351 -8.410566 34,975 185 474 0
2021-08-03 14:17:15 GMT 56.978916 -8.409768 34,975 185 474 0
2021-08-03 14:17:13 GMT 56.981323 -8.409433 34,975 185 474 0
2021-08-03 14:17:12 GMT 56.983475 -8.409090 34,975 185 474 0
2021-08-03 14:17:10 GMT 56.987621 -8.408528 34,975 185 473 -64
2021-08-03 14:17:09 GMT 56.989807 -8.408262 34,975 185 473 -64
2021-08-03 14:17:07 GMT 56.994370 -8.407631 35,000 185 473 -64
2021-08-03 14:17:05 GMT 57.000916 -8.406773 35,000 185 473 -64
2021-08-03 14:17:03 GMT 57.002888 -8.406490 35,000 185 473 -64
2021-08-03 14:17:01 GMT 57.007004 -8.406000 34,975 185 473 0
2021-08-03 14:16:59 GMT 57.011398 -8.405399 35,000 185 473 -64
2021-08-03 14:16:58 GMT 57.016159 -8.404713 34,975 185 473 -64
2021-08-03 14:16:56 GMT 57.018356 -8.404455 35,000 185 473 -64
2021-08-03 14:16:55 GMT 57.022488 -8.403921 35,000 185 473 -64
2021-08-03 14:16:53 GMT 57.024677 -8.403566 35,000 185 473 -64
2021-08-03 14:16:51 GMT 57.028793 -8.403082 35,000 185 473 -64
2021-08-03 14:16:49 GMT 57.033142 -8.402481 35,000 185 473 -64
2021-08-03 14:16:48 GMT 57.035339 -8.402138 35,000 185 473 -64
2021-08-03 14:16:47 GMT 57.037491 -8.401880 35,000 185 473 -64
2021-08-03 14:16:45 GMT 57.041622 -8.401263 35,000 185 473 -64
2021-08-03 14:16:43 GMT 57.045113 -8.400820 35,000 185 473 -64
2021-08-03 14:16:42 GMT 57.048603 -8.400377 35,000 185 473 -64
2021-08-03 14:16:41 GMT 57.050583 -8.400078 35,000 185 473 -64
2021-08-03 14:16:40 GMT 57.052734 -8.399820 34,975 185 473 -64
2021-08-03 14:16:39 GMT 57.059032 -8.398959 35,000 185 473 -64
2021-08-03 14:16:37 GMT 57.059032 -8.398959 35,000 185 473 -64
2021-08-03 14:16:35 GMT 57.063408 -8.398339 35,000 185 472 0
2021-08-03 14:16:33 GMT 57.066898 -8.397896 35,000 185 472 0
2021-08-03 14:16:32 GMT 57.070129 -8.397417 35,000 185 472 0
2021-08-03 14:16:30 GMT 57.074478 -8.396816 34,975 185 472 64
2021-08-03 14:16:29 GMT 57.076675 -8.396559 35,000 185 472 64
2021-08-03 14:16:27 GMT 57.081436 -8.395958 35,000 185 472 64
2021-08-03 14:16:24 GMT 57.087524 -8.395185 35,000 185 472 0
2021-08-03 14:16:23 GMT 57.089478 -8.394884 34,975 185 472 0
2021-08-03 14:16:21 GMT 57.093807 -8.394352 35,000 185 471 0
2021-08-03 14:16:19 GMT 57.098373 -8.393726 34,975 185 471 0
2021-08-03 14:16:18 GMT 57.100742 -8.393377 34,975 185 471 0
2021-08-03 14:16:17 GMT 57.105286 -8.392782 34,975 185 471 0
2021-08-03 14:16:15 GMT 57.107677 -8.392491 34,975 185 471 0
2021-08-03 14:16:14 GMT 57.112007 -8.391871 35,000 185 471 0
2021-08-03 14:16:12 GMT 57.114395 -8.391581 35,000 185 471 0
2021-08-03 14:16:10 GMT 57.118526 -8.390985 35,000 185 471 0
2021-08-03 14:16:09 GMT 57.122635 -8.390465 35,000 185 471 0
2021-08-03 14:16:07 GMT 57.124832 -8.390121 35,000 185 471 0
2021-08-03 14:16:05 GMT 57.128906 -8.389568 34,975 185 471 0
2021-08-03 14:16:04 GMT 57.131096 -8.389302 35,000 185 471 0
2021-08-03 14:16:02 GMT 57.135426 -8.388682 35,000 185 471 0
2021-08-03 14:16:01 GMT 57.137611 -8.388416 34,975 185 471 0
2021-08-03 14:16:00 GMT 57.139751 -8.388150 34,975 185 471 0
2021-08-03 14:15:58 GMT 57.144081 -8.387530 35,000 185 470 0
2021-08-03 14:15:57 GMT 57.146271 -8.387264 34,975 185 470 0
2021-08-03 14:15:55 GMT 57.150600 -8.386733 34,975 185 470 0
2021-08-03 14:15:54 GMT 57.152740 -8.386378 34,975 185 470 0
2021-08-03 14:15:52 GMT 57.157070 -8.385847 34,975 185 470 0
2021-08-03 14:15:50 GMT 57.161400 -8.385226 34,975 185 470 0
2021-08-03 14:15:49 GMT 57.163589 -8.384961 34,975 185 470 0
2021-08-03 14:15:48 GMT 57.167915 -8.384340 35,000 185 470 -64
2021-08-03 14:15:46 GMT 57.170059 -8.384075 35,000 185 470 0
2021-08-03 14:15:45 GMT 57.172440 -8.383770 35,000 185 470 0
2021-08-03 14:15:43 GMT 57.176575 -8.383189 35,000 185 470 0
2021-08-03 14:15:41 GMT 57.180679 -8.382654 34,975 185 470 64
2021-08-03 14:15:40 GMT 57.187180 -8.381796 34,975 185 470 0
2021-08-03 14:15:38 GMT 57.187180 -8.381796 35,000 185 470 0
2021-08-03 14:15:36 GMT 57.192123 -8.381062 35,000 185 470 -64
2021-08-03 14:15:35 GMT 57.193428 -8.380885 35,000 185 470 -64
2021-08-03 14:15:34 GMT 57.200134 -8.379993 35,000 185 470 0
2021-08-03 14:15:32 GMT 57.200134 -8.379993 34,975 185 470 0
2021-08-03 14:15:31 GMT 57.204693 -8.379379 34,975 185 470 0
2021-08-03 14:15:29 GMT 57.207092 -8.379049 35,000 185 470 0
2021-08-03 14:15:27 GMT 57.210526 -8.378620 35,000 185 470 0
2021-08-03 14:15:26 GMT 57.213772 -8.378138 35,000 185 471 -64
2021-08-03 14:15:24 GMT 57.222477 -8.376987 35,000 185 471 0
2021-08-03 14:15:22 GMT 57.222477 -8.376987 34,975 185 471 0
2021-08-03 14:15:21 GMT 57.226807 -8.376366 34,975 185 471 0
2021-08-03 14:15:19 GMT 57.229156 -8.376045 34,975 185 471 0
2021-08-03 14:15:17 GMT 57.233505 -8.375530 34,975 185 471 0
2021-08-03 14:15:15 GMT 57.237606 -8.374949 35,000 185 471 0
2021-08-03 14:15:14 GMT 57.239796 -8.374683 34,975 185 471 -64
2021-08-03 14:15:13 GMT 57.241936 -8.374329 35,000 185 471 -64
2021-08-03 14:15:12 GMT 57.244122 -8.374063 35,000 185 471 -64
2021-08-03 14:15:08 GMT 57.252548 -8.372869 35,000 185 471 -64
2021-08-03 14:15:07 GMT 57.256691 -8.372379 35,000 185 471 -64
2021-08-03 14:15:05 GMT 57.259720 -8.371936 35,000 185 471 -64
2021-08-03 14:15:03 GMT 57.264046 -8.371316 35,000 185 471 -64
2021-08-03 14:15:02 GMT 57.267700 -8.370810 35,000 185 471 0
2021-08-03 14:15:00 GMT 57.270100 -8.370519 35,000 185 471 -64
2021-08-03 14:14:59 GMT 57.272285 -8.370164 35,000 185 471 -64
2021-08-03 14:14:57 GMT 57.276398 -8.369608 35,000 185 471 0
2021-08-03 14:14:56 GMT 57.280289 -8.369093 35,000 185 471 0
2021-08-03 14:14:54 GMT 57.282669 -8.368747 35,000 185 471 0
2021-08-03 14:14:53 GMT 57.285049 -8.368492 35,000 185 471 0
2021-08-03 14:14:52 GMT 57.289139 -8.367861 35,000 185 471 0
2021-08-03 14:14:50 GMT 57.291328 -8.367595 35,000 185 471 -64
2021-08-03 14:14:48 GMT 57.295654 -8.366975 35,000 185 470 0
2021-08-03 14:14:46 GMT 57.299988 -8.366443 34,975 185 470 0
2021-08-03 14:14:45 GMT 57.302593 -8.366089 35,000 185 470 -64
2021-08-03 14:14:43 GMT 57.306923 -8.365469 34,975 185 470 0
2021-08-03 14:14:42 GMT 57.308853 -8.365231 35,000 185 470 0
2021-08-03 14:14:41 GMT 57.312744 -8.364630 35,000 185 470 0
2021-08-03 14:14:39 GMT 57.315765 -8.364286 35,000 185 470 0
2021-08-03 14:14:38 GMT 57.320114 -8.363686 34,975 185 470 0
2021-08-03 14:14:36 GMT 57.324657 -8.363076 35,000 185 470 -64
2021-08-03 14:14:33 GMT 57.330292 -8.362279 34,975 185 470 0
2021-08-03 14:14:31 GMT 57.332432 -8.361925 35,000 185 470 0
2021-08-03 14:14:30 GMT 57.335266 -8.361540 35,000 185 470 0
2021-08-03 14:14:29 GMT 57.339157 -8.361025 35,000 185 470 -64
2021-08-03 14:14:27 GMT 57.343281 -8.360507 35,000 185 470 0
2021-08-03 14:14:25 GMT 57.345657 -8.360167 35,000 185 470 -64
2021-08-03 14:14:24 GMT 57.350636 -8.359444 35,000 185 470 -64
2021-08-03 14:14:21 GMT 57.358410 -8.358381 34,975 185 470 0
2021-08-03 14:14:19 GMT 57.358410 -8.358381 34,975 185 470 0
2021-08-03 14:14:18 GMT 57.361435 -8.357938 35,000 185 470 0
2021-08-03 14:14:17 GMT 57.365765 -8.357406 34,975 185 470 0
2021-08-03 14:14:15 GMT 57.367722 -8.357077 35,000 185 470 0
2021-08-03 14:14:14 GMT 57.372070 -8.356476 35,000 185 470 -64
2021-08-03 14:14:12 GMT 57.374222 -8.356218 34,975 185 470 0
2021-08-03 14:14:11 GMT 57.378525 -8.355618 34,975 185 470 0
2021-08-03 14:14:09 GMT 57.380722 -8.355274 34,975 185 470 0
2021-08-03 14:14:07 GMT 57.384804 -8.354748 34,975 185 470 0
2021-08-03 14:14:06 GMT 57.386993 -8.354482 35,000 185 470 0
2021-08-03 14:14:05 GMT 57.389374 -8.354158 35,000 185 470 -64
2021-08-03 14:14:03 GMT 57.393463 -8.353596 35,000 185 470 0
2021-08-03 14:14:02 GMT 57.395653 -8.353242 35,000 185 470 -64
2021-08-03 14:14:00 GMT 57.400177 -8.352613 35,000 185 470 0
2021-08-03 14:13:58 GMT 57.404728 -8.352002 35,000 185 470 0
2021-08-03 14:13:57 GMT 57.406677 -8.351755 35,000 185 470 0
2021-08-03 14:13:56 GMT 57.409058 -8.351470 35,000 185 471 0
2021-08-03 14:13:54 GMT 57.412766 -8.350897 34,975 185 471 0
2021-08-03 14:13:53 GMT 57.417526 -8.350296 34,975 185 471 0
2021-08-03 14:13:51 GMT 57.419678 -8.349953 34,975 185 471 64
2021-08-03 14:13:50 GMT 57.424232 -8.349344 34,975 185 471 0
2021-08-03 14:13:48 GMT 57.426178 -8.349094 34,975 185 471 0
2021-08-03 14:13:45 GMT 57.434418 -8.347979 34,975 185 471 0
2021-08-03 14:13:43 GMT 57.437222 -8.347572 34,975 185 471 0
2021-08-03 14:13:40 GMT 57.442657 -8.346863 34,975 185 471 0
2021-08-03 14:13:37 GMT 57.449158 -8.345919 34,975 185 471 0
2021-08-03 14:13:36 GMT 57.456726 -8.344914 35,000 185 471 -64
2021-08-03 14:13:34 GMT 57.456726 -8.344914 35,000 185 471 -64
2021-08-03 14:13:32 GMT 57.461056 -8.344293 35,000 185 471 -64
2021-08-03 14:13:30 GMT 57.465179 -8.343687 34,975 185 471 -64
2021-08-03 14:13:29 GMT 57.467331 -8.343430 35,000 185 471 -64
2021-08-03 14:13:27 GMT 57.471905 -8.342787 35,000 185 471 0
2021-08-03 14:13:26 GMT 57.474289 -8.342485 35,000 185 471 0
2021-08-03 14:13:23 GMT 57.480331 -8.341627 34,975 185 471 0
2021-08-03 14:13:21 GMT 57.484470 -8.341104 34,975 185 471 0
2021-08-03 14:13:20 GMT 57.488804 -8.340484 35,000 185 471 0
2021-08-03 14:13:18 GMT 57.491180 -8.340168 35,000 185 471 -64
2021-08-03 14:13:16 GMT 57.495529 -8.339567 34,975 185 471 0
2021-08-03 14:13:15 GMT 57.497459 -8.339243 35,000 185 471 -64
2021-08-03 14:13:14 GMT 57.502674 -8.338534 35,000 185 471 -64
2021-08-03 14:13:12 GMT 57.504639 -8.338280 34,975 185 471 -64
2021-08-03 14:13:10 GMT 57.509399 -8.337593 35,000 185 471 -64
2021-08-03 14:13:09 GMT 57.511551 -8.337336 35,000 185 471 -64
2021-08-03 14:13:08 GMT 57.513519 -8.337028 35,000 185 471 -64
2021-08-03 14:13:05 GMT 57.519619 -8.336231 35,000 185 471 0
2021-08-03 14:13:04 GMT 57.523949 -8.335611 35,000 185 471 0
2021-08-03 14:13:02 GMT 57.525879 -8.335361 35,000 185 471 -64
2021-08-03 14:13:00 GMT 57.532608 -8.334459 35,000 185 471 0
2021-08-03 14:12:59 GMT 57.532608 -8.334459 35,000 185 471 0
2021-08-03 14:12:57 GMT 57.536938 -8.333839 34,975 185 471 0
2021-08-03 14:12:56 GMT 57.542358 -8.333044 35,000 185 472 0
2021-08-03 14:12:53 GMT 57.545643 -8.332598 35,000 185 472 0
2021-08-03 14:12:51 GMT 57.550186 -8.332014 34,975 185 471 0
2021-08-03 14:12:50 GMT 57.554535 -8.331413 34,975 185 472 0
2021-08-03 14:12:48 GMT 57.556488 -8.331092 34,975 185 472 -64
2021-08-03 14:12:46 GMT 57.561035 -8.330469 34,975 185 472 0
2021-08-03 14:12:45 GMT 57.563232 -8.330212 34,975 185 472 0
2021-08-03 14:12:44 GMT 57.565147 -8.329940 35,000 185 472 0
2021-08-03 14:12:42 GMT 57.569733 -8.329268 35,000 185 472 0
2021-08-03 14:12:40 GMT 57.573853 -8.328700 35,000 185 472 0
2021-08-03 14:12:39 GMT 57.576233 -8.328409 34,975 185 472 0
2021-08-03 14:12:38 GMT 57.578182 -8.328080 35,000 185 472 -64
2021-08-03 14:12:37 GMT 57.583191 -8.327379 35,000 185 472 0
2021-08-03 14:12:35 GMT 57.585342 -8.327122 35,000 185 472 0
2021-08-03 14:12:33 GMT 57.589691 -8.326521 34,975 185 472 0
2021-08-03 14:12:32 GMT 57.591637 -8.326219 34,975 185 472 0
2021-08-03 14:12:30 GMT 57.595779 -8.325663 34,975 185 472 0
2021-08-03 14:12:29 GMT 57.597931 -8.325319 35,000 185 472 0
2021-08-03 14:12:27 GMT 57.602280 -8.324718 34,975 185 472 0
2021-08-03 14:12:26 GMT 57.606392 -8.324181 34,975 185 472 0
2021-08-03 14:12:23 GMT 57.609467 -8.323738 34,975 185 472 0
2021-08-03 14:12:21 GMT 57.613586 -8.323174 34,975 185 472 -64
2021-08-03 14:12:20 GMT 57.615982 -8.322852 34,975 185 472 0
2021-08-03 14:12:19 GMT 57.617706 -8.322587 35,000 185 472 -64
2021-08-03 14:12:17 GMT 57.621826 -8.321972 35,000 185 472 0
2021-08-03 14:12:15 GMT 57.625942 -8.321435 35,000 185 472 -64
2021-08-03 14:12:14 GMT 57.631157 -8.320726 35,000 185 472 -64
2021-08-03 14:12:12 GMT 57.633347 -8.320460 35,000 185 472 -64
2021-08-03 14:12:11 GMT 57.635532 -8.320106 35,000 185 472 -64
2021-08-03 14:12:09 GMT 57.640091 -8.319483 35,000 185 472 -64
2021-08-03 14:12:08 GMT 57.644192 -8.318954 35,000 185 472 -64
2021-08-03 14:12:06 GMT 57.646179 -8.318710 35,000 185 472 -64
2021-08-03 14:12:04 GMT 57.650528 -8.318110 35,000 185 472 0
2021-08-03 14:12:03 GMT 57.652897 -8.317802 35,000 185 472 0
2021-08-03 14:12:02 GMT 57.657440 -8.317165 35,000 185 472 0
2021-08-03 14:12:00 GMT 57.659637 -8.316822 35,000 185 472 0
2021-08-03 14:11:59 GMT 57.663116 -8.316393 35,000 185 472 0
2021-08-03 14:11:57 GMT 57.665516 -8.316119 35,000 185 472 0
2021-08-03 14:11:55 GMT 57.669617 -8.315535 34,975 185 472 0
2021-08-03 14:11:54 GMT 57.674171 -8.314967 34,975 185 472 0
2021-08-03 14:11:52 GMT 57.677246 -8.314524 34,975 185 472 64
2021-08-03 14:11:50 GMT 57.680923 -8.314075 34,975 185 472 64
2021-08-03 14:11:49 GMT 57.682877 -8.313815 35,000 185 472 64
2021-08-03 14:11:47 GMT 57.687881 -8.313131 34,975 185 472 0
2021-08-03 14:11:46 GMT 57.690281 -8.312752 34,975 185 472 64
2021-08-03 14:11:43 GMT 57.695709 -8.312016 34,975 185 472 0
2021-08-03 14:11:41 GMT 57.700928 -8.311329 34,975 185 472 0
2021-08-03 14:11:40 GMT 57.703316 -8.310980 34,975 185 472 0
2021-08-03 14:11:39 GMT 57.707226 -8.310448 34,975 185 472 -64
2021-08-03 14:11:37 GMT 57.709366 -8.310183 34,975 185 472 -64
2021-08-03 14:11:36 GMT 57.711555 -8.309828 34,975 185 472 -64
2021-08-03 14:11:34 GMT 57.716125 -8.309269 34,975 185 472 -64
2021-08-03 14:11:32 GMT 57.720215 -8.308676 34,975 185 472 -64
2021-08-03 14:11:31 GMT 57.722626 -8.308325 34,975 185 472 -64
2021-08-03 14:11:29 GMT 57.725891 -8.307879 35,000 185 472 -64
2021-08-03 14:11:28 GMT 57.728500 -8.307495 35,000 185 472 -64
2021-08-03 14:11:27 GMT 57.732826 -8.306946 35,000 185 472 -64
2021-08-03 14:11:25 GMT 57.735016 -8.306671 35,000 185 472 -64
2021-08-03 14:11:23 GMT 57.739346 -8.306030 35,000 185 472 -64
2021-08-03 14:11:21 GMT 57.744781 -8.305310 35,000 185 472 -64
2021-08-03 14:11:19 GMT 57.749130 -8.304689 35,000 185 472 -64
2021-08-03 14:11:17 GMT 57.752380 -8.304291 35,000 185 472 -64
2021-08-03 14:11:16 GMT 57.754986 -8.303925 35,000 185 472 -64
2021-08-03 14:11:14 GMT 57.759979 -8.303183 35,000 185 472 0
2021-08-03 14:11:11 GMT 57.766525 -8.302297 35,000 185 472 0
2021-08-03 14:11:10 GMT 57.768265 -8.302031 34,975 185 472 0
2021-08-03 14:11:08 GMT 57.772816 -8.301453 35,000 185 472 64
2021-08-03 14:11:07 GMT 57.775005 -8.301178 34,975 185 472 64
2021-08-03 14:11:06 GMT 57.777145 -8.300812 34,975 185 472 0
2021-08-03 14:11:04 GMT 57.781521 -8.300262 34,975 185 472 0
2021-08-03 14:11:02 GMT 57.786072 -8.299639 34,975 185 472 0
2021-08-03 14:11:00 GMT 57.792572 -8.298753 35,000 185 472 0
2021-08-03 14:10:58 GMT 57.794556 -8.298431 34,975 185 472 0
2021-08-03 14:10:56 GMT 57.798660 -8.297867 34,975 185 472 0
2021-08-03 14:10:55 GMT 57.800858 -8.297602 34,975 185 472 0
2021-08-03 14:10:54 GMT 57.802795 -8.297333 34,975 185 472 0
2021-08-03 14:10:52 GMT 57.807125 -8.296692 34,975 185 472 0
2021-08-03 14:10:51 GMT 57.810150 -8.296234 34,975 185 472 0
2021-08-03 14:10:49 GMT 57.814529 -8.295685 34,975 185 472 0
2021-08-03 14:10:48 GMT 57.816669 -8.295319 34,975 185 472 0
2021-08-03 14:10:47 GMT 57.818619 -8.295121 35,000 185 472 0
2021-08-03 14:10:45 GMT 57.823185 -8.294495 35,000 185 472 0
2021-08-03 14:10:44 GMT 57.825375 -8.294128 35,000 185 472 0
2021-08-03 14:10:42 GMT 57.829704 -8.293579 34,975 185 472 0
2021-08-03 14:10:41 GMT 57.831890 -8.293213 34,975 185 472 0
2021-08-03 14:10:39 GMT 57.836220 -8.292664 35,000 185 472 0
2021-08-03 14:10:37 GMT 57.839710 -8.292206 34,975 185 472 -64
2021-08-03 14:10:35 GMT 57.843159 -8.291656 34,975 185 472 -64
2021-08-03 14:10:34 GMT 57.846230 -8.291290 34,975 185 472 -64
2021-08-03 14:10:33 GMT 57.849255 -8.290833 34,975 185 472 -64
2021-08-03 14:10:31 GMT 57.852951 -8.290336 35,000 185 472 0
2021-08-03 14:10:30 GMT 57.858170 -8.289628 35,000 185 472 -64
2021-08-03 14:10:27 GMT 57.861649 -8.289096 35,000 185 472 -64
2021-08-03 14:10:26 GMT 57.863800 -8.288830 35,000 185 472 -64
2021-08-03 14:10:25 GMT 57.865784 -8.288544 35,000 185 472 -64
2021-08-03 14:10:23 GMT 57.871170 -8.287767 35,000 185 472 -64
2021-08-03 14:10:22 GMT 57.873367 -8.287501 35,000 185 472 -64
2021-08-03 14:10:20 GMT 57.877716 -8.286881 35,000 185 472 -64
2021-08-03 14:10:18 GMT 57.881378 -8.286346 35,000 185 472 -64
2021-08-03 14:10:17 GMT 57.883144 -8.286072 35,000 185 472 -64
2021-08-03 14:10:15 GMT 57.887695 -8.285463 35,000 185 472 0
2021-08-03 14:10:14 GMT 57.889847 -8.285109 35,000 185 472 0
2021-08-03 14:10:13 GMT 57.894196 -8.284489 35,000 185 472 0
2021-08-03 14:10:10 GMT 57.901394 -8.283508 35,000 185 472 0
2021-08-03 14:10:08 GMT 57.903534 -8.283142 35,000 185 472 0
2021-08-03 14:10:07 GMT 57.905914 -8.282805 35,000 185 472 0
2021-08-03 14:10:05 GMT 57.910053 -8.282227 35,000 185 471 0
2021-08-03 14:10:04 GMT 57.912460 -8.281919 34,975 185 471 0
2021-08-03 14:10:02 GMT 57.916763 -8.281299 34,975 185 471 64
2021-08-03 14:10:01 GMT 57.918713 -8.280945 34,975 185 471 64
2021-08-03 14:09:59 GMT 57.922852 -8.280413 35,000 185 471 64
2021-08-03 14:09:58 GMT 57.925228 -8.280029 34,975 185 471 64
2021-08-03 14:09:57 GMT 57.929352 -8.279439 34,975 185 471 0
2021-08-03 14:09:55 GMT 57.931503 -8.279084 34,975 185 471 64
2021-08-03 14:09:53 GMT 57.935658 -8.278473 34,975 185 471 64
2021-08-03 14:09:52 GMT 57.937592 -8.278198 34,975 185 471 64
2021-08-03 14:09:51 GMT 57.942127 -8.277557 34,975 185 471 0
2021-08-03 14:09:49 GMT 57.945202 -8.277100 34,975 185 471 0
2021-08-03 14:09:48 GMT 57.949310 -8.276426 34,975 185 471 0
2021-08-03 14:09:46 GMT 57.951462 -8.276072 34,975 185 471 0
2021-08-03 14:09:43 GMT 57.957962 -8.275097 34,975 185 471 0
2021-08-03 14:09:42 GMT 57.961899 -8.274477 34,975 185 471 -64
2021-08-03 14:09:40 GMT 57.964050 -8.274211 34,975 185 471 -64
2021-08-03 14:09:38 GMT 57.968399 -8.273502 34,975 185 471 -64
2021-08-03 14:09:37 GMT 57.970337 -8.273163 34,975 185 471 -64
2021-08-03 14:09:35 GMT 57.975132 -8.272430 34,975 185 471 -64
2021-08-03 14:09:34 GMT 57.977276 -8.272064 35,000 185 471 -64
2021-08-03 14:09:33 GMT 57.979462 -8.271790 35,000 185 471 -64
2021-08-03 14:09:30 GMT 57.984676 -8.270966 35,000 185 472 -64
2021-08-03 14:09:29 GMT 57.990097 -8.270047 35,000 185 472 -64
2021-08-03 14:09:27 GMT 57.992706 -8.269604 35,000 185 472 -64
2021-08-03 14:09:25 GMT 57.997009 -8.268895 35,000 185 472 -64
2021-08-03 14:09:23 GMT 58.001575 -8.268127 35,000 185 472 -64
2021-08-03 14:09:22 GMT 58.003761 -8.267853 35,000 185 472 0
2021-08-03 14:09:21 GMT 58.005951 -8.267487 35,000 186 472 -64
2021-08-03 14:09:19 GMT 58.010281 -8.266754 35,000 186 472 -64
2021-08-03 14:09:17 GMT 58.014816 -8.265972 35,000 186 472 0
2021-08-03 14:09:16 GMT 58.017014 -8.265617 35,000 186 472 0
2021-08-03 14:09:14 GMT 58.021126 -8.264923 35,000 186 472 0
2021-08-03 14:09:13 GMT 58.023315 -8.264557 34,975 186 472 0
2021-08-03 14:09:12 GMT 58.025455 -8.264191 35,000 186 471 0
2021-08-03 14:09:09 GMT 58.032211 -8.262959 35,000 186 472 -64
2021-08-03 14:09:07 GMT 58.036514 -8.262250 34,975 186 472 -64
2021-08-03 14:09:06 GMT 58.038490 -8.261902 34,975 186 472 -64
2021-08-03 14:09:05 GMT 58.042603 -8.261099 35,000 186 472 -64
2021-08-03 14:09:03 GMT 58.044754 -8.260744 35,000 186 472 -64
2021-08-03 14:09:02 GMT 58.046730 -8.260345 35,000 186 472 -64
2021-08-03 14:09:00 GMT 58.051712 -8.259415 35,000 186 472 -64
2021-08-03 14:08:59 GMT 58.052994 -8.259149 35,000 186 472 -64
2021-08-03 14:08:58 GMT 58.055809 -8.258606 35,000 186 472 -64
2021-08-03 14:08:56 GMT 58.060604 -8.257690 35,000 187 472 -64
2021-08-03 14:08:54 GMT 58.064514 -8.256866 35,000 187 472 -64
2021-08-03 14:08:52 GMT 58.071213 -8.255428 34,975 187 472 0
2021-08-03 14:08:49 GMT 58.075104 -8.254631 35,000 187 472 0
2021-08-03 14:08:47 GMT 58.079407 -8.253656 35,000 187 472 0
2021-08-03 14:08:46 GMT 58.081364 -8.253204 35,000 188 472 -64
2021-08-03 14:08:45 GMT 58.086319 -8.251973 35,000 188 471 -64
2021-08-03 14:08:43 GMT 58.088718 -8.251465 35,000 188 471 -64
2021-08-03 14:08:42 GMT 58.092819 -8.250467 35,000 188 472 0
2021-08-03 14:08:40 GMT 58.095383 -8.249758 35,000 188 472 0
2021-08-03 14:08:39 GMT 58.096497 -8.249542 35,000 188 471 0
2021-08-03 14:08:37 GMT 58.101013 -8.248340 35,000 189 471 0
2021-08-03 14:08:36 GMT 58.105526 -8.247070 35,000 189 470 -64
2021-08-03 14:08:34 GMT 58.107468 -8.246568 35,000 189 471 -64
2021-08-03 14:08:32 GMT 58.111530 -8.245422 35,000 189 471 0
2021-08-03 14:08:31 GMT 58.114555 -8.244507 35,000 189 471 -64
2021-08-03 14:08:29 GMT 58.118637 -8.243290 35,000 190 471 -64
2021-08-03 14:08:27 GMT 58.122704 -8.242035 35,000 190 470 -64
2021-08-03 14:08:26 GMT 58.124634 -8.241429 35,000 190 470 0
2021-08-03 14:08:25 GMT 58.126785 -8.240809 35,000 190 470 0
2021-08-03 14:08:22 GMT 58.132526 -8.238922 35,000 190 470 -64
2021-08-03 14:08:21 GMT 58.135551 -8.237915 35,000 191 470 0
2021-08-03 14:08:20 GMT 58.137909 -8.237088 35,000 191 470 -64
2021-08-03 14:08:19 GMT 58.141930 -8.235718 35,000 191 470 0
2021-08-03 14:08:17 GMT 58.144070 -8.234985 35,000 191 470 0
2021-08-03 14:08:16 GMT 58.148354 -8.233429 35,000 191 469 0
2021-08-03 14:08:13 GMT 58.151287 -8.232330 35,000 192 469 0
2021-08-03 14:08:11 GMT 58.157665 -8.229950 35,000 192 470 64
2021-08-03 14:08:09 GMT 58.160889 -8.228760 34,975 192 469 64
2021-08-03 14:08:08 GMT 58.162994 -8.227962 34,975 192 469 64
2021-08-03 14:08:07 GMT 58.165100 -8.227076 34,975 192 469 64
2021-08-03 14:08:06 GMT 58.169769 -8.225304 34,975 192 469 64
2021-08-03 14:08:04 GMT 58.171921 -8.224418 34,975 192 469 64
2021-08-03 14:08:02 GMT 58.176544 -8.222558 34,975 192 469 64
2021-08-03 14:08:01 GMT 58.178696 -8.221760 34,975 192 468 64
2021-08-03 14:08:00 GMT 58.184601 -8.219457 34,975 192 469 64
2021-08-03 14:07:58 GMT 58.184601 -8.219457 34,975 192 469 64
2021-08-03 14:07:56 GMT 58.191601 -8.216766 34,975 192 468 64
2021-08-03 14:07:54 GMT 58.191601 -8.216766 34,975 191 469 64
2021-08-03 14:07:51 GMT 58.198399 -8.214294 34,975 191 469 64
2021-08-03 14:07:50 GMT 58.202911 -8.212723 34,975 190 469 0
2021-08-03 14:07:47 GMT 58.206543 -8.211639 34,975 188 470 -64
2021-08-03 14:07:45 GMT 58.213165 -8.209888 34,975 186 470 -128
2021-08-03 14:07:43 GMT 58.215530 -8.209351 35,000 186 470 -128
2021-08-03 14:07:42 GMT 58.219440 -8.208618 35,000 185 471 -128
2021-08-03 14:07:39 GMT 58.226166 -8.207762 35,000 182 471 -128
2021-08-03 14:07:37 GMT 58.228317 -8.207585 35,000 182 471 -128
2021-08-03 14:07:35 GMT 58.234615 -8.207428 35,000 178 472 -128
2021-08-03 14:07:33 GMT 58.238754 -8.207585 35,000 178 472 -64
2021-08-03 14:07:31 GMT 58.240711 -8.207703 35,000 177 472 -64
2021-08-03 14:07:29 GMT 58.244843 -8.208116 35,000 176 472 -64
2021-08-03 14:07:27 GMT 58.250977 -8.208913 35,000 175 473 0
2021-08-03 14:07:25 GMT 58.255325 -8.209622 35,000 175 473 0
2021-08-03 14:07:23 GMT 58.258804 -8.210154 35,000 175 473 0
2021-08-03 14:07:22 GMT 58.261196 -8.210541 35,000 175 473 0
2021-08-03 14:07:20 GMT 58.264641 -8.211090 35,000 174 473 0
2021-08-03 14:07:19 GMT 58.267502 -8.211571 35,000 174 473 0
2021-08-03 14:07:18 GMT 58.269901 -8.212006 35,000 174 473 0
2021-08-03 14:07:16 GMT 58.273346 -8.212555 35,000 174 474 0
2021-08-03 14:07:15 GMT 58.275536 -8.212921 34,975 174 474 64
2021-08-03 14:07:13 GMT 58.280746 -8.213928 34,975 174 473 0
2021-08-03 14:07:12 GMT 58.287266 -8.215210 34,975 173 473 0
2021-08-03 14:07:10 GMT 58.287266 -8.215210 34,975 173 473 0
2021-08-03 14:07:09 GMT 58.290756 -8.215942 34,975 173 474 0
2021-08-03 14:07:07 GMT 58.292896 -8.216492 34,975 172 473 0
2021-08-03 14:07:06 GMT 58.297897 -8.217685 34,975 171 473 0
2021-08-03 14:07:03 GMT 58.302025 -8.218781 34,975 171 474 0
2021-08-03 14:07:02 GMT 58.303940 -8.219368 34,975 171 473 0
2021-08-03 14:07:01 GMT 58.306549 -8.220077 34,975 169 473 0
2021-08-03 14:06:59 GMT 58.311054 -8.221619 34,975 169 474 0
2021-08-03 14:06:57 GMT 58.315567 -8.223267 35,000 168 474 0
2021-08-03 14:06:56 GMT 58.317719 -8.224153 34,975 167 474 0
2021-08-03 14:06:55 GMT 58.319870 -8.225039 34,975 165 475 0
2021-08-03 14:06:53 GMT 58.324127 -8.226899 34,975 165 475 0
2021-08-03 14:06:52 GMT 58.326042 -8.227844 34,975 164 475 -64
2021-08-03 14:06:50 GMT 58.330490 -8.230177 34,975 163 475 -64
2021-08-03 14:06:49 GMT 58.334469 -8.232422 34,975 163 475 -64
2021-08-03 14:06:47 GMT 58.338867 -8.235050 34,975 161 475 -64
2021-08-03 14:06:45 GMT 58.340927 -8.236379 34,975 160 475 -64
2021-08-03 14:06:44 GMT 58.343220 -8.237823 34,975 160 476 -64
2021-08-03 14:06:42 GMT 58.346741 -8.240278 35,000 158 476 -64
2021-08-03 14:06:40 GMT 58.351044 -8.243408 35,000 157 476 -64
2021-08-03 14:06:38 GMT 58.355091 -8.246521 35,000 156 476 -64
2021-08-03 14:06:36 GMT 58.358917 -8.249669 35,000 155 476 -64
2021-08-03 14:06:34 GMT 58.362946 -8.253125 35,000 154 476 -64
2021-08-03 14:06:32 GMT 58.367104 -8.256866 35,000 153 477 -64
2021-08-03 14:06:31 GMT 58.369102 -8.258698 35,000 153 476 -64
2021-08-03 14:06:30 GMT 58.376133 -8.265564 35,000 152 477 0
2021-08-03 14:06:28 GMT 58.376133 -8.265564 35,000 152 477 0
2021-08-03 14:06:27 GMT 58.382000 -8.271423 35,000 152 477 0
2021-08-03 14:06:25 GMT 58.382000 -8.271423 35,000 151 477 0
2021-08-03 14:06:23 GMT 58.384918 -8.274388 35,000 151 477 0
2021-08-03 14:06:20 GMT 58.391510 -8.281211 34,975 151 477 0
2021-08-03 14:06:18 GMT 58.395401 -8.285109 34,975 151 477 0
2021-08-03 14:06:16 GMT 58.399246 -8.289096 34,975 151 477 0
2021-08-03 14:06:14 GMT 58.402946 -8.292847 35,000 151 476 0
2021-08-03 14:06:13 GMT 58.405060 -8.295032 34,975 151 476 0
2021-08-03 14:06:11 GMT 58.408768 -8.298889 34,975 151 476 0
2021-08-03 14:06:10 GMT 58.410721 -8.300812 35,000 151 476 0
2021-08-03 14:06:08 GMT 58.414764 -8.305044 34,975 151 476 0
2021-08-03 14:06:07 GMT 58.416321 -8.306639 35,000 151 476 0
2021-08-03 14:06:05 GMT 58.420406 -8.310791 35,000 151 476 0
2021-08-03 14:06:04 GMT 58.422134 -8.312575 34,975 151 476 -64
2021-08-03 14:06:02 GMT 58.425613 -8.316119 34,975 151 476 0
2021-08-03 14:06:01 GMT 58.429668 -8.320312 34,975 151 477 0
2021-08-03 14:05:59 GMT 58.431427 -8.322144 34,975 151 476 -64
2021-08-03 14:05:57 GMT 58.435318 -8.326131 35,000 151 476 0
2021-08-03 14:05:56 GMT 58.437241 -8.328080 35,000 151 476 -64
2021-08-03 14:05:54 GMT 58.441677 -8.332672 34,975 151 476 -64
2021-08-03 14:05:53 GMT 58.445961 -8.337067 35,000 151 476 -64
2021-08-03 14:05:50 GMT 58.450569 -8.341827 34,975 151 476 -64
2021-08-03 14:05:48 GMT 58.453491 -8.344825 35,000 151 476 -64
2021-08-03 14:05:47 GMT 58.454636 -8.345977 35,000 151 476 -64
2021-08-03 14:05:45 GMT 58.459091 -8.350616 34,975 151 476 0
2021-08-03 14:05:44 GMT 58.462955 -8.354553 34,975 151 476 0
2021-08-03 14:05:42 GMT 58.464909 -8.356567 34,975 151 476 0
2021-08-03 14:05:41 GMT 58.468597 -8.360330 34,975 151 476 0
2021-08-03 14:05:39 GMT 58.470730 -8.362518 34,975 151 476 0
2021-08-03 14:05:37 GMT 58.473999 -8.365912 34,975 151 476 0
2021-08-03 14:05:35 GMT 58.477890 -8.369899 34,975 151 476 0
2021-08-03 14:05:34 GMT 58.480591 -8.372734 34,975 151 476 0
2021-08-03 14:05:33 GMT 58.484276 -8.376434 34,975 151 476 0
2021-08-03 14:05:31 GMT 58.485992 -8.378227 34,975 151 476 0
2021-08-03 14:05:30 GMT 58.490047 -8.382477 35,000 151 476 0
2021-08-03 14:05:28 GMT 58.492001 -8.384399 34,975 151 476 0
2021-08-03 14:05:27 GMT 58.496239 -8.388794 34,975 151 476 0
2021-08-03 14:05:25 GMT 58.497402 -8.389984 34,975 151 476 0
2021-08-03 14:05:24 GMT 58.499542 -8.392226 34,975 151 476 -64
2021-08-03 14:05:23 GMT 58.503387 -8.396213 35,000 151 476 0
2021-08-03 14:05:21 GMT 58.505501 -8.398407 35,000 151 476 -64
2021-08-03 14:05:20 GMT 58.509365 -8.402344 34,975 151 476 -64
2021-08-03 14:05:18 GMT 58.511322 -8.404358 35,000 151 476 -64
2021-08-03 14:05:17 GMT 58.516724 -8.409943 35,000 151 476 0
2021-08-03 14:05:15 GMT 58.516724 -8.409943 34,975 151 476 0
2021-08-03 14:05:13 GMT 58.520584 -8.413971 35,000 151 476 0
2021-08-03 14:05:12 GMT 58.523285 -8.416718 35,000 151 476 0
2021-08-03 14:05:10 GMT 58.527149 -8.420746 35,000 151 476 0
2021-08-03 14:05:09 GMT 58.528885 -8.422527 35,000 151 475 0
2021-08-03 14:05:08 GMT 58.531013 -8.424683 35,000 151 475 0
2021-08-03 14:05:07 GMT 58.532551 -8.426331 35,000 151 475 0
2021-08-03 14:05:05 GMT 58.536209 -8.430058 34,975 151 475 0
2021-08-03 14:05:03 GMT 58.540054 -8.434045 34,975 151 475 0
2021-08-03 14:05:01 GMT 58.543900 -8.438120 35,000 151 475 0
2021-08-03 14:05:00 GMT 58.545868 -8.440069 34,975 151 475 0
2021-08-03 14:04:59 GMT 58.547791 -8.442107 34,975 151 475 0
2021-08-03 14:04:56 GMT 58.554337 -8.448841 35,000 151 475 0
2021-08-03 14:04:54 GMT 58.558014 -8.452606 35,000 151 475 0
2021-08-03 14:04:53 GMT 58.560104 -8.454865 35,000 151 475 0
2021-08-03 14:04:51 GMT 58.563786 -8.458649 34,975 151 475 0
2021-08-03 14:04:50 GMT 58.565697 -8.460663 35,000 151 475 0
2021-08-03 14:04:49 GMT 58.567604 -8.462585 34,975 151 475 0
2021-08-03 14:04:48 GMT 58.571468 -8.466614 34,975 151 475 0
2021-08-03 14:04:46 GMT 58.573795 -8.468994 35,000 151 475 0
2021-08-03 14:04:45 GMT 58.577454 -8.472851 34,975 151 475 0
2021-08-03 14:04:43 GMT 58.579193 -8.474579 34,975 151 475 0
2021-08-03 14:04:41 GMT 58.583012 -8.478607 34,975 151 475 0
2021-08-03 14:04:40 GMT 58.584778 -8.480382 35,000 151 475 0
2021-08-03 14:04:38 GMT 58.588783 -8.484558 34,975 151 475 0
2021-08-03 14:04:36 GMT 58.592834 -8.488799 34,975 151 475 0
2021-08-03 14:04:33 GMT 58.596512 -8.492615 34,975 151 474 64
2021-08-03 14:04:32 GMT 58.598648 -8.494735 34,975 151 474 0
2021-08-03 14:04:30 GMT 58.602493 -8.498811 34,975 151 475 0
2021-08-03 14:04:28 GMT 58.606522 -8.502960 35,000 151 475 0
2021-08-03 14:04:27 GMT 58.608261 -8.504747 34,975 151 475 0
2021-08-03 14:04:26 GMT 58.610184 -8.506785 35,000 151 475 0
2021-08-03 14:04:24 GMT 58.613831 -8.510559 34,975 151 475 0
2021-08-03 14:04:23 GMT 58.618065 -8.514954 34,975 151 475 0
2021-08-03 14:04:21 GMT 58.620022 -8.516968 34,975 151 475 -64
2021-08-03 14:04:20 GMT 58.622131 -8.519189 34,975 151 475 -64
2021-08-03 14:04:18 GMT 58.625374 -8.522644 34,975 151 475 -64
2021-08-03 14:04:17 GMT 58.627121 -8.524416 35,000 151 475 -64
2021-08-03 14:04:15 GMT 58.630966 -8.528403 35,000 151 475 -64
2021-08-03 14:04:13 GMT 58.636547 -8.534271 35,000 151 475 -64
2021-08-03 14:04:11 GMT 58.640625 -8.538503 35,000 151 475 -64
2021-08-03 14:04:10 GMT 58.642365 -8.540314 35,000 151 475 -64
2021-08-03 14:04:08 GMT 58.646393 -8.544528 35,000 151 475 -64
2021-08-03 14:04:07 GMT 58.648140 -8.546265 35,000 151 475 -64
2021-08-03 14:04:05 GMT 58.651955 -8.550293 35,000 151 476 -64
2021-08-03 14:04:04 GMT 58.654083 -8.552502 35,000 151 476 -64
2021-08-03 14:04:03 GMT 58.657928 -8.556578 35,000 151 476 -64
2021-08-03 14:04:00 GMT 58.660057 -8.558807 35,000 151 476 -64
2021-08-03 14:03:59 GMT 58.662010 -8.560822 35,000 151 476 -64
2021-08-03 14:03:57 GMT 58.666618 -8.565674 35,000 151 476 0
2021-08-03 14:03:56 GMT 58.667786 -8.566864 35,000 151 476 0
2021-08-03 14:03:54 GMT 58.671799 -8.571108 34,975 151 476 0
2021-08-03 14:03:53 GMT 58.673557 -8.572906 35,000 151 476 0
2021-08-03 14:03:51 GMT 58.677792 -8.577301 35,000 151 475 0
2021-08-03 14:03:50 GMT 58.679901 -8.579525 35,000 151 475 0
2021-08-03 14:03:49 GMT 58.687801 -8.587738 35,000 151 475 0
2021-08-03 14:03:46 GMT 58.687801 -8.587738 34,975 151 475 0
2021-08-03 14:03:44 GMT 58.690872 -8.591034 34,975 151 475 0
2021-08-03 14:03:43 GMT 58.692627 -8.592815 35,000 151 475 0
2021-08-03 14:03:41 GMT 58.696838 -8.597245 34,975 151 475 0
2021-08-03 14:03:40 GMT 58.698601 -8.598999 35,000 151 475 0
2021-08-03 14:03:38 GMT 58.702465 -8.603027 34,975 151 475 0
2021-08-03 14:03:36 GMT 58.706131 -8.606902 35,000 151 475 0
2021-08-03 14:03:35 GMT 58.708786 -8.609649 35,000 151 475 0
2021-08-03 14:03:34 GMT 58.710938 -8.611908 35,000 151 475 0
2021-08-03 14:03:32 GMT 58.714756 -8.615936 35,000 151 475 0
2021-08-03 14:03:30 GMT 58.718620 -8.619965 35,000 151 475 64
2021-08-03 14:03:26 GMT 58.726299 -8.628021 35,000 151 475 64
2021-08-03 14:03:24 GMT 58.729420 -8.631317 34,975 150 474 64
2021-08-03 14:03:21 GMT 58.735565 -8.637817 34,975 150 474 64
2021-08-03 14:03:19 GMT 58.739548 -8.642076 34,975 150 475 64
2021-08-03 14:03:17 GMT 58.743572 -8.646423 34,975 150 476 64
2021-08-03 14:03:16 GMT 58.745106 -8.648071 34,975 150 476 64
2021-08-03 14:03:15 GMT 58.748924 -8.652283 34,975 149 475 64
2021-08-03 14:03:13 GMT 58.750832 -8.654388 34,975 149 475 64
2021-08-03 14:03:10 GMT 58.756092 -8.660431 34,975 149 475 64
2021-08-03 14:03:09 GMT 58.758003 -8.662537 34,975 148 476 0
2021-08-03 14:03:07 GMT 58.763397 -8.669010 34,975 147 476 -64
2021-08-03 14:03:06 GMT 58.765079 -8.671051 34,975 147 476 -64
2021-08-03 14:03:03 GMT 58.773697 -8.682034 35,000 145 477 -64
2021-08-03 14:03:00 GMT 58.775646 -8.684784 35,000 142 478 -64
2021-08-03 14:02:59 GMT 58.777462 -8.687256 35,000 142 478 -64
2021-08-03 14:02:57 GMT 58.781158 -8.692578 35,000 141 478 -64
2021-08-03 14:02:54 GMT 58.786167 -8.700165 35,000 140 478 -64
2021-08-03 14:02:46 GMT 58.799286 -8.722524 35,000 135 480 0
2021-08-03 14:02:43 GMT 58.803085 -8.729701 35,000 134 481 0
2021-08-03 14:02:36 GMT 58.814484 -8.753711 34,975 129 483 0
2021-08-03 14:02:33 GMT 58.818146 -8.762305 35,000 128 483 0
2021-08-03 14:02:26 GMT 58.827831 -8.787598 34,975 123 485 0
2021-08-03 14:02:23 GMT 58.831043 -8.796936 35,000 122 485 0
2021-08-03 14:02:16 GMT 58.839386 -8.824059 35,000 117 486 0
2021-08-03 14:02:13 GMT 58.842632 -8.835938 34,975 116 487 0
2021-08-03 14:02:06 GMT 58.849091 -8.863129 35,000 111 488 -64
2021-08-03 14:02:02 GMT 58.852131 -8.878090 35,000 110 489 -64
2021-08-03 14:01:56 GMT 58.856827 -8.904968 35,000 106 490 0
2021-08-03 14:01:52 GMT 58.859066 -8.920520 35,000 103 491 0
2021-08-03 14:01:45 GMT 58.862373 -8.949595 34,975 100 492 0
2021-08-03 14:01:42 GMT 58.863628 -8.963423 35,000 97 493 0
2021-08-03 14:01:36 GMT 58.865387 -8.992676 35,000 94 494 0
2021-08-03 14:01:31 GMT 58.865955 -9.009831 34,975 92 495 0
2021-08-03 14:01:26 GMT 58.866165 -9.035889 34,975 87 497 -64
2021-08-03 14:01:21 GMT 58.865818 -9.053966 35,000 86 496 0
2021-08-03 14:01:16 GMT 58.864655 -9.079537 35,000 82 498 0
2021-08-03 14:01:11 GMT 58.863281 -9.098511 35,000 80 499 0
2021-08-03 14:01:05 GMT 58.860744 -9.124240 34,975 77 500 0
2021-08-03 14:01:00 GMT 58.857880 -9.146301 35,000 74 501 0
2021-08-03 14:00:55 GMT 58.854179 -9.169796 35,000 71 501 -64
2021-08-03 14:00:50 GMT 58.850647 -9.188782 34,975 68 503 0
2021-08-03 14:00:45 GMT 58.845657 -9.211859 34,975 65 504 0
2021-08-03 14:00:40 GMT 58.841263 -9.229667 34,975 63 504 0
2021-08-03 14:00:35 GMT 58.835541 -9.250222 34,975 60 505 0
2021-08-03 14:00:30 GMT 58.829365 -9.269897 34,975 56 506 -64
2021-08-03 14:00:25 GMT 58.822289 -9.290039 35,000 54 507 -64
2021-08-03 14:00:20 GMT 58.815216 -9.307983 35,000 51 507 -64
2021-08-03 14:00:16 GMT 58.808807 -9.322963 35,000 48 508 -64
2021-08-03 14:00:13 GMT 58.805695 -9.329696 34,975 47 508 0
2021-08-03 14:00:09 GMT 58.799240 -9.342897 35,000 45 509 -64
2021-08-03 14:00:06 GMT 58.792557 -9.355567 35,000 43 509 -64
2021-08-03 14:00:04 GMT 58.789330 -9.361450 34,975 42 509 -64
2021-08-03 13:59:59 GMT 58.780811 -9.375732 35,000 39 509 -64
2021-08-03 13:59:54 GMT 58.771408 -9.390032 34,975 36 509 0
2021-08-03 13:59:49 GMT 58.762619 -9.402170 35,000 33 509 -64
2021-08-03 13:59:45 GMT 58.755112 -9.411562 34,975 31 510 0
2021-08-03 13:59:39 GMT 58.741745 -9.426624 35,000 28 510 0
2021-08-03 13:59:34 GMT 58.731888 -9.436249 35,000 24 509 -64
2021-08-03 13:59:29 GMT 58.720760 -9.445953 35,000 22 509 -64
2021-08-03 13:59:24 GMT 58.710705 -9.453552 35,000 20 510 -64
2021-08-03 13:59:18 GMT 58.697346 -9.462250 35,000 16 509 -64
2021-08-03 13:59:14 GMT 58.688267 -9.467102 35,000 14 509 -64
2021-08-03 13:59:08 GMT 58.673904 -9.473582 35,000 11 508 -64
2021-08-03 13:59:04 GMT 58.664433 -9.476990 35,000 9 509 0
2021-08-03 13:58:58 GMT 58.650742 -9.481201 34,975 8 508 0
2021-08-03 13:58:55 GMT 58.640781 -9.484039 34,975 8 508 0
2021-08-03 13:58:45 GMT 58.620857 -9.489716 34,975 8 508 0
2021-08-03 13:58:43 GMT 58.616913 -9.490859 35,000 8 508 -64
2021-08-03 13:58:35 GMT 58.597630 -9.496307 35,000 8 508 -64
2021-08-03 13:58:33 GMT 58.593952 -9.497406 34,975 8 508 -64
2021-08-03 13:58:25 GMT 58.575378 -9.502716 35,000 8 508 -64
2021-08-03 13:58:23 GMT 58.570953 -9.503971 35,000 8 508 -64
2021-08-03 13:58:15 GMT 58.546608 -9.510956 35,000 8 509 -64
2021-08-03 13:58:05 GMT 58.527988 -9.516266 35,000 8 509 -64
2021-08-03 13:58:03 GMT 58.523117 -9.517616 35,000 8 509 -64
2021-08-03 13:57:55 GMT 58.505268 -9.522766 35,000 8 508 0
2021-08-03 13:57:53 GMT 58.500149 -9.524231 35,000 8 508 -64
2021-08-03 13:57:45 GMT 58.481621 -9.529633 34,975 8 508 0
2021-08-03 13:57:43 GMT 58.476967 -9.530914 34,975 8 508 0
2021-08-03 13:57:34 GMT 58.457462 -9.536499 34,975 8 508 0
2021-08-03 13:57:32 GMT 58.452621 -9.537905 34,975 8 508 0
2021-08-03 13:57:25 GMT 58.434998 -9.542955 34,975 8 508 0
2021-08-03 13:57:22 GMT 58.429203 -9.544647 34,975 8 508 -64
2021-08-03 13:57:14 GMT 58.410416 -9.550043 35,000 8 508 -64
2021-08-03 13:57:12 GMT 58.406021 -9.551331 35,000 8 508 -64
2021-08-03 13:57:05 GMT 58.388168 -9.556422 34,975 8 508 -64
2021-08-03 13:57:02 GMT 58.382374 -9.558105 35,000 8 508 -64
2021-08-03 13:56:55 GMT 58.364731 -9.563232 34,975 8 508 -64
2021-08-03 13:56:52 GMT 58.358963 -9.564928 35,000 8 508 -64
2021-08-03 13:56:45 GMT 58.342010 -9.569824 35,000 8 508 -64
2021-08-03 13:56:42 GMT 58.335960 -9.571655 35,000 8 508 -64
2021-08-03 13:56:34 GMT 58.316711 -9.577243 35,000 8 508 0
2021-08-03 13:56:32 GMT 58.311844 -9.578705 35,000 8 508 -64
2021-08-03 13:56:25 GMT 58.294922 -9.583622 34,975 8 508 0
2021-08-03 13:56:22 GMT 58.289337 -9.585217 35,000 8 508 0
2021-08-03 13:56:15 GMT 58.271759 -9.590356 35,000 8 508 0
2021-08-03 13:56:11 GMT 58.264801 -9.592393 34,975 8 508 -64
2021-08-03 13:56:05 GMT 58.249054 -9.597001 34,975 8 507 -64
2021-08-03 13:56:01 GMT 58.241413 -9.599213 35,000 8 507 0
2021-08-03 13:55:54 GMT 58.224014 -9.604266 35,000 8 507 -64
2021-08-03 13:55:51 GMT 58.217762 -9.606079 35,000 8 507 -64
2021-08-03 13:55:45 GMT 58.202728 -9.610468 35,000 8 507 -64
2021-08-03 13:55:41 GMT 58.193695 -9.613129 35,000 8 507 0
2021-08-03 13:55:35 GMT 58.178890 -9.617340 35,000 8 507 0
2021-08-03 13:55:30 GMT 58.169403 -9.620125 35,000 8 507 0
2021-08-03 13:55:25 GMT 58.155533 -9.624112 34,975 8 507 -64
2021-08-03 13:55:21 GMT 58.148117 -9.626238 35,000 8 506 0
2021-08-03 13:55:15 GMT 58.133331 -9.630403 35,000 8 506 -64
2021-08-03 13:55:11 GMT 58.124542 -9.632972 35,000 8 506 0
2021-08-03 13:55:05 GMT 58.110214 -9.637048 35,000 8 506 0
2021-08-03 13:55:01 GMT 58.100967 -9.639706 34,975 8 506 0
2021-08-03 13:54:55 GMT 58.086182 -9.643870 35,000 8 506 0
2021-08-03 13:54:50 GMT 58.077641 -9.646362 35,000 8 506 0
2021-08-03 13:54:45 GMT 58.063816 -9.650299 35,000 8 506 0
2021-08-03 13:54:40 GMT 58.054085 -9.653137 35,000 8 506 0
2021-08-03 13:54:34 GMT 58.039795 -9.657257 35,000 8 506 -64
2021-08-03 13:54:30 GMT 58.029373 -9.660261 35,000 8 506 -64
2021-08-03 13:54:24 GMT 58.017635 -9.663666 34,975 8 506 0
2021-08-03 13:54:20 GMT 58.007217 -9.666640 34,975 8 506 0
2021-08-03 13:54:14 GMT 57.994080 -9.670441 34,975 8 506 -64
2021-08-03 13:54:10 GMT 57.983688 -9.673462 34,975 8 506 -64
2021-08-03 13:54:04 GMT 57.970524 -9.677307 35,000 8 505 0
2021-08-03 13:54:00 GMT 57.960617 -9.680195 34,975 8 505 -64
2021-08-03 13:53:54 GMT 57.947250 -9.684005 34,975 8 505 0
2021-08-03 13:53:50 GMT 57.937332 -9.686920 35,000 8 506 -64
2021-08-03 13:53:43 GMT 57.923264 -9.691005 35,000 8 506 0
2021-08-03 13:53:39 GMT 57.913101 -9.694017 35,000 8 506 0
2021-08-03 13:53:34 GMT 57.901348 -9.697449 34,975 8 506 0
2021-08-03 13:53:29 GMT 57.889851 -9.700836 34,975 8 506 0
2021-08-03 13:53:24 GMT 57.878082 -9.704206 34,975 8 505 -64
2021-08-03 13:53:19 GMT 57.865631 -9.707838 34,975 8 504 -64
2021-08-03 13:53:14 GMT 57.854843 -9.710999 35,000 8 504 -64
2021-08-03 13:53:09 GMT 57.842831 -9.714386 35,000 8 504 -64
2021-08-03 13:53:03 GMT 57.830868 -9.717865 34,975 8 504 -64
2021-08-03 13:52:58 GMT 57.819370 -9.721161 35,000 8 504 -64
2021-08-03 13:52:53 GMT 57.807873 -9.724457 35,000 8 504 -64
2021-08-03 13:52:48 GMT 57.794769 -9.728216 35,000 8 504 -64
2021-08-03 13:52:44 GMT 57.786484 -9.730609 35,000 8 503 -64
2021-08-03 13:52:37 GMT 57.770416 -9.735216 35,000 8 503 0
2021-08-03 13:52:34 GMT 57.763275 -9.737274 35,000 8 502 64
2021-08-03 13:52:27 GMT 57.747940 -9.741683 35,000 8 502 64
2021-08-03 13:52:24 GMT 57.740372 -9.743866 34,975 8 502 64
2021-08-03 13:52:17 GMT 57.724548 -9.748478 34,975 8 502 64
2021-08-03 13:52:14 GMT 57.717224 -9.750624 34,975 8 502 0
2021-08-03 13:52:07 GMT 57.700699 -9.755430 34,975 8 504 -64
2021-08-03 13:52:04 GMT 57.693832 -9.757404 34,975 8 504 -64
2021-08-03 13:51:58 GMT 57.681667 -9.760998 35,000 9 504 -64
2021-08-03 13:51:54 GMT 57.671310 -9.764099 35,000 8 505 -64
2021-08-03 13:51:48 GMT 57.657944 -9.768047 35,000 9 506 -64
2021-08-03 13:51:44 GMT 57.647827 -9.771051 35,000 9 506 -64
2021-08-03 13:51:38 GMT 57.635162 -9.774820 35,000 9 506 -64
2021-08-03 13:51:34 GMT 57.625214 -9.777832 35,000 9 506 -64
2021-08-03 13:51:28 GMT 57.611847 -9.781866 35,000 9 506 -64
2021-08-03 13:51:24 GMT 57.602188 -9.784784 35,000 9 506 0
2021-08-03 13:51:18 GMT 57.587860 -9.789076 35,000 9 506 0
2021-08-03 13:51:14 GMT 57.578415 -9.791919 35,000 9 506 0
2021-08-03 13:51:08 GMT 57.565056 -9.795906 34,975 9 506 0
2021-08-03 13:51:03 GMT 57.554905 -9.799007 35,000 9 506 0
2021-08-03 13:50:57 GMT 57.541080 -9.803083 35,000 8 506 0
2021-08-03 13:50:53 GMT 57.531860 -9.805741 34,975 8 506 0
2021-08-03 13:50:51 GMT 57.525146 -9.807701 35,000 8 506 0
2021-08-03 13:50:47 GMT 57.517776 -9.809761 34,975 8 506 64
2021-08-03 13:50:44 GMT 57.509445 -9.811907 34,975 7 505 0
2021-08-03 13:50:40 GMT 57.501835 -9.813803 34,975 0 504 -64
2021-08-03 13:50:37 GMT 57.494659 -9.815340 34,975 5 505 -64
2021-08-03 13:50:33 GMT 57.484192 -9.817170 34,975 4 504 -64
2021-08-03 13:50:27 GMT 57.470737 -9.818411 35,000 0 504 -64
2021-08-03 13:50:24 GMT 57.463291 -9.818499 35,000 0 503 -64
2021-08-03 13:50:20 GMT 57.454025 -9.818056 35,000 358 502 -64
2021-08-03 13:50:17 GMT 57.447090 -9.817347 35,000 356 502 -64
2021-08-03 13:50:14 GMT 57.439453 -9.816284 35,000 356 501 0
2021-08-03 13:50:04 GMT 57.416180 -9.812297 35,000 355 502 -64
2021-08-03 13:49:57 GMT 57.400959 -9.809728 35,000 355 501 -64
2021-08-03 13:49:54 GMT 57.393600 -9.808487 35,000 355 501 -64
2021-08-03 13:49:47 GMT 57.377960 -9.805741 35,000 355 501 -64
2021-08-03 13:49:43 GMT 57.369415 -9.804268 34,975 355 501 0
2021-08-03 13:49:37 GMT 57.354721 -9.801779 34,975 355 500 0
2021-08-03 13:49:33 GMT 57.345978 -9.800234 35,000 355 500 -64
2021-08-03 13:49:27 GMT 57.331284 -9.797659 35,000 355 500 -64
2021-08-03 13:49:23 GMT 57.322540 -9.796200 35,000 355 500 -64
2021-08-03 13:49:14 GMT 57.301437 -9.792509 35,000 355 500 0
2021-08-03 13:49:12 GMT 57.298916 -9.792097 34,975 355 500 0
2021-08-03 13:49:04 GMT 57.278248 -9.788553 34,975 355 500 0
2021-08-03 13:49:02 GMT 57.274841 -9.787960 35,000 355 499 0
2021-08-03 13:48:54 GMT 57.255341 -9.784654 35,000 355 499 -64
2021-08-03 13:48:52 GMT 57.251907 -9.784012 35,000 355 499 -64
2021-08-03 13:48:44 GMT 57.232635 -9.780664 34,975 355 499 -64
2021-08-03 13:48:39 GMT 57.221825 -9.778807 35,000 355 499 -64
2021-08-03 13:48:34 GMT 57.208786 -9.776630 35,000 355 500 -64
2021-08-03 13:48:31 GMT 57.204414 -9.775883 35,000 355 500 -64
2021-08-03 13:48:24 GMT 57.186722 -9.772940 35,000 355 500 -64
2021-08-03 13:48:21 GMT 57.180313 -9.771824 35,000 355 499 -64
2021-08-03 13:48:16 GMT 57.168613 -9.769947 35,000 355 499 -64
2021-08-03 13:48:12 GMT 57.162415 -9.768906 35,000 355 499 0
2021-08-03 13:48:10 GMT 57.156921 -9.768047 35,000 356 499 -64
2021-08-03 13:48:06 GMT 57.145664 -9.766226 35,000 356 499 0
2021-08-03 13:48:03 GMT 57.139938 -9.765301 35,000 356 499 0
2021-08-03 13:48:00 GMT 57.132816 -9.764188 35,000 356 499 0
2021-08-03 13:47:56 GMT 57.122498 -9.762554 35,000 356 498 0
2021-08-03 13:47:53 GMT 57.116756 -9.761618 35,000 356 498 0
2021-08-03 13:47:50 GMT 57.109634 -9.760494 35,000 355 498 0
2021-08-03 13:47:43 GMT 57.094273 -9.757897 34,975 355 499 0
2021-08-03 13:47:40 GMT 57.086243 -9.756460 34,975 355 498 64
2021-08-03 13:47:33 GMT 57.071415 -9.753379 35,000 353 498 0
2021-08-03 13:47:30 GMT 57.063175 -9.751341 34,975 352 498 0
2021-08-03 13:47:25 GMT 57.052326 -9.748063 34,975 350 498 -64
2021-08-03 13:47:22 GMT 57.043533 -9.744787 35,000 347 497 0
2021-08-03 13:47:19 GMT 57.039963 -9.743242 34,975 347 497 0
2021-08-03 13:47:13 GMT 57.026489 -9.736456 34,975 343 496 -64
2021-08-03 13:47:09 GMT 57.016296 -9.730196 35,000 340 495 -64
2021-08-03 13:47:03 GMT 57.004807 -9.721956 35,000 337 494 -64
2021-08-03 13:46:59 GMT 56.995441 -9.714306 34,975 335 493 -64
2021-08-03 13:46:53 GMT 56.983711 -9.703231 35,000 331 493 -64
2021-08-03 13:46:48 GMT 56.975052 -9.694017 35,000 329 492 -64
2021-08-03 13:46:43 GMT 56.964981 -9.682045 35,000 326 491 0
2021-08-03 13:46:38 GMT 56.955639 -9.669741 35,000 322 489 0
2021-08-03 13:46:33 GMT 56.947037 -9.657068 34,975 320 488 -64
2021-08-03 13:46:28 GMT 56.938614 -9.643335 34,975 317 487 0
2021-08-03 13:46:23 GMT 56.930779 -9.629251 34,975 314 486 0
2021-08-03 13:46:20 GMT 56.925285 -9.618442 34,975 312 484 0
2021-08-03 13:46:17 GMT 56.922028 -9.611708 34,975 311 483 -64
2021-08-03 13:46:13 GMT 56.915791 -9.597798 34,975 308 483 -64
2021-08-03 13:46:10 GMT 56.911377 -9.587116 34,975 306 482 -64
2021-08-03 13:46:07 GMT 56.908539 -9.579821 34,975 305 481 -64
2021-08-03 13:46:03 GMT 56.902908 -9.564285 35,000 302 480 -64
2021-08-03 13:45:57 GMT 56.896591 -9.544716 35,000 299 479 -64
2021-08-03 13:45:53 GMT 56.891830 -9.528322 35,000 297 478 -64
2021-08-03 13:45:51 GMT 56.889023 -9.517793 35,000 295 477 -64
2021-08-03 13:45:47 GMT 56.886200 -9.506435 34,975 294 477 0
2021-08-03 13:45:43 GMT 56.882858 -9.492445 34,975 294 477 -64
2021-08-03 13:45:41 GMT 56.881062 -9.484657 34,975 294 477 -64
2021-08-03 13:45:36 GMT 56.876816 -9.466524 35,000 294 477 -64
2021-08-03 13:45:33 GMT 56.874126 -9.455064 35,000 294 477 -64
2021-08-03 13:45:30 GMT 56.871826 -9.445152 35,000 294 477 -64
2021-08-03 13:45:26 GMT 56.868633 -9.431497 35,000 294 477 -64
2021-08-03 13:45:23 GMT 56.865738 -9.419231 35,000 294 477 -64
2021-08-03 13:45:21 GMT 56.863174 -9.408159 35,000 294 476 -64
2021-08-03 13:45:16 GMT 56.859695 -9.393396 35,000 294 476 0
2021-08-03 13:45:13 GMT 56.856853 -9.381261 34,975 294 476 -64
2021-08-03 13:45:09 GMT 56.853836 -9.368334 34,975 294 476 -64
2021-08-03 13:45:03 GMT 56.848335 -9.345112 34,975 294 475 -64
2021-08-03 13:45:00 GMT 56.845322 -9.332199 35,000 294 475 -64
2021-08-03 13:44:53 GMT 56.839417 -9.307222 35,000 294 475 0
2021-08-03 13:44:50 GMT 56.836304 -9.294004 35,000 294 475 0
2021-08-03 13:44:43 GMT 56.830948 -9.271173 35,000 294 475 -64
2021-08-03 13:44:40 GMT 56.828224 -9.259791 35,000 294 475 0
2021-08-03 13:44:37 GMT 56.825912 -9.249887 35,000 294 475 0
2021-08-03 13:44:33 GMT 56.822067 -9.233751 35,000 294 475 -64
2021-08-03 13:44:27 GMT 56.817333 -9.213542 34,975 294 475 -64
2021-08-03 13:44:23 GMT 56.813515 -9.197329 35,000 294 475 -64
2021-08-03 13:44:20 GMT 56.810989 -9.186716 35,000 294 475 0
2021-08-03 13:44:12 GMT 56.804485 -9.159142 35,000 294 475 0
2021-08-03 13:44:09 GMT 56.801605 -9.147062 34,975 294 475 64
2021-08-03 13:44:03 GMT 56.793961 -9.114704 34,975 294 475 64
2021-08-03 13:44:00 GMT 56.793961 -9.114704 34,975 294 476 0
2021-08-03 13:43:57 GMT 56.790115 -9.098568 34,975 294 476 -64
2021-08-03 13:43:53 GMT 56.784897 -9.076509 34,975 294 477 -64
2021-08-03 13:43:50 GMT 56.784897 -9.076509 34,975 294 477 -64
2021-08-03 13:43:45 GMT 56.779716 -9.054772 35,000 294 478 -64
2021-08-03 13:43:41 GMT 56.776039 -9.039267 35,000 294 478 -64
2021-08-03 13:43:36 GMT 56.772949 -9.026384 35,000 294 479 -64
2021-08-03 13:43:33 GMT 56.769848 -9.013485 35,000 294 479 -64
2021-08-03 13:43:30 GMT 56.766907 -9.001322 35,000 294 479 -64
2021-08-03 13:43:23 GMT 56.760544 -8.974800 35,000 294 478 0
2021-08-03 13:43:20 GMT 56.758026 -8.964046 34,975 294 478 -64
2021-08-03 13:43:13 GMT 56.752121 -8.939352 34,975 294 478 0
2021-08-03 13:43:10 GMT 56.749367 -8.927898 35,000 294 479 -64
2021-08-03 13:43:03 GMT 56.743286 -8.902445 35,000 294 479 -64
2021-08-03 13:43:00 GMT 56.740334 -8.890243 34,975 294 480 -64
2021-08-03 13:42:57 GMT 56.738297 -8.881760 35,000 294 480 -64
2021-08-03 13:42:53 GMT 56.733257 -8.860739 35,000 294 480 -64
2021-08-03 13:42:48 GMT 56.729782 -8.846397 35,000 294 480 -64
2021-08-03 13:42:43 GMT 56.725342 -8.827858 35,000 294 480 -64
2021-08-03 13:42:40 GMT 56.722687 -8.816786 35,000 294 480 -64
2021-08-03 13:42:37 GMT 56.720085 -8.806074 35,000 294 480 -64
2021-08-03 13:42:33 GMT 56.716129 -8.789860 35,000 294 480 0
2021-08-03 13:42:31 GMT 56.715363 -8.786573 35,000 294 480 -64
2021-08-03 13:42:27 GMT 56.711792 -8.771811 35,000 294 480 0
2021-08-03 13:42:23 GMT 56.707306 -8.753357 34,975 294 480 0
2021-08-03 13:42:20 GMT 56.704422 -8.741512 35,000 294 480 0
2021-08-03 13:42:17 GMT 56.702133 -8.731985 34,975 294 480 -64
2021-08-03 13:42:13 GMT 56.698437 -8.716854 34,975 294 480 0
2021-08-03 13:42:11 GMT 56.696915 -8.710613 35,000 294 480 0
2021-08-03 13:42:08 GMT 56.693459 -8.696210 34,975 294 480 0
2021-08-03 13:42:03 GMT 56.689224 -8.678856 34,975 294 480 -64
2021-08-03 13:42:01 GMT 56.687916 -8.673352 34,975 294 480 -64
2021-08-03 13:41:57 GMT 56.684418 -8.658943 34,975 294 480 -64
2021-08-03 13:41:53 GMT 56.680664 -8.643494 35,000 294 481 -64
2021-08-03 13:41:50 GMT 56.678421 -8.634191 35,000 294 482 -64
2021-08-03 13:41:47 GMT 56.674976 -8.620192 35,000 294 482 -64
2021-08-03 13:41:43 GMT 56.671509 -8.605814 35,000 294 482 -64
2021-08-03 13:41:40 GMT 56.669762 -8.598751 35,000 294 482 -64
2021-08-03 13:41:37 GMT 56.663292 -8.572171 34,975 294 482 -64
2021-08-03 13:41:34 GMT 56.663292 -8.572171 35,000 294 482 0
2021-08-03 13:41:29 GMT 56.659149 -8.555160 35,000 294 483 -64
2021-08-03 13:41:24 GMT 56.653561 -8.532213 35,000 294 483 -64
2021-08-03 13:41:20 GMT 56.651234 -8.522555 35,000 294 483 -64
2021-08-03 13:41:17 GMT 56.648621 -8.511829 35,000 294 483 -64
2021-08-03 13:41:14 GMT 56.645275 -8.498191 35,000 294 483 -64
2021-08-03 13:41:11 GMT 56.642761 -8.487824 35,000 294 482 -64
2021-08-03 13:41:08 GMT 56.639690 -8.475243 35,000 294 483 -64
2021-08-03 13:41:04 GMT 56.636307 -8.461618 35,000 294 482 -64
2021-08-03 13:41:02 GMT 56.635311 -8.457523 35,000 294 482 64
2021-08-03 13:41:00 GMT 56.633057 -8.448315 35,000 294 482 64
2021-08-03 13:40:57 GMT 56.630905 -8.439388 35,000 294 482 0
2021-08-03 13:40:54 GMT 56.627167 -8.424299 34,975 294 482 64
2021-08-03 13:40:51 GMT 56.624725 -8.414326 34,975 294 482 64
2021-08-03 13:40:48 GMT 56.618134 -8.387353 34,975 295 483 0
2021-08-03 13:40:44 GMT 56.615574 -8.377075 34,975 295 483 0
2021-08-03 13:40:41 GMT 56.615574 -8.377075 34,975 295 483 0
2021-08-03 13:40:38 GMT 56.612961 -8.366346 34,975 295 483 0
2021-08-03 13:40:33 GMT 56.608795 -8.349352 34,975 295 483 -64
2021-08-03 13:40:31 GMT 56.605938 -8.337914 34,975 295 483 -64
2021-08-03 13:40:28 GMT 56.601936 -8.321612 35,000 295 484 -64
2021-08-03 13:40:22 GMT 56.598770 -8.308668 35,000 295 485 0
2021-08-03 13:40:18 GMT 56.594742 -8.292446 35,000 295 485 -64
2021-08-03 13:40:15 GMT 56.592361 -8.282776 35,000 295 485 -64
2021-08-03 13:40:12 GMT 56.589737 -8.272104 35,000 295 485 -64
2021-08-03 13:40:10 GMT 56.587418 -8.262801 35,000 295 485 0
2021-08-03 13:40:06 GMT 56.580460 -8.234669 34,975 295 485 -64
2021-08-03 13:40:02 GMT 56.580460 -8.234669 34,975 295 485 0
2021-08-03 13:40:00 GMT 56.577713 -8.223600 35,000 295 485 0
2021-08-03 13:39:56 GMT 56.574471 -8.210564 34,975 295 486 0
2021-08-03 13:39:51 GMT 56.569244 -8.189475 34,975 295 485 -64
2021-08-03 13:39:48 GMT 56.566975 -8.180180 35,000 295 485 -64
2021-08-03 13:39:45 GMT 56.565113 -8.172798 35,000 295 486 -64
2021-08-03 13:39:42 GMT 56.562180 -8.160954 35,000 295 486 -64
2021-08-03 13:39:39 GMT 56.558872 -8.147650 35,000 295 486 -64
2021-08-03 13:39:35 GMT 56.555466 -8.133878 35,000 295 486 -64
2021-08-03 13:39:32 GMT 56.553146 -8.124647 35,000 295 486 -64
2021-08-03 13:39:29 GMT 56.549286 -8.109112 34,975 295 486 -64
2021-08-03 13:39:26 GMT 56.547050 -8.100185 34,975 295 486 0
2021-08-03 13:39:22 GMT 56.543743 -8.086882 34,975 295 486 -64
2021-08-03 13:39:19 GMT 56.540863 -8.075367 34,975 295 486 -64
2021-08-03 13:39:16 GMT 56.534409 -8.049483 34,975 295 486 -64
2021-08-03 13:39:12 GMT 56.534409 -8.049483 34,975 295 486 0
2021-08-03 13:39:09 GMT 56.531361 -8.037271 35,000 295 486 -64
2021-08-03 13:39:06 GMT 56.528614 -8.026199 34,975 295 486 0
2021-08-03 13:39:02 GMT 56.525124 -8.012209 35,000 295 486 0
2021-08-03 13:38:57 GMT 56.519772 -7.990751 35,000 295 485 -64
2021-08-03 13:38:52 GMT 56.515594 -7.974160 35,000 295 485 -64
2021-08-03 13:38:48 GMT 56.509323 -7.949108 35,000 295 485 0
2021-08-03 13:38:45 GMT 56.509323 -7.949108 35,000 295 485 -64
2021-08-03 13:38:42 GMT 56.506454 -7.937622 35,000 295 485 -64
2021-08-03 13:38:38 GMT 56.503235 -7.924721 35,000 295 485 -64
2021-08-03 13:38:35 GMT 56.500172 -7.912560 35,000 295 484 -64
2021-08-03 13:38:32 GMT 56.493328 -7.885351 35,000 295 484 -64
2021-08-03 13:38:28 GMT 56.493328 -7.885351 35,000 295 484 -64
2021-08-03 13:38:25 GMT 56.491379 -7.877613 35,000 295 484 -64
2021-08-03 13:38:22 GMT 56.488159 -7.864752 34,975 295 484 -64
2021-08-03 13:38:18 GMT 56.484810 -7.851534 35,000 295 484 0
2021-08-03 13:38:15 GMT 56.481457 -7.838316 35,000 295 483 0
2021-08-03 13:38:12 GMT 56.478897 -7.828016 35,000 295 483 0
2021-08-03 13:38:08 GMT 56.475548 -7.814798 35,000 295 483 64
2021-08-03 13:38:05 GMT 56.472473 -7.802707 34,975 295 483 0
2021-08-03 13:38:02 GMT 56.469448 -7.790594 34,975 295 483 0
2021-08-03 13:38:00 GMT 56.467957 -7.784758 34,975 295 483 0
2021-08-03 13:37:56 GMT 56.464420 -7.770767 34,975 295 483 0
2021-08-03 13:37:53 GMT 56.458786 -7.748441 34,975 295 483 0
2021-08-03 13:37:51 GMT 56.458786 -7.748441 35,000 295 482 -64
2021-08-03 13:37:48 GMT 56.456543 -7.739618 34,975 295 482 0
2021-08-03 13:37:45 GMT 56.453854 -7.729053 34,975 295 483 0
2021-08-03 13:37:42 GMT 56.451004 -7.717729 34,975 295 483 0
2021-08-03 13:37:40 GMT 56.449127 -7.710405 34,975 295 482 -64
2021-08-03 13:37:35 GMT 56.444138 -7.690596 34,975 295 483 0
2021-08-03 13:37:32 GMT 56.441422 -7.679958 35,000 295 483 -64
2021-08-03 13:37:29 GMT 56.438553 -7.668623 34,975 295 483 -64
2021-08-03 13:37:26 GMT 56.435650 -7.657299 34,975 295 484 -64
2021-08-03 13:37:22 GMT 56.432419 -7.644487 35,000 295 483 -64
2021-08-03 13:37:18 GMT 56.427933 -7.626925 34,975 295 483 0
2021-08-03 13:37:15 GMT 56.425735 -7.618186 35,000 295 483 -64
2021-08-03 13:37:12 GMT 56.423222 -7.608290 34,975 295 484 -64
2021-08-03 13:37:10 GMT 56.421360 -7.600994 35,000 295 484 -64
2021-08-03 13:37:05 GMT 56.415958 -7.579708 34,975 295 484 -64
2021-08-03 13:37:02 GMT 56.413910 -7.571726 35,000 295 484 -64
2021-08-03 13:37:00 GMT 56.412048 -7.564344 35,000 295 484 -64
2021-08-03 13:36:55 GMT 56.406876 -7.544278 35,000 295 484 -64
2021-08-03 13:36:52 GMT 56.404266 -7.534041 35,000 295 484 -64
2021-08-03 13:36:49 GMT 56.401760 -7.524090 35,000 295 484 -64
2021-08-03 13:36:46 GMT 56.399414 -7.514981 35,000 295 484 -64
2021-08-03 13:36:43 GMT 56.395756 -7.500744 35,000 295 484 0
2021-08-03 13:36:41 GMT 56.394196 -7.494507 35,000 295 484 0
2021-08-03 13:36:38 GMT 56.391472 -7.483921 35,000 295 484 -64
2021-08-03 13:36:35 GMT 56.388382 -7.471868 34,975 295 484 -64
2021-08-03 13:36:33 GMT 56.386585 -7.464867 34,975 295 484 -64
2021-08-03 13:36:31 GMT 56.383850 -7.454307 34,975 295 483 -64
2021-08-03 13:36:27 GMT 56.381058 -7.443321 34,975 295 483 -64
2021-08-03 13:36:24 GMT 56.378532 -7.433453 34,975 295 483 0
2021-08-03 13:36:22 GMT 56.376251 -7.424698 34,975 295 483 -64
2021-08-03 13:36:20 GMT 56.373917 -7.415605 35,000 295 483 -64
2021-08-03 13:36:16 GMT 56.370850 -7.403498 35,000 295 483 -64
2021-08-03 13:36:13 GMT 56.367451 -7.390366 34,975 295 483 -64
2021-08-03 13:36:11 GMT 56.366150 -7.385302 35,000 295 483 -64
2021-08-03 13:36:08 GMT 56.359955 -7.361183 35,000 295 483 -64
2021-08-03 13:36:05 GMT 56.359955 -7.361183 35,000 295 483 -64
2021-08-03 13:36:02 GMT 56.357536 -7.351742 35,000 295 484 -64
2021-08-03 13:35:59 GMT 56.354694 -7.340755 35,000 295 484 -64
2021-08-03 13:35:54 GMT 56.350662 -7.325051 35,000 295 484 -64
2021-08-03 13:35:52 GMT 56.347824 -7.314148 35,000 295 483 -64
2021-08-03 13:35:49 GMT 56.345581 -7.305409 34,975 295 483 -64
2021-08-03 13:35:46 GMT 56.342194 -7.292342 34,975 296 483 0
2021-08-03 13:35:43 GMT 56.337845 -7.275613 35,000 296 483 0
2021-08-03 13:35:38 GMT 56.335190 -7.265375 34,975 296 483 0
2021-08-03 13:35:34 GMT 56.331802 -7.252308 34,975 296 483 0
2021-08-03 13:35:32 GMT 56.329044 -7.241793 34,975 296 483 0
2021-08-03 13:35:29 GMT 56.326019 -7.230120 34,975 296 483 -64
2021-08-03 13:35:25 GMT 56.322807 -7.217760 35,000 296 483 -64
2021-08-03 13:35:22 GMT 56.319351 -7.204368 34,975 296 483 -64
2021-08-03 13:35:18 GMT 56.316330 -7.192716 35,000 296 482 0
2021-08-03 13:35:15 GMT 56.313492 -7.181813 35,000 296 482 -64
2021-08-03 13:35:12 GMT 56.310104 -7.168746 34,975 296 482 0
2021-08-03 13:35:07 GMT 56.304886 -7.148838 35,000 296 482 -64
2021-08-03 13:35:04 GMT 56.303467 -7.143360 34,975 296 482 -64
2021-08-03 13:35:02 GMT 56.301590 -7.136119 34,975 296 482 -64
2021-08-03 13:35:00 GMT 56.299019 -7.126350 35,000 296 482 -64
2021-08-03 13:34:57 GMT 56.296783 -7.117596 34,975 296 482 -64
2021-08-03 13:34:54 GMT 56.293571 -7.105322 34,975 296 482 -64
2021-08-03 13:34:52 GMT 56.292160 -7.099915 34,975 296 482 -64
2021-08-03 13:34:50 GMT 56.289383 -7.089357 35,000 296 481 -64
2021-08-03 13:34:47 GMT 56.286777 -7.079229 35,000 296 481 -64
2021-08-03 13:34:44 GMT 56.284424 -7.070202 35,000 296 481 -64
2021-08-03 13:34:42 GMT 56.282635 -7.063351 35,000 296 481 -64
2021-08-03 13:34:39 GMT 56.278931 -7.049228 35,000 296 481 -64
2021-08-03 13:34:36 GMT 56.276768 -7.040949 35,000 296 481 -64
2021-08-03 13:34:33 GMT 56.273483 -7.028254 35,000 296 481 0
2021-08-03 13:34:30 GMT 56.267551 -7.005501 35,000 296 480 0
2021-08-03 13:34:27 GMT 56.267551 -7.005501 34,975 296 480 0
2021-08-03 13:34:24 GMT 56.264053 -6.992132 34,975 296 480 0
2021-08-03 13:34:21 GMT 56.262543 -6.986389 35,000 296 480 0
2021-08-03 13:34:19 GMT 56.260147 -6.977348 35,000 296 480 0
2021-08-03 13:34:16 GMT 56.255447 -6.959324 35,000 296 480 0
2021-08-03 13:34:13 GMT 56.255447 -6.959324 35,000 296 480 0
2021-08-03 13:34:11 GMT 56.253113 -6.950351 34,975 296 480 -64
2021-08-03 13:34:08 GMT 56.250187 -6.939154 35,000 296 480 0
2021-08-03 13:34:04 GMT 56.246704 -6.925798 35,000 296 480 -64
2021-08-03 13:34:01 GMT 56.243622 -6.913919 35,000 296 480 -64
2021-08-03 13:33:57 GMT 56.238098 -6.892672 35,000 296 479 0
2021-08-03 13:33:54 GMT 56.236771 -6.887679 35,000 296 479 0
2021-08-03 13:33:51 GMT 56.233986 -6.877270 35,000 297 480 0
2021-08-03 13:33:48 GMT 56.231140 -6.866954 34,975 297 480 0
2021-08-03 13:33:44 GMT 56.224026 -6.841736 35,000 297 480 0
2021-08-03 13:33:41 GMT 56.224026 -6.841736 34,975 298 480 0
2021-08-03 13:33:38 GMT 56.221138 -6.831865 34,975 299 480 -64
2021-08-03 13:33:35 GMT 56.217602 -6.819935 34,975 299 480 0
2021-08-03 13:33:32 GMT 56.214981 -6.811191 34,975 299 481 -64
2021-08-03 13:33:30 GMT 56.211777 -6.800704 34,975 300 480 -64
2021-08-03 13:33:27 GMT 56.210083 -6.795127 34,975 300 480 -64
2021-08-03 13:33:24 GMT 56.206009 -6.782341 34,975 300 481 -64
2021-08-03 13:33:20 GMT 56.198318 -6.758589 35,000 302 481 -64
2021-08-03 13:33:17 GMT 56.198318 -6.758589 35,000 302 481 -64
2021-08-03 13:33:14 GMT 56.194092 -6.746035 35,000 302 481 -64
2021-08-03 13:33:11 GMT 56.190216 -6.734786 35,000 302 481 -64
2021-08-03 13:33:08 GMT 56.187527 -6.727066 35,000 303 481 -64
2021-08-03 13:33:05 GMT 56.180637 -6.707497 35,000 303 481 0
2021-08-03 13:33:02 GMT 56.180637 -6.707497 35,000 303 481 0
2021-08-03 13:33:00 GMT 56.178215 -6.700802 35,000 303 481 0
2021-08-03 13:32:57 GMT 56.173702 -6.688013 34,975 303 481 0
2021-08-03 13:32:54 GMT 56.171326 -6.681318 34,975 303 481 0
2021-08-03 13:32:51 GMT 56.167648 -6.670948 35,000 303 481 0
2021-08-03 13:32:48 GMT 56.164669 -6.662521 34,975 303 481 0
2021-08-03 13:32:45 GMT 56.156982 -6.640653 35,000 303 480 0
2021-08-03 13:32:42 GMT 56.156982 -6.640653 34,975 303 480 0
2021-08-03 13:32:40 GMT 56.154602 -6.633994 35,000 303 480 0
2021-08-03 13:32:37 GMT 56.151031 -6.623924 35,000 303 480 0
2021-08-03 13:32:34 GMT 56.144279 -6.604757 35,000 303 480 0
2021-08-03 13:32:31 GMT 56.144279 -6.604757 35,000 303 481 -64
2021-08-03 13:32:28 GMT 56.139252 -6.590681 34,975 303 481 0
2021-08-03 13:32:25 GMT 56.136879 -6.583986 35,000 303 481 0
2021-08-03 13:32:22 GMT 56.130688 -6.566563 35,000 303 480 0
2021-08-03 13:32:20 GMT 56.130688 -6.566563 35,000 303 481 0
2021-08-03 13:32:17 GMT 56.127380 -6.557207 34,975 303 480 0
2021-08-03 13:32:14 GMT 56.123566 -6.546478 34,975 303 480 0
2021-08-03 13:32:11 GMT 56.119858 -6.536116 34,975 303 481 0
2021-08-03 13:32:08 GMT 56.116161 -6.525707 34,975 303 481 -64
2021-08-03 13:32:05 GMT 56.112858 -6.516352 34,975 303 481 -64
2021-08-03 13:32:02 GMT 56.109039 -6.505623 34,975 303 481 -64
2021-08-03 13:31:57 GMT 56.103313 -6.489573 35,000 303 481 -64
2021-08-03 13:31:54 GMT 56.099499 -6.478844 35,000 303 481 -64
2021-08-03 13:31:51 GMT 56.096191 -6.469488 35,000 303 481 -64
2021-08-03 13:31:48 GMT 56.092941 -6.460460 35,000 303 481 -64
2021-08-03 13:31:45 GMT 56.088558 -6.448030 35,000 303 481 -64
2021-08-03 13:31:42 GMT 56.085114 -6.438321 35,000 303 481 -64
2021-08-03 13:31:40 GMT 56.083878 -6.434992 35,000 303 481 -64
2021-08-03 13:31:37 GMT 56.074860 -6.409524 35,000 303 481 -64
2021-08-03 13:31:34 GMT 56.074860 -6.409524 35,000 303 480 -64
2021-08-03 13:31:31 GMT 56.071243 -6.399536 35,000 303 480 -64
2021-08-03 13:31:28 GMT 56.068539 -6.391811 34,975 303 480 -64
2021-08-03 13:31:24 GMT 56.062580 -6.375074 34,975 303 480 0
2021-08-03 13:31:21 GMT 56.056686 -6.358754 35,000 303 480 0
2021-08-03 13:31:18 GMT 56.053116 -6.348766 35,000 303 480 0
2021-08-03 13:31:15 GMT 56.053116 -6.348766 35,000 303 480 0
2021-08-03 13:31:12 GMT 56.049404 -6.338425 34,975 303 480 0
2021-08-03 13:31:10 GMT 56.047497 -6.333103 35,000 303 480 0
2021-08-03 13:31:07 GMT 56.040939 -6.314725 35,000 303 480 0
2021-08-03 13:31:04 GMT 56.037369 -6.304737 34,975 303 480 0
2021-08-03 13:31:02 GMT 56.037369 -6.304737 35,000 303 480 0
2021-08-03 13:30:58 GMT 56.029266 -6.282016 34,975 303 480 0
2021-08-03 13:30:55 GMT 56.029266 -6.282016 34,975 303 480 -64
2021-08-03 13:30:52 GMT 56.025467 -6.271362 34,975 303 480 -64
2021-08-03 13:30:50 GMT 56.023544 -6.266036 34,975 303 480 -64
2021-08-03 13:30:47 GMT 56.020432 -6.257380 34,975 303 480 -64
2021-08-03 13:30:44 GMT 56.016129 -6.245395 34,975 303 480 -64
2021-08-03 13:30:42 GMT 56.013748 -6.238736 35,000 303 480 -64
2021-08-03 13:30:40 GMT 56.007065 -6.220093 35,000 303 480 -64
2021-08-03 13:30:37 GMT 56.007065 -6.220093 35,000 303 480 -64
2021-08-03 13:30:34 GMT 56.004227 -6.212019 35,000 303 480 -64
2021-08-03 13:30:32 GMT 56.001389 -6.204029 35,000 303 480 0
2021-08-03 13:30:30 GMT 55.999596 -6.199036 35,000 303 480 -64
2021-08-03 13:30:27 GMT 55.995895 -6.188715 34,975 303 480 0
2021-08-03 13:30:24 GMT 55.992096 -6.178062 34,975 303 479 0
2021-08-03 13:30:21 GMT 55.988888 -6.169081 35,000 303 479 -64
2021-08-03 13:30:18 GMT 55.985538 -6.159725 35,000 303 479 0
2021-08-03 13:30:15 GMT 55.981155 -6.147433 35,000 303 479 -64
2021-08-03 13:30:13 GMT 55.979233 -6.142106 34,975 303 479 -64
2021-08-03 13:30:10 GMT 55.975662 -6.132202 34,975 303 479 -64
2021-08-03 13:30:07 GMT 55.972321 -6.122880 35,000 303 479 -64
2021-08-03 13:30:04 GMT 55.967663 -6.109943 35,000 303 479 -64
2021-08-03 13:30:00 GMT 55.963028 -6.096996 35,000 303 478 -64
2021-08-03 13:29:57 GMT 55.960419 -6.089672 35,000 303 478 0
2021-08-03 13:29:54 GMT 55.956894 -6.079684 35,000 303 478 0
2021-08-03 13:29:51 GMT 55.952763 -6.068058 35,000 303 478 -64
2021-08-03 13:29:48 GMT 55.949570 -6.059043 35,000 303 478 0
2021-08-03 13:29:45 GMT 55.945736 -6.048059 35,000 302 477 0
2021-08-03 13:29:43 GMT 55.943405 -6.041365 34,975 302 478 0
2021-08-03 13:29:40 GMT 55.939915 -6.031322 34,975 302 477 0
2021-08-03 13:29:37 GMT 55.937073 -6.022921 34,975 301 477 0
2021-08-03 13:29:34 GMT 55.933582 -6.012440 34,975 300 477 -64
2021-08-03 13:29:31 GMT 55.929859 -6.000853 34,975 300 477 0
2021-08-03 13:29:29 GMT 55.925034 -5.985468 34,975 299 477 0
2021-08-03 13:29:26 GMT 55.925034 -5.985468 34,975 299 476 0
2021-08-03 13:29:23 GMT 55.921806 -5.974674 35,000 298 476 -64
2021-08-03 13:29:20 GMT 55.915104 -5.951757 34,975 298 476 -64
2021-08-03 13:29:17 GMT 55.915104 -5.951757 35,000 298 477 -64
2021-08-03 13:29:14 GMT 55.912636 -5.943432 35,000 298 477 -64
2021-08-03 13:29:11 GMT 55.910213 -5.935106 35,000 298 477 -64
2021-08-03 13:29:09 GMT 55.907684 -5.926375 35,000 298 477 -64
2021-08-03 13:29:06 GMT 55.904720 -5.916309 35,000 298 477 -64
2021-08-03 13:29:03 GMT 55.900440 -5.901718 35,000 298 477 -64
2021-08-03 13:29:00 GMT 55.898579 -5.895452 35,000 298 477 0
2021-08-03 13:28:57 GMT 55.894901 -5.882921 35,000 298 477 0
2021-08-03 13:28:54 GMT 55.889282 -5.863786 35,000 298 477 -64
2021-08-03 13:28:51 GMT 55.889282 -5.863786 35,000 298 477 0
2021-08-03 13:28:49 GMT 55.887222 -5.856878 35,000 298 477 0
2021-08-03 13:28:46 GMT 55.884052 -5.846100 35,000 298 478 -64
2021-08-03 13:28:43 GMT 55.881027 -5.835629 34,975 298 478 0
2021-08-03 13:28:40 GMT 55.875412 -5.816512 35,000 298 477 0
2021-08-03 13:28:37 GMT 55.875412 -5.816512 34,975 298 477 0
2021-08-03 13:28:34 GMT 55.872345 -5.806108 34,975 298 477 0
2021-08-03 13:28:31 GMT 55.868969 -5.794687 34,975 298 477 -64
2021-08-03 13:28:29 GMT 55.867035 -5.788047 34,975 298 477 0
2021-08-03 13:28:26 GMT 55.862961 -5.774231 34,975 298 477 0
2021-08-03 13:28:23 GMT 55.859753 -5.763445 34,975 298 478 0
2021-08-03 13:28:20 GMT 55.857517 -5.755806 34,975 298 478 0
2021-08-03 13:28:17 GMT 55.854633 -5.746107 34,975 298 478 0
2021-08-03 13:28:14 GMT 55.851559 -5.735636 34,975 298 478 -64
2021-08-03 13:28:12 GMT 55.849594 -5.729037 34,975 298 478 -64
2021-08-03 13:28:09 GMT 55.846020 -5.716925 35,000 298 478 -64
2021-08-03 13:28:06 GMT 55.843132 -5.707226 34,975 298 478 -64
2021-08-03 13:28:03 GMT 55.840576 -5.698492 35,000 298 478 -64
2021-08-03 13:28:00 GMT 55.837593 -5.688429 35,000 298 479 -64
2021-08-03 13:27:57 GMT 55.833916 -5.675898 35,000 298 479 -64
2021-08-03 13:27:54 GMT 55.830734 -5.665117 35,000 298 479 -64
2021-08-03 13:27:52 GMT 55.828674 -5.658209 35,000 298 479 -64
2021-08-03 13:27:50 GMT 55.826702 -5.651608 35,000 298 478 -64
2021-08-03 13:27:47 GMT 55.819904 -5.628691 35,000 298 478 -64
2021-08-03 13:27:44 GMT 55.819904 -5.628691 35,000 298 478 -64
2021-08-03 13:27:41 GMT 55.817734 -5.621421 35,000 298 478 -64
2021-08-03 13:27:39 GMT 55.815807 -5.614872 35,000 298 478 0
2021-08-03 13:27:36 GMT 55.809082 -5.592291 35,000 298 478 -64
2021-08-03 13:27:33 GMT 55.809082 -5.592291 35,000 298 478 -64
2021-08-03 13:27:30 GMT 55.805519 -5.580196 35,000 298 478 0
2021-08-03 13:27:27 GMT 55.803051 -5.571871 35,000 298 478 0
2021-08-03 13:27:24 GMT 55.799747 -5.560799 35,000 298 478 0
2021-08-03 13:27:22 GMT 55.797775 -5.554171 35,000 298 478 0
2021-08-03 13:27:20 GMT 55.796127 -5.548678 35,000 298 477 0
2021-08-03 13:27:17 GMT 55.792191 -5.535528 34,975 298 477 64
2021-08-03 13:27:14 GMT 55.789227 -5.525436 34,975 298 477 64
2021-08-03 13:27:12 GMT 55.787659 -5.520297 34,975 298 477 64
2021-08-03 13:27:10 GMT 55.785316 -5.512390 34,975 298 477 0
2021-08-03 13:27:07 GMT 55.782303 -5.502319 34,975 298 477 0
2021-08-03 13:27:04 GMT 55.779007 -5.491250 34,975 298 477 0
2021-08-03 13:27:01 GMT 55.776352 -5.482261 34,975 298 477 -64
2021-08-03 13:26:59 GMT 55.774376 -5.475740 34,975 298 477 0
2021-08-03 13:26:56 GMT 55.771362 -5.465698 34,975 298 477 0
2021-08-03 13:26:53 GMT 55.767654 -5.453297 34,975 298 477 0
2021-08-03 13:26:50 GMT 55.761703 -5.433239 35,000 298 477 -64
2021-08-03 13:26:47 GMT 55.761703 -5.433239 35,000 298 477 -64
2021-08-03 13:26:44 GMT 55.758690 -5.423212 35,000 298 477 -64
2021-08-03 13:26:41 GMT 55.755707 -5.413180 35,000 298 477 -64
2021-08-03 13:26:39 GMT 55.753647 -5.406272 35,000 298 477 -64
2021-08-03 13:26:36 GMT 55.751286 -5.398321 35,000 298 478 -64
2021-08-03 13:26:34 GMT 55.748062 -5.387629 35,000 298 478 -64
2021-08-03 13:26:32 GMT 55.745888 -5.380383 35,000 298 478 -64
2021-08-03 13:26:29 GMT 55.743420 -5.372057 35,000 298 478 -64
2021-08-03 13:26:26 GMT 55.740417 -5.362077 35,000 298 478 0
2021-08-03 13:26:23 GMT 55.736069 -5.347512 35,000 299 479 0
2021-08-03 13:26:20 GMT 55.732666 -5.336094 35,000 299 479 0
2021-08-03 13:26:17 GMT 55.730572 -5.329227 35,000 299 478 -64
2021-08-03 13:26:13 GMT 55.727264 -5.318155 34,975 299 479 0
2021-08-03 13:26:11 GMT 55.724380 -5.308542 34,975 299 478 -64
2021-08-03 13:26:09 GMT 55.719166 -5.291204 34,975 299 478 0
2021-08-03 13:26:06 GMT 55.716885 -5.283651 35,000 299 479 -64
2021-08-03 13:26:03 GMT 55.716885 -5.283651 35,000 299 479 -64
2021-08-03 13:26:01 GMT 55.713997 -5.273952 35,000 299 479 -64
2021-08-03 13:25:58 GMT 55.711250 -5.265026 35,000 299 479 -64
2021-08-03 13:25:55 GMT 55.707714 -5.253267 34,975 299 479 0
2021-08-03 13:25:52 GMT 55.704712 -5.243225 34,975 299 478 -64
2021-08-03 13:25:50 GMT 55.702126 -5.234642 34,975 299 478 0
2021-08-03 13:25:47 GMT 55.699612 -5.226316 35,000 299 478 -64
2021-08-03 13:25:44 GMT 55.695740 -5.213595 35,000 299 478 -64
2021-08-03 13:25:41 GMT 55.692722 -5.203571 35,000 299 478 -64
2021-08-03 13:25:37 GMT 55.688873 -5.190790 34,975 299 478 0
2021-08-03 13:25:34 GMT 55.685715 -5.180470 35,000 299 478 -64
2021-08-03 13:25:31 GMT 55.682484 -5.169754 34,975 299 478 0
2021-08-03 13:25:29 GMT 55.680908 -5.164573 34,975 299 479 0
2021-08-03 13:25:26 GMT 55.677689 -5.153875 35,000 299 478 -64
2021-08-03 13:25:23 GMT 55.674568 -5.143490 35,000 299 479 0
2021-08-03 13:25:21 GMT 55.672165 -5.135609 34,975 299 479 0
2021-08-03 13:25:19 GMT 55.670517 -5.130116 35,000 299 478 -64
2021-08-03 13:25:16 GMT 55.667358 -5.119712 34,975 299 478 -64
2021-08-03 13:25:14 GMT 55.665165 -5.112505 35,000 299 479 -64
2021-08-03 13:25:11 GMT 55.662552 -5.103898 35,000 299 479 -64
2021-08-03 13:25:09 GMT 55.659950 -5.095253 34,975 299 479 -64
2021-08-03 13:25:06 GMT 55.656509 -5.083923 35,000 299 479 -64
2021-08-03 13:25:03 GMT 55.653763 -5.074935 34,975 299 479 -64
2021-08-03 13:25:00 GMT 55.651291 -5.066695 35,000 299 479 -64
2021-08-03 13:24:58 GMT 55.648773 -5.058455 35,000 299 479 0
2021-08-03 13:24:55 GMT 55.645706 -5.048389 35,000 299 479 0
2021-08-03 13:24:53 GMT 55.642914 -5.039146 35,000 299 479 -64
2021-08-03 13:24:49 GMT 55.639526 -5.028076 35,000 299 479 0
2021-08-03 13:24:46 GMT 55.635544 -5.015009 35,000 299 479 -64
2021-08-03 13:24:43 GMT 55.632950 -5.006418 35,000 299 478 -64
2021-08-03 13:24:41 GMT 55.630856 -4.999552 34,975 299 478 -64
2021-08-03 13:24:39 GMT 55.628342 -4.991312 34,975 299 478 0
2021-08-03 13:24:36 GMT 55.624153 -4.977579 35,000 299 478 0
2021-08-03 13:24:33 GMT 55.621490 -4.968983 35,000 299 478 0
2021-08-03 13:24:30 GMT 55.618378 -4.958746 34,975 299 478 0
2021-08-03 13:24:26 GMT 55.611351 -4.935694 35,000 299 478 0
2021-08-03 13:24:23 GMT 55.611351 -4.935694 35,000 299 478 0
2021-08-03 13:24:21 GMT 55.609772 -4.930531 34,975 299 478 0
2021-08-03 13:24:19 GMT 55.608078 -4.925038 34,975 299 478 0
2021-08-03 13:24:16 GMT 55.604324 -4.912720 34,975 299 478 0
2021-08-03 13:24:13 GMT 55.601166 -4.902482 35,000 299 478 0
2021-08-03 13:24:11 GMT 55.599201 -4.895954 34,975 299 478 0
2021-08-03 13:24:09 GMT 55.596268 -4.886341 34,975 299 478 -64
2021-08-03 13:24:06 GMT 55.593941 -4.878788 34,975 299 478 0
2021-08-03 13:24:03 GMT 55.588806 -4.862033 35,000 299 477 0
2021-08-03 13:23:59 GMT 55.584229 -4.846968 34,975 299 477 0
2021-08-03 13:23:56 GMT 55.584229 -4.846968 35,000 299 477 0
2021-08-03 13:23:53 GMT 55.578552 -4.828491 34,975 299 477 0
2021-08-03 13:23:49 GMT 55.576035 -4.820251 35,000 299 477 -64
2021-08-03 13:23:46 GMT 55.571823 -4.806602 35,000 299 477 0
2021-08-03 13:23:43 GMT 55.569824 -4.800081 34,975 299 477 -64
2021-08-03 13:23:41 GMT 55.563400 -4.779219 34,975 299 477 -64
2021-08-03 13:23:38 GMT 55.561295 -4.772394 35,000 299 477 -64
2021-08-03 13:23:35 GMT 55.559189 -4.765570 35,000 299 477 -64
2021-08-03 13:23:33 GMT 55.559189 -4.765570 35,000 299 477 -64
2021-08-03 13:23:31 GMT 55.557209 -4.759054 35,000 299 477 -64
2021-08-03 13:23:29 GMT 55.554794 -4.751171 35,000 299 477 -64
2021-08-03 13:23:26 GMT 55.551819 -4.741599 35,000 299 477 0
2021-08-03 13:23:23 GMT 55.548969 -4.732361 35,000 299 478 -64
2021-08-03 13:23:21 GMT 55.544220 -4.716963 35,000 299 478 0
2021-08-03 13:23:19 GMT 55.544220 -4.716963 34,975 299 478 0
2021-08-03 13:23:16 GMT 55.541519 -4.708058 35,000 299 478 0
2021-08-03 13:23:13 GMT 55.538361 -4.697820 34,975 299 478 0
2021-08-03 13:23:11 GMT 55.536354 -4.691334 34,975 299 478 0
2021-08-03 13:23:08 GMT 55.533691 -4.682756 34,975 299 478 0
2021-08-03 13:23:05 GMT 55.529480 -4.669106 34,975 299 477 0
2021-08-03 13:23:03 GMT 55.527279 -4.661980 34,975 299 477 0
2021-08-03 13:23:01 GMT 55.525681 -4.656788 34,975 299 477 0
2021-08-03 13:22:59 GMT 55.523460 -4.649620 34,975 299 477 0
2021-08-03 13:22:56 GMT 55.520645 -4.640392 34,975 299 478 -64
2021-08-03 13:22:53 GMT 55.517075 -4.628823 34,975 299 478 -64
2021-08-03 13:22:51 GMT 55.514847 -4.621639 35,000 299 478 -64
2021-08-03 13:22:49 GMT 55.513046 -4.615839 34,975 299 478 -64
2021-08-03 13:22:45 GMT 55.506729 -4.595365 35,000 299 478 -64
2021-08-03 13:22:43 GMT 55.505219 -4.590621 35,000 299 478 -64
2021-08-03 13:22:39 GMT 55.502518 -4.581715 35,000 299 478 -64
2021-08-03 13:22:36 GMT 55.498901 -4.570146 34,975 299 478 0
2021-08-03 13:22:33 GMT 55.495743 -4.559909 35,000 299 478 -64
2021-08-03 13:22:31 GMT 55.494049 -4.554416 35,000 299 478 -64
2021-08-03 13:22:29 GMT 55.491302 -4.545593 35,000 299 477 -64
2021-08-03 13:22:26 GMT 55.485168 -4.525785 35,000 299 477 -64
2021-08-03 13:22:23 GMT 55.485168 -4.525785 34,975 299 477 -64
2021-08-03 13:22:21 GMT 55.483147 -4.519329 34,975 299 477 -64
2021-08-03 13:22:19 GMT 55.480087 -4.509472 34,975 299 477 0
2021-08-03 13:22:16 GMT 55.478069 -4.503021 35,000 299 477 -64
2021-08-03 13:22:13 GMT 55.474777 -4.492409 35,000 299 477 -64
2021-08-03 13:22:11 GMT 55.472672 -4.485668 35,000 299 477 -64
2021-08-03 13:22:09 GMT 55.470669 -4.479160 34,975 299 477 -64
2021-08-03 13:22:06 GMT 55.467819 -4.470021 34,975 299 477 -64
2021-08-03 13:22:03 GMT 55.461868 -4.450961 34,975 299 477 0
2021-08-03 13:22:01 GMT 55.461868 -4.450961 35,000 299 477 0
2021-08-03 13:21:59 GMT 55.459305 -4.442805 35,000 299 477 -64
2021-08-03 13:21:56 GMT 55.457016 -4.435397 34,975 299 477 -64
2021-08-03 13:21:53 GMT 55.453491 -4.424143 35,000 299 477 -64
2021-08-03 13:21:51 GMT 55.451294 -4.417003 34,975 299 477 -64
2021-08-03 13:21:46 GMT 55.445572 -4.398693 35,000 299 477 -64
2021-08-03 13:21:43 GMT 55.442692 -4.389537 35,000 299 476 -64
2021-08-03 13:21:41 GMT 55.438339 -4.375709 35,000 299 476 0
2021-08-03 13:21:39 GMT 55.438339 -4.375709 35,000 299 476 -64
2021-08-03 13:21:36 GMT 55.435707 -4.367232 35,000 299 476 -64
2021-08-03 13:21:34 GMT 55.433441 -4.360118 35,000 299 476 0
2021-08-03 13:21:31 GMT 55.429981 -4.348921 35,000 299 476 0
2021-08-03 13:21:29 GMT 55.428493 -4.344177 35,000 299 476 0
2021-08-03 13:21:26 GMT 55.421463 -4.321872 34,975 299 476 0
2021-08-03 13:21:23 GMT 55.418716 -4.313049 34,975 299 476 0
2021-08-03 13:21:20 GMT 55.418716 -4.313049 34,975 299 476 0
2021-08-03 13:21:18 GMT 55.416504 -4.305914 34,975 299 476 0
2021-08-03 13:21:15 GMT 55.413643 -4.296820 34,975 299 476 0
2021-08-03 13:21:13 GMT 55.410965 -4.288384 34,975 299 476 -64
2021-08-03 13:21:11 GMT 55.408939 -4.281921 34,975 299 476 0
2021-08-03 13:21:09 GMT 55.406937 -4.275540 34,975 299 476 0
2021-08-03 13:21:06 GMT 55.402496 -4.261322 35,000 299 476 0
2021-08-03 13:21:03 GMT 55.401119 -4.256952 34,975 299 476 -64
2021-08-03 13:21:01 GMT 55.398468 -4.248478 34,975 299 476 -64
2021-08-03 13:20:59 GMT 55.396317 -4.241692 35,000 299 476 0
2021-08-03 13:20:56 GMT 55.392834 -4.230569 35,000 299 476 -64
2021-08-03 13:20:53 GMT 55.389725 -4.220770 35,000 299 476 0
2021-08-03 13:20:51 GMT 55.387390 -4.213257 34,975 299 476 -64
2021-08-03 13:20:49 GMT 55.384735 -4.204851 35,000 299 476 -64
2021-08-03 13:20:46 GMT 55.382721 -4.198393 34,975 299 476 -64
2021-08-03 13:20:44 GMT 55.376865 -4.179798 35,000 299 476 -64
2021-08-03 13:20:41 GMT 55.376865 -4.179798 34,975 300 477 -64
2021-08-03 13:20:39 GMT 55.371826 -4.163899 35,000 300 477 -64
2021-08-03 13:20:36 GMT 55.371826 -4.163899 35,000 300 477 -64
2021-08-03 13:20:34 GMT 55.369602 -4.156827 35,000 300 477 -64
2021-08-03 13:20:31 GMT 55.366810 -4.148005 34,975 300 478 -64
2021-08-03 13:20:29 GMT 55.364017 -4.139266 35,000 299 477 -64
2021-08-03 13:20:26 GMT 55.361271 -4.130443 34,975 299 477 0
2021-08-03 13:20:23 GMT 55.358597 -4.121973 34,975 299 477 -64
2021-08-03 13:20:21 GMT 55.356339 -4.114879 34,975 300 478 -64
2021-08-03 13:20:19 GMT 55.353127 -4.104725 35,000 300 478 -64
2021-08-03 13:20:16 GMT 55.350449 -4.096285 35,000 300 478 -64
2021-08-03 13:20:13 GMT 55.346096 -4.082420 35,000 300 478 -64
2021-08-03 13:20:11 GMT 55.346096 -4.082420 35,000 300 478 -64
2021-08-03 13:20:09 GMT 55.339439 -4.061446 35,000 300 477 -64
2021-08-03 13:20:06 GMT 55.339439 -4.061446 35,000 300 477 -64
2021-08-03 13:20:04 GMT 55.337948 -4.056702 35,000 300 477 -64
2021-08-03 13:20:02 GMT 55.335892 -4.050320 35,000 300 477 -64
2021-08-03 13:20:00 GMT 55.333851 -4.043884 35,000 300 477 -64
2021-08-03 13:19:58 GMT 55.331177 -4.035456 35,000 300 477 -64
2021-08-03 13:19:55 GMT 55.328079 -4.025657 35,000 300 477 -64
2021-08-03 13:19:52 GMT 55.321335 -4.004436 35,000 300 477 -64
2021-08-03 13:19:49 GMT 55.321335 -4.004436 35,000 300 477 0
2021-08-03 13:19:46 GMT 55.318130 -3.994257 35,000 300 477 0
2021-08-03 13:19:44 GMT 55.315979 -3.987552 34,975 300 477 0
2021-08-03 13:19:41 GMT 55.313511 -3.979797 34,975 300 477 0
2021-08-03 13:19:39 GMT 55.307190 -3.959925 34,975 300 477 0
2021-08-03 13:19:36 GMT 55.307190 -3.959925 34,975 300 476 0
2021-08-03 13:19:33 GMT 55.301834 -3.943042 35,000 300 476 -64
2021-08-03 13:19:30 GMT 55.301834 -3.943042 35,000 300 477 -64
2021-08-03 13:19:28 GMT 55.299042 -3.934317 35,000 300 477 -64
2021-08-03 13:19:25 GMT 55.295959 -3.924533 35,000 300 476 -64
2021-08-03 13:19:23 GMT 55.293274 -3.916141 35,000 300 476 -64
2021-08-03 13:19:20 GMT 55.290894 -3.908709 34,975 300 476 -64
2021-08-03 13:19:17 GMT 55.287689 -3.898612 35,000 300 476 -64
2021-08-03 13:19:14 GMT 55.283798 -3.886494 35,000 300 476 -64
2021-08-03 13:19:12 GMT 55.281761 -3.880088 35,000 300 476 -64
2021-08-03 13:19:09 GMT 55.279202 -3.872015 35,000 300 476 0
2021-08-03 13:19:07 GMT 55.276932 -3.865006 35,000 300 476 -64
2021-08-03 13:19:04 GMT 55.272858 -3.852162 35,000 300 476 0
2021-08-03 13:19:02 GMT 55.271347 -3.847477 35,000 300 476 0
2021-08-03 13:19:00 GMT 55.269749 -3.842468 35,000 300 476 0
2021-08-03 13:18:58 GMT 55.266537 -3.832397 35,000 300 476 0
2021-08-03 13:18:55 GMT 55.263840 -3.823969 34,975 300 476 0
2021-08-03 13:18:52 GMT 55.260906 -3.814919 34,975 300 476 0
2021-08-03 13:18:50 GMT 55.258896 -3.808540 34,975 300 476 0
2021-08-03 13:18:48 GMT 55.255783 -3.798773 34,975 300 476 0
2021-08-03 13:18:45 GMT 55.251572 -3.785679 34,975 300 476 0
2021-08-03 13:18:42 GMT 55.249878 -3.780347 34,975 300 476 0
2021-08-03 13:18:40 GMT 55.247726 -3.773642 34,975 300 475 0
2021-08-03 13:18:38 GMT 55.245575 -3.766856 34,975 300 475 -64
2021-08-03 13:18:35 GMT 55.241585 -3.754494 35,000 300 476 -64
2021-08-03 13:18:32 GMT 55.238979 -3.746421 34,975 300 476 -64
2021-08-03 13:18:30 GMT 55.237152 -3.740764 35,000 300 476 -64
2021-08-03 13:18:28 GMT 55.234882 -3.733687 34,975 300 476 0
2021-08-03 13:18:25 GMT 55.231670 -3.723616 34,975 300 476 -64
2021-08-03 13:18:22 GMT 55.228226 -3.712880 35,000 300 476 -64
2021-08-03 13:18:20 GMT 55.223896 -3.699480 35,000 300 476 -64
2021-08-03 13:18:18 GMT 55.223896 -3.699480 34,975 300 476 -64
2021-08-03 13:18:15 GMT 55.220684 -3.689409 35,000 300 476 -64
2021-08-03 13:18:12 GMT 55.217659 -3.680087 35,000 300 476 -64
2021-08-03 13:18:10 GMT 55.215363 -3.672988 35,000 300 476 -64
2021-08-03 13:18:08 GMT 55.212025 -3.662609 35,000 300 476 -64
2021-08-03 13:18:05 GMT 55.209885 -3.655950 35,000 300 476 0
2021-08-03 13:18:02 GMT 55.204559 -3.639544 35,000 300 476 0
2021-08-03 13:18:00 GMT 55.204559 -3.639544 35,000 300 476 0
2021-08-03 13:17:58 GMT 55.201225 -3.629150 34,975 300 476 0
2021-08-03 13:17:55 GMT 55.199799 -3.624761 35,000 300 476 0
2021-08-03 13:17:53 GMT 55.197083 -3.616416 35,000 300 476 0
2021-08-03 13:17:51 GMT 55.194523 -3.608426 35,000 300 476 0
2021-08-03 13:17:48 GMT 55.191788 -3.600042 35,000 300 476 0
2021-08-03 13:17:45 GMT 55.187485 -3.586713 34,975 300 476 0
2021-08-03 13:17:42 GMT 55.185398 -3.580378 35,000 300 476 0
2021-08-03 13:17:40 GMT 55.182606 -3.571639 34,975 300 476 0
2021-08-03 13:17:38 GMT 55.180882 -3.566312 35,000 300 476 -64
2021-08-03 13:17:35 GMT 55.177277 -3.555289 35,000 300 476 -64
2021-08-03 13:17:32 GMT 55.174072 -3.545272 34,975 300 476 0
2021-08-03 13:17:30 GMT 55.172222 -3.539595 34,975 300 476 -64
2021-08-03 13:17:28 GMT 55.165833 -3.519906 34,975 300 476 0
2021-08-03 13:17:25 GMT 55.162910 -3.510881 35,000 300 476 -64
2021-08-03 13:17:22 GMT 55.162910 -3.510881 34,975 300 476 0
2021-08-03 13:17:20 GMT 55.161255 -3.505931 35,000 300 476 0
2021-08-03 13:17:18 GMT 55.158535 -3.497564 34,975 300 476 0
2021-08-03 13:17:15 GMT 55.156265 -3.490583 35,000 300 476 -64
2021-08-03 13:17:12 GMT 55.152145 -3.477900 35,000 300 476 0
2021-08-03 13:17:10 GMT 55.150108 -3.471513 35,000 300 476 -64
2021-08-03 13:17:08 GMT 55.147797 -3.464571 35,000 300 476 -64
2021-08-03 13:17:05 GMT 55.144775 -3.455200 34,975 300 476 -64
2021-08-03 13:17:02 GMT 55.141525 -3.445264 35,000 300 476 -64
2021-08-03 13:17:00 GMT 55.137493 -3.432895 35,000 300 476 -64
2021-08-03 13:16:58 GMT 55.137493 -3.432895 35,000 300 476 0
2021-08-03 13:16:55 GMT 55.133163 -3.419578 35,000 300 476 -64
2021-08-03 13:16:52 GMT 55.130558 -3.411588 35,000 300 475 -64
2021-08-03 13:16:50 GMT 55.128250 -3.404631 35,000 300 475 -64
2021-08-03 13:16:48 GMT 55.126282 -3.398572 35,000 300 475 0
2021-08-03 13:16:45 GMT 55.122925 -3.388283 35,000 300 475 0
2021-08-03 13:16:42 GMT 55.119663 -3.378296 35,000 300 475 0
2021-08-03 13:16:40 GMT 55.117401 -3.371349 34,975 300 475 0
2021-08-03 13:16:38 GMT 55.114220 -3.361650 34,975 300 475 0
2021-08-03 13:16:35 GMT 55.108704 -3.344691 34,975 300 475 0
2021-08-03 13:16:32 GMT 55.108704 -3.344691 34,975 300 475 0
2021-08-03 13:16:30 GMT 55.107048 -3.339761 35,000 300 475 0
2021-08-03 13:16:28 GMT 55.104210 -3.331105 34,975 300 475 0
2021-08-03 13:16:25 GMT 55.101517 -3.322799 34,975 300 475 0
2021-08-03 13:16:23 GMT 55.098679 -3.314155 35,000 300 475 0
2021-08-03 13:16:20 GMT 55.095612 -3.304865 34,975 300 475 0
2021-08-03 13:16:18 GMT 55.094013 -3.299893 34,975 300 475 0
2021-08-03 13:16:15 GMT 55.090393 -3.288951 35,000 300 475 -64
2021-08-03 13:16:12 GMT 55.086914 -3.278288 34,975 300 475 -64
2021-08-03 13:16:10 GMT 55.084843 -3.272011 35,000 300 475 -64
2021-08-03 13:16:08 GMT 55.078979 -3.254034 34,975 300 475 0
2021-08-03 13:16:05 GMT 55.078979 -3.254034 34,975 300 475 0
2021-08-03 13:16:02 GMT 55.074051 -3.239109 35,000 300 475 0
2021-08-03 13:16:00 GMT 55.074051 -3.239109 34,975 300 475 -64
2021-08-03 13:15:58 GMT 55.071762 -3.232144 34,975 300 475 -64
2021-08-03 13:15:55 GMT 55.068504 -3.222240 34,975 300 476 -64
2021-08-03 13:15:52 GMT 55.065125 -3.211885 35,000 300 476 -64
2021-08-03 13:15:50 GMT 55.062824 -3.204928 34,975 300 476 -64
2021-08-03 13:15:47 GMT 55.059219 -3.194033 35,000 300 476 -64
2021-08-03 13:15:44 GMT 55.057022 -3.187408 35,000 300 476 -64
2021-08-03 13:15:42 GMT 55.053772 -3.177392 35,000 300 476 0
2021-08-03 13:15:39 GMT 55.049931 -3.165810 35,000 300 476 -64
2021-08-03 13:15:36 GMT 55.048161 -3.160484 34,975 300 476 0
2021-08-03 13:15:33 GMT 55.040527 -3.137263 35,000 300 476 0
2021-08-03 13:15:30 GMT 55.040527 -3.137263 34,975 300 476 -64
2021-08-03 13:15:27 GMT 55.037109 -3.126984 35,000 300 476 0
2021-08-03 13:15:24 GMT 55.033585 -3.116401 34,975 300 476 0
2021-08-03 13:15:21 GMT 55.031616 -3.110423 35,000 300 476 0
2021-08-03 13:15:19 GMT 55.029236 -3.103153 35,000 300 476 0
2021-08-03 13:15:17 GMT 55.027222 -3.097175 34,975 301 477 0
2021-08-03 13:15:14 GMT 55.022743 -3.083579 34,975 300 476 -64
2021-08-03 13:15:11 GMT 55.020554 -3.076921 34,975 300 476 -64
2021-08-03 13:15:08 GMT 55.016739 -3.065266 35,000 300 476 -64
2021-08-03 13:15:05 GMT 55.013443 -3.055330 35,000 300 476 -64
2021-08-03 13:15:02 GMT 55.006962 -3.035805 35,000 300 476 -64
2021-08-03 13:14:59 GMT 55.006962 -3.035805 35,000 301 477 -64
2021-08-03 13:14:57 GMT 55.005192 -3.030479 35,000 301 477 -64
2021-08-03 13:14:54 GMT 55.002308 -3.021906 35,000 301 477 -64
2021-08-03 13:14:52 GMT 54.999886 -3.014582 34,975 301 477 0
2021-08-03 13:14:50 GMT 54.997463 -3.007258 35,000 301 477 0
2021-08-03 13:14:48 GMT 54.994160 -2.997353 35,000 301 477 -64
2021-08-03 13:14:45 GMT 54.991837 -2.990382 35,000 301 477 -64
2021-08-03 13:14:42 GMT 54.988434 -2.980042 35,000 301 477 0
2021-08-03 13:14:39 GMT 54.985016 -2.969782 34,975 301 477 -64
2021-08-03 13:14:37 GMT 54.982819 -2.963158 35,000 301 477 -64
2021-08-03 13:14:34 GMT 54.979980 -2.954514 35,000 301 477 -64
2021-08-03 13:14:31 GMT 54.973911 -2.936346 35,000 301 477 -64
2021-08-03 13:14:29 GMT 54.973911 -2.936346 35,000 301 477 -64
2021-08-03 13:14:27 GMT 54.971603 -2.929391 35,000 301 477 0
2021-08-03 13:14:24 GMT 54.967621 -2.917436 34,975 301 477 -64
2021-08-03 13:14:21 GMT 54.965195 -2.910165 34,975 301 477 0
2021-08-03 13:14:19 GMT 54.963226 -2.904187 35,000 301 477 -64
2021-08-03 13:14:17 GMT 54.961575 -2.899225 34,975 301 477 0
2021-08-03 13:14:14 GMT 54.957336 -2.886658 34,975 301 477 0
2021-08-03 13:14:11 GMT 54.954266 -2.877336 35,000 301 477 0
2021-08-03 13:14:09 GMT 54.952606 -2.872359 35,000 301 477 0
2021-08-03 13:14:07 GMT 54.950073 -2.864768 34,975 301 477 0
2021-08-03 13:14:04 GMT 54.946655 -2.854507 35,000 301 477 0
2021-08-03 13:14:01 GMT 54.943649 -2.845625 34,975 301 477 -64
2021-08-03 13:13:59 GMT 54.941463 -2.838967 35,000 301 477 0
2021-08-03 13:13:57 GMT 54.939331 -2.832695 34,975 301 477 -64
2021-08-03 13:13:55 GMT 54.936905 -2.825425 34,975 301 477 0
2021-08-03 13:13:52 GMT 54.933151 -2.814196 34,975 301 477 -64
2021-08-03 13:13:49 GMT 54.930496 -2.806199 34,975 301 477 -64
2021-08-03 13:13:47 GMT 54.927731 -2.797935 35,000 301 477 -64
2021-08-03 13:13:44 GMT 54.925076 -2.790028 35,000 301 477 -64
2021-08-03 13:13:42 GMT 54.921726 -2.780124 34,975 301 477 -64
2021-08-03 13:13:40 GMT 54.920189 -2.775463 35,000 301 477 -64
2021-08-03 13:13:38 GMT 54.918549 -2.770493 35,000 301 477 -64
2021-08-03 13:13:36 GMT 54.915848 -2.762577 35,000 301 477 -64
2021-08-03 13:13:33 GMT 54.911636 -2.749975 34,975 301 478 -64
2021-08-03 13:13:30 GMT 54.908878 -2.741755 35,000 301 478 -64
2021-08-03 13:13:27 GMT 54.901657 -2.720247 35,000 301 477 -64
2021-08-03 13:13:24 GMT 54.901657 -2.720247 35,000 301 477 -64
2021-08-03 13:13:21 GMT 54.899460 -2.713704 35,000 301 477 -64
2021-08-03 13:13:19 GMT 54.896759 -2.705706 35,000 301 477 -64
2021-08-03 13:13:17 GMT 54.894562 -2.699163 35,000 301 477 -64
2021-08-03 13:13:15 GMT 54.892319 -2.692539 35,000 301 477 -64
2021-08-03 13:13:12 GMT 54.889091 -2.682994 35,000 301 477 0
2021-08-03 13:13:09 GMT 54.885555 -2.672424 35,000 301 477 -64
2021-08-03 13:13:07 GMT 54.882900 -2.664517 35,000 301 477 -64
2021-08-03 13:13:04 GMT 54.880245 -2.656611 35,000 301 477 -64
2021-08-03 13:13:01 GMT 54.876984 -2.647059 35,000 301 477 -64
2021-08-03 13:12:58 GMT 54.873230 -2.635830 35,000 301 476 0
2021-08-03 13:12:55 GMT 54.869659 -2.625329 35,000 301 476 0
2021-08-03 13:12:53 GMT 54.867462 -2.618704 35,000 301 476 0
2021-08-03 13:12:50 GMT 54.865116 -2.611833 35,000 301 476 0
2021-08-03 13:12:48 GMT 54.862793 -2.604891 34,975 301 476 0
2021-08-03 13:12:46 GMT 54.861115 -2.600014 34,975 301 476 0
2021-08-03 13:12:44 GMT 54.858459 -2.592108 35,000 301 475 0
2021-08-03 13:12:42 GMT 54.856339 -2.585826 35,000 301 475 0
2021-08-03 13:12:39 GMT 54.853043 -2.575971 35,000 301 476 0
2021-08-03 13:12:37 GMT 54.849472 -2.565469 34,975 301 476 0
2021-08-03 13:12:34 GMT 54.846817 -2.557553 34,975 301 476 0
2021-08-03 13:12:31 GMT 54.843563 -2.548079 34,975 301 476 -64
2021-08-03 13:12:28 GMT 54.839264 -2.535257 34,975 301 476 -64
2021-08-03 13:12:25 GMT 54.836380 -2.526694 34,975 301 476 0
2021-08-03 13:12:22 GMT 54.833603 -2.518532 34,975 301 476 -64
2021-08-03 13:12:19 GMT 54.830902 -2.510626 34,975 301 476 -64
2021-08-03 13:12:17 GMT 54.827366 -2.500139 34,975 301 476 -64
2021-08-03 13:12:14 GMT 54.823471 -2.488646 35,000 301 476 -64
2021-08-03 13:12:11 GMT 54.821125 -2.481745 35,000 301 476 -64
2021-08-03 13:12:09 GMT 54.819359 -2.476501 35,000 301 476 -64
2021-08-03 13:12:07 GMT 54.817123 -2.469926 35,000 301 476 -64
2021-08-03 13:12:04 GMT 54.813118 -2.458108 35,000 301 476 -64
2021-08-03 13:12:01 GMT 54.810333 -2.449951 35,000 301 475 -64
2021-08-03 13:11:59 GMT 54.808231 -2.443709 35,000 301 476 -64
2021-08-03 13:11:57 GMT 54.805344 -2.435136 35,000 301 476 -64
2021-08-03 13:11:54 GMT 54.799107 -2.416826 35,000 301 475 -64
2021-08-03 13:11:51 GMT 54.799107 -2.416826 35,000 301 475 -64
2021-08-03 13:11:49 GMT 54.797012 -2.410610 35,000 301 475 0
2021-08-03 13:11:47 GMT 54.791656 -2.394858 35,000 301 474 0
2021-08-03 13:11:44 GMT 54.791656 -2.394858 34,975 301 473 0
2021-08-03 13:11:42 GMT 54.789001 -2.387022 34,975 301 474 64
2021-08-03 13:11:39 GMT 54.785793 -2.377541 34,975 301 474 64
2021-08-03 13:11:37 GMT 54.783691 -2.371350 34,975 301 473 0
2021-08-03 13:11:34 GMT 54.779205 -2.358345 34,975 301 473 -64
2021-08-03 13:11:31 GMT 54.776203 -2.349576 34,975 301 473 0
2021-08-03 13:11:28 GMT 54.773438 -2.341380 34,975 301 473 0
2021-08-03 13:11:24 GMT 54.769127 -2.328685 35,000 301 473 0
2021-08-03 13:11:21 GMT 54.765354 -2.317616 34,975 301 473 0
2021-08-03 13:11:19 GMT 54.763355 -2.311790 34,975 301 473 0
2021-08-03 13:11:17 GMT 54.761120 -2.305298 34,975 301 473 0
2021-08-03 13:11:14 GMT 54.754120 -2.284833 35,000 301 472 -64
2021-08-03 13:11:11 GMT 54.754120 -2.284833 35,000 301 473 0
2021-08-03 13:11:08 GMT 54.750690 -2.274753 34,975 301 473 -64
2021-08-03 13:11:06 GMT 54.749577 -2.271507 35,000 301 472 -64
2021-08-03 13:11:03 GMT 54.745926 -2.260760 35,000 301 472 -64
2021-08-03 13:11:00 GMT 54.743153 -2.252613 35,000 301 472 -64
2021-08-03 13:10:58 GMT 54.740387 -2.244523 34,975 301 472 -64
2021-08-03 13:10:56 GMT 54.737610 -2.236384 35,000 301 473 -64
2021-08-03 13:10:53 GMT 54.734619 -2.227640 35,000 301 473 -64
2021-08-03 13:10:50 GMT 54.731918 -2.219885 35,000 301 473 -64
2021-08-03 13:10:48 GMT 54.729263 -2.212129 35,000 301 472 -64
2021-08-03 13:10:46 GMT 54.726486 -2.204007 34,975 301 472 0
2021-08-03 13:10:43 GMT 54.722809 -2.193307 34,975 301 472 0
2021-08-03 13:10:40 GMT 54.720665 -2.187195 34,975 301 472 0
2021-08-03 13:10:38 GMT 54.717781 -2.178705 34,975 301 472 0
2021-08-03 13:10:36 GMT 54.716011 -2.173545 34,975 301 472 0
2021-08-03 13:10:33 GMT 54.712555 -2.163499 34,975 301 472 0
2021-08-03 13:10:30 GMT 54.709671 -2.155098 34,975 301 472 0
2021-08-03 13:10:28 GMT 54.706970 -2.147342 34,975 301 472 0
2021-08-03 13:10:26 GMT 54.703533 -2.137340 34,975 301 472 64
2021-08-03 13:10:23 GMT 54.700058 -2.127309 34,975 301 472 -64
2021-08-03 13:10:20 GMT 54.698414 -2.122442 34,975 301 472 0
2021-08-03 13:10:18 GMT 54.695618 -2.114383 34,975 301 472 0
2021-08-03 13:10:16 GMT 54.693249 -2.107544 34,975 301 472 0
2021-08-03 13:10:13 GMT 54.689575 -2.096935 34,975 301 472 0
2021-08-03 13:10:10 GMT 54.686775 -2.088817 34,975 301 472 -64
2021-08-03 13:10:07 GMT 54.682774 -2.077165 34,975 301 472 -64
2021-08-03 13:10:04 GMT 54.679001 -2.066179 35,000 301 472 -64
2021-08-03 13:10:01 GMT 54.676849 -2.060017 35,000 301 473 -64
2021-08-03 13:09:58 GMT 54.673965 -2.051616 34,975 301 473 -64
2021-08-03 13:09:56 GMT 54.671265 -2.043861 35,000 301 473 -64
2021-08-03 13:09:53 GMT 54.668015 -2.034468 35,000 301 473 -64
2021-08-03 13:09:50 GMT 54.664536 -2.024473 35,000 301 473 -64
2021-08-03 13:09:48 GMT 54.662430 -2.018322 35,000 301 473 -64
2021-08-03 13:09:46 GMT 54.656708 -2.001854 35,000 301 473 -64
2021-08-03 13:09:43 GMT 54.656708 -2.001854 35,000 301 473 -64
2021-08-03 13:09:40 GMT 54.652679 -1.990222 35,000 301 473 0
2021-08-03 13:09:37 GMT 54.647625 -1.975708 35,000 301 472 -64
2021-08-03 13:09:33 GMT 54.644924 -1.967968 35,000 301 471 0
2021-08-03 13:09:30 GMT 54.641922 -1.959202 35,000 301 471 0
2021-08-03 13:09:27 GMT 54.638580 -1.949589 35,000 301 471 0
2021-08-03 13:09:25 GMT 54.637024 -1.945065 35,000 301 471 0
2021-08-03 13:09:23 GMT 54.633568 -1.935092 35,000 301 470 0
2021-08-03 13:09:20 GMT 54.630215 -1.925437 35,000 301 470 -64
2021-08-03 13:09:17 GMT 54.627281 -1.917114 35,000 301 470 0
2021-08-03 13:09:14 GMT 54.623383 -1.905886 35,000 301 470 0
2021-08-03 13:09:11 GMT 54.617569 -1.889164 35,000 301 470 -64
2021-08-03 13:09:08 GMT 54.617569 -1.889164 35,000 301 470 -64
2021-08-03 13:09:06 GMT 54.615692 -1.883739 35,000 301 470 0
2021-08-03 13:09:04 GMT 54.613037 -1.876082 35,000 301 470 0
2021-08-03 13:09:01 GMT 54.609684 -1.866427 35,000 302 469 64
2021-08-03 13:08:58 GMT 54.602516 -1.846036 35,000 302 469 0
2021-08-03 13:08:55 GMT 54.602516 -1.846036 35,000 302 469 0
2021-08-03 13:08:52 GMT 54.599396 -1.837047 35,000 302 469 0
2021-08-03 13:08:49 GMT 54.595161 -1.824896 34,975 301 468 -64
2021-08-03 13:08:46 GMT 54.592926 -1.818570 34,975 301 468 -64
2021-08-03 13:08:43 GMT 54.586269 -1.799344 34,975 301 468 0
2021-08-03 13:08:40 GMT 54.586269 -1.799344 35,000 301 468 -64
2021-08-03 13:08:38 GMT 54.583969 -1.792629 35,000 301 468 -64
2021-08-03 13:08:36 GMT 54.581314 -1.784955 35,000 301 468 0
2021-08-03 13:08:33 GMT 54.578819 -1.777538 35,000 301 468 0
2021-08-03 13:08:30 GMT 54.574677 -1.765729 35,000 303 468 -64
2021-08-03 13:08:27 GMT 54.572662 -1.760074 35,000 303 468 -64
2021-08-03 13:08:25 GMT 54.569870 -1.752481 35,000 303 468 0
2021-08-03 13:08:23 GMT 54.567032 -1.745049 34,975 305 468 0
2021-08-03 13:08:20 GMT 54.563187 -1.735113 35,000 305 469 -64
2021-08-03 13:08:18 GMT 54.560760 -1.728973 35,000 306 468 -64
2021-08-03 13:08:15 GMT 54.557510 -1.721057 35,000 306 469 0
2021-08-03 13:08:13 GMT 54.555080 -1.715365 34,975 307 468 -64
2021-08-03 13:08:10 GMT 54.550472 -1.704545 35,000 308 469 -64
2021-08-03 13:08:07 GMT 54.547817 -1.698636 34,975 308 469 -64
2021-08-03 13:08:05 GMT 54.544373 -1.690979 35,000 309 469 -64
2021-08-03 13:08:03 GMT 54.537140 -1.675657 35,000 316 470 -64
2021-08-03 13:08:00 GMT 54.537140 -1.675657 35,000 310 469 -64
2021-08-03 13:07:57 GMT 54.534225 -1.669672 35,000 311 470 -64
2021-08-03 13:07:55 GMT 54.528545 -1.658353 34,975 312 470 -64
2021-08-03 13:07:53 GMT 54.528545 -1.658353 35,000 313 470 -64
2021-08-03 13:07:50 GMT 54.523052 -1.647866 35,000 313 469 -64
2021-08-03 13:07:48 GMT 54.519928 -1.642052 34,975 314 469 -64
2021-08-03 13:07:46 GMT 54.516815 -1.636380 35,000 315 470 0
2021-08-03 13:07:44 GMT 54.513786 -1.631054 35,000 315 470 64
2021-08-03 13:07:41 GMT 54.510315 -1.624926 35,000 316 470 0
2021-08-03 13:07:38 GMT 54.504894 -1.615739 34,975 316 470 0
2021-08-03 13:07:36 GMT 54.501171 -1.609497 34,975 316 470 0
2021-08-03 13:07:33 GMT 54.498230 -1.604489 34,975 316 470 0
2021-08-03 13:07:30 GMT 54.491581 -1.593267 34,975 316 470 0
2021-08-03 13:07:27 GMT 54.488022 -1.587282 35,000 316 470 0
2021-08-03 13:07:24 GMT 54.482925 -1.578702 35,000 316 470 0
2021-08-03 13:07:21 GMT 54.477661 -1.569796 34,975 316 470 0
2021-08-03 13:07:18 GMT 54.473938 -1.563554 34,975 316 470 0
2021-08-03 13:07:16 GMT 54.471588 -1.559655 35,000 316 470 -64
2021-08-03 13:07:13 GMT 54.466816 -1.551569 34,975 316 470 -64
2021-08-03 13:07:10 GMT 54.462162 -1.543746 35,000 316 470 -64
2021-08-03 13:07:07 GMT 54.457180 -1.535423 34,975 316 470 -64
2021-08-03 13:07:05 GMT 54.454834 -1.531543 34,975 316 470 -64
2021-08-03 13:07:03 GMT 54.450943 -1.525019 34,975 316 470 -64
2021-08-03 13:07:00 GMT 54.444534 -1.514336 35,000 316 470 -64
2021-08-03 13:06:57 GMT 54.441422 -1.509166 34,975 316 471 -64
2021-08-03 13:06:55 GMT 54.437393 -1.502380 35,000 316 471 0
2021-08-03 13:06:52 GMT 54.434280 -1.497210 35,000 316 471 0
2021-08-03 13:06:49 GMT 54.425858 -1.483154 34,975 316 471 -64
2021-08-03 13:06:47 GMT 54.425858 -1.483154 35,000 316 471 0
2021-08-03 13:06:45 GMT 54.422745 -1.477903 35,000 316 471 0
2021-08-03 13:06:42 GMT 54.417610 -1.469338 34,975 316 471 0
2021-08-03 13:06:39 GMT 54.413727 -1.462797 34,975 316 471 0
2021-08-03 13:06:37 GMT 54.406113 -1.450112 34,975 316 470 0
2021-08-03 13:06:34 GMT 54.406113 -1.450112 34,975 316 470 0
2021-08-03 13:06:32 GMT 54.402992 -1.444869 34,975 316 470 0
2021-08-03 13:06:29 GMT 54.393635 -1.429305 35,000 316 470 0
2021-08-03 13:06:27 GMT 54.389740 -1.422810 34,975 316 470 0
2021-08-03 13:06:24 GMT 54.385712 -1.416025 34,975 316 470 0
2021-08-03 13:06:21 GMT 54.385712 -1.416025 34,975 316 470 -64
2021-08-03 13:06:18 GMT 54.381363 -1.408754 35,000 316 470 -64
2021-08-03 13:06:15 GMT 54.376373 -1.400514 35,000 316 470 -64
2021-08-03 13:06:13 GMT 54.371849 -1.392933 35,000 316 470 -64
2021-08-03 13:06:10 GMT 54.366714 -1.384358 35,000 316 470 -64
2021-08-03 13:06:07 GMT 54.364197 -1.380238 35,000 316 470 -64
2021-08-03 13:06:05 GMT 54.360168 -1.373533 35,000 316 470 -64
2021-08-03 13:06:02 GMT 54.356255 -1.367049 35,000 316 470 -64
2021-08-03 13:05:59 GMT 54.350994 -1.358226 35,000 316 470 -64
2021-08-03 13:05:56 GMT 54.347225 -1.351984 35,000 316 470 -64
2021-08-03 13:05:54 GMT 54.344151 -1.346824 35,000 316 470 -64
2021-08-03 13:05:52 GMT 54.335587 -1.332577 35,000 316 470 0
2021-08-03 13:05:49 GMT 54.335587 -1.332577 35,000 316 470 0
2021-08-03 13:05:47 GMT 54.333260 -1.328680 35,000 316 470 0
2021-08-03 13:05:44 GMT 54.327805 -1.319652 35,000 316 469 0
2021-08-03 13:05:42 GMT 54.325157 -1.315197 35,000 316 469 0
2021-08-03 13:05:39 GMT 54.320023 -1.306727 35,000 316 469 0
2021-08-03 13:05:36 GMT 54.315948 -1.300022 34,975 316 469 0
2021-08-03 13:05:34 GMT 54.312077 -1.293557 34,975 316 469 0
2021-08-03 13:05:32 GMT 54.307747 -1.286316 34,975 316 469 0
2021-08-03 13:05:29 GMT 54.304459 -1.280877 35,000 316 469 -64
2021-08-03 13:05:27 GMT 54.300903 -1.274913 35,000 316 469 0
2021-08-03 13:05:24 GMT 54.292969 -1.261812 35,000 316 468 0
2021-08-03 13:05:22 GMT 54.292969 -1.261812 34,975 316 468 0
2021-08-03 13:05:19 GMT 54.288754 -1.254855 34,975 316 469 0
2021-08-03 13:05:17 GMT 54.282394 -1.244282 34,975 316 469 0
2021-08-03 13:05:15 GMT 54.282394 -1.244282 34,975 316 469 0
2021-08-03 13:05:13 GMT 54.280048 -1.240456 35,000 316 469 0
2021-08-03 13:05:11 GMT 54.275394 -1.232731 35,000 316 469 0
2021-08-03 13:05:08 GMT 54.270905 -1.225211 35,000 316 469 0
2021-08-03 13:05:05 GMT 54.266411 -1.217786 35,000 316 469 -64
2021-08-03 13:05:02 GMT 54.262032 -1.210596 34,975 316 471 -128
2021-08-03 13:04:59 GMT 54.257538 -1.203081 34,975 316 469 64
2021-08-03 13:04:56 GMT 54.253326 -1.196136 34,975 316 469 64
2021-08-03 13:04:54 GMT 54.247238 -1.186131 34,975 316 470 64
2021-08-03 13:04:52 GMT 54.247238 -1.186131 34,975 316 470 64
2021-08-03 13:04:49 GMT 54.241974 -1.177342 34,975 316 470 64
2021-08-03 13:04:46 GMT 54.237259 -1.169652 34,975 316 470 64
2021-08-03 13:04:44 GMT 54.234615 -1.165278 34,975 316 470 64
2021-08-03 13:04:41 GMT 54.229958 -1.157523 34,975 316 470 0
2021-08-03 13:04:38 GMT 54.225723 -1.150582 34,975 316 470 0
2021-08-03 13:04:36 GMT 54.219177 -1.139753 34,975 317 471 -64
2021-08-03 13:04:34 GMT 54.219177 -1.139753 34,975 317 471 -64
2021-08-03 13:04:31 GMT 54.214317 -1.131753 34,975 316 471 -192
2021-08-03 13:04:28 GMT 54.210266 -1.125048 34,975 316 471 -192
2021-08-03 13:04:26 GMT 54.205719 -1.117545 35,000 316 471 -256
2021-08-03 13:04:23 GMT 54.201050 -1.109855 35,000 317 472 -256
2021-08-03 13:04:20 GMT 54.194138 -1.098476 35,000 317 471 -192
2021-08-03 13:04:18 GMT 54.194138 -1.098476 35,000 317 471 -128
2021-08-03 13:04:15 GMT 54.189598 -1.091039 35,000 317 471 -64
2021-08-03 13:04:13 GMT 54.185669 -1.084586 35,000 317 472 0
2021-08-03 13:04:10 GMT 54.179871 -1.075045 35,000 317 473 384
2021-08-03 13:04:07 GMT 54.175121 -1.067289 34,975 317 473 384
2021-08-03 13:04:04 GMT 54.172165 -1.062456 34,925 317 472 704
2021-08-03 13:04:01 GMT 54.166042 -1.052345 34,925 317 472 896
2021-08-03 13:03:58 GMT 54.162094 -1.045898 34,875 317 472 896
2021-08-03 13:03:55 GMT 54.158661 -1.040248 34,850 317 472 896
2021-08-03 13:03:53 GMT 54.150959 -1.027626 34,800 317 472 960
2021-08-03 13:03:51 GMT 54.150959 -1.027626 34,775 317 472 960
2021-08-03 13:03:48 GMT 54.143280 -1.014980 34,725 317 472 960
2021-08-03 13:03:46 GMT 54.143280 -1.014980 34,675 317 473 960
2021-08-03 13:03:43 GMT 54.138565 -1.007211 34,650 317 473 960
2021-08-03 13:03:40 GMT 54.135597 -1.002341 34,625 317 473 960
2021-08-03 13:03:38 GMT 54.128174 -0.990182 34,525 317 473 960
2021-08-03 13:03:36 GMT 54.128174 -0.990182 34,525 317 473 960
2021-08-03 13:03:33 GMT 54.119209 -0.975521 34,475 317 474 1024
2021-08-03 13:03:30 GMT 54.119209 -0.975521 34,425 317 474 1024
2021-08-03 13:03:28 GMT 54.114182 -0.967201 34,375 317 474 960
2021-08-03 13:03:25 GMT 54.111019 -0.962031 34,350 317 474 960
2021-08-03 13:03:23 GMT 54.108032 -0.957145 34,275 317 474 1024
2021-08-03 13:03:20 GMT 54.098076 -0.940866 34,250 317 475 896
2021-08-03 13:03:17 GMT 54.098076 -0.940866 34,225 317 475 896
2021-08-03 13:03:14 GMT 54.092560 -0.931798 34,175 317 475 896
2021-08-03 13:03:12 GMT 54.090958 -0.929208 34,150 317 475 896
2021-08-03 13:03:10 GMT 54.084000 -0.917751 34,100 317 475 896
2021-08-03 13:03:08 GMT 54.084000 -0.917751 34,100 316 475 832
2021-08-03 13:03:05 GMT 54.079128 -0.909684 34,050 316 475 704
2021-08-03 13:03:03 GMT 54.071869 -0.897728 34,025 316 475 640
2021-08-03 13:03:00 GMT 54.071869 -0.897728 34,000 317 475 384
2021-08-03 13:02:58 GMT 54.063629 -0.884399 34,000 317 475 256
2021-08-03 13:02:55 GMT 54.063629 -0.884399 34,000 318 474 64
2021-08-03 13:02:53 GMT 54.059601 -0.878043 34,000 321 473 0
2021-08-03 13:02:50 GMT 54.055710 -0.872001 34,000 319 474 -64
2021-08-03 13:02:48 GMT 54.050964 -0.864850 34,000 319 474 0
2021-08-03 13:02:45 GMT 54.046078 -0.857418 34,000 320 474 0
2021-08-03 13:02:42 GMT 54.042252 -0.851833 34,000 320 473 0
2021-08-03 13:02:40 GMT 54.039597 -0.847988 34,000 320 474 0
2021-08-03 13:02:38 GMT 54.035416 -0.841989 34,000 321 473 0
2021-08-03 13:02:35 GMT 54.030342 -0.834799 34,000 321 474 0
2021-08-03 13:02:33 GMT 54.027145 -0.830331 34,000 322 473 0
2021-08-03 13:02:30 GMT 54.021500 -0.822682 34,000 322 474 0
2021-08-03 13:02:27 GMT 54.016006 -0.815331 33,975 323 473 0
2021-08-03 13:02:25 GMT 54.010300 -0.807887 33,975 324 473 0
2021-08-03 13:02:21 GMT 54.006088 -0.802551 33,975 326 474 -64
2021-08-03 13:02:18 GMT 53.995514 -0.789446 34,000 325 473 64
2021-08-03 13:02:15 GMT 53.995514 -0.789446 33,975 325 474 64
2021-08-03 13:02:13 GMT 53.992676 -0.785993 33,975 326 473 0
2021-08-03 13:02:11 GMT 53.989059 -0.781756 33,975 326 473 0
2021-08-03 13:02:08 GMT 53.982765 -0.774375 34,000 326 474 0
2021-08-03 13:02:06 GMT 53.978989 -0.769906 33,975 326 474 -64
2021-08-03 13:02:03 GMT 53.969452 -0.758703 33,975 326 474 0
2021-08-03 13:02:00 GMT 53.969452 -0.758703 34,000 326 474 -64
2021-08-03 13:01:58 GMT 53.964981 -0.753427 33,975 326 474 -64
2021-08-03 13:01:55 GMT 53.959946 -0.747541 34,000 326 474 0
2021-08-03 13:01:53 GMT 53.955814 -0.742708 34,000 326 474 -64
2021-08-03 13:01:50 GMT 53.951485 -0.737619 34,000 326 474 -64
2021-08-03 13:01:48 GMT 53.941589 -0.726039 34,000 326 475 -64
2021-08-03 13:01:46 GMT 53.941589 -0.726039 34,000 326 475 -64
2021-08-03 13:01:43 GMT 53.936874 -0.720546 34,000 326 475 -64
2021-08-03 13:01:40 GMT 53.933258 -0.716309 34,000 326 475 -64
2021-08-03 13:01:38 GMT 53.928955 -0.711286 34,000 326 475 -64
2021-08-03 13:01:36 GMT 53.924435 -0.706033 34,000 326 474 0
2021-08-03 13:01:33 GMT 53.919735 -0.700540 34,000 326 475 -64
2021-08-03 13:01:30 GMT 53.914536 -0.694414 33,975 326 475 0
2021-08-03 13:01:27 GMT 53.907120 -0.685757 33,975 326 475 0
2021-08-03 13:01:24 GMT 53.904606 -0.682849 33,975 326 474 0
2021-08-03 13:01:22 GMT 53.901020 -0.678567 33,975 326 474 0
2021-08-03 13:01:20 GMT 53.897232 -0.674168 34,000 326 474 0
2021-08-03 13:01:17 GMT 53.890732 -0.666556 34,000 326 474 -64
2021-08-03 13:01:14 GMT 53.886265 -0.661280 34,000 326 474 -64
2021-08-03 13:01:12 GMT 53.882812 -0.657296 33,975 326 474 -64
2021-08-03 13:01:10 GMT 53.878143 -0.651803 34,000 326 474 -64
2021-08-03 13:01:07 GMT 53.873276 -0.646093 34,000 326 474 -64
2021-08-03 13:01:04 GMT 53.868073 -0.640032 34,000 326 474 -64
2021-08-03 13:01:02 GMT 53.864616 -0.636076 34,000 326 474 -64
2021-08-03 13:01:00 GMT 53.859962 -0.630583 34,000 326 474 0
2021-08-03 13:00:57 GMT 53.855259 -0.625090 34,000 326 474 0
2021-08-03 13:00:54 GMT 53.849861 -0.618789 33,975 326 474 0
2021-08-03 13:00:52 GMT 53.846230 -0.614588 34,000 326 474 0
2021-08-03 13:00:50 GMT 53.842274 -0.609984 33,975 326 474 0
2021-08-03 13:00:47 GMT 53.836498 -0.603279 33,975 326 474 -64
2021-08-03 13:00:44 GMT 53.831470 -0.597382 33,975 326 474 0
2021-08-03 13:00:42 GMT 53.824627 -0.589465 33,975 326 474 -64
2021-08-03 13:00:40 GMT 53.824627 -0.589465 34,000 326 474 0
2021-08-03 13:00:38 GMT 53.820995 -0.585264 33,975 326 474 0
2021-08-03 13:00:36 GMT 53.818111 -0.581871 34,000 326 474 0
2021-08-03 13:00:33 GMT 53.805866 -0.567654 34,000 326 474 -64
2021-08-03 13:00:30 GMT 53.805866 -0.567654 34,000 326 474 -64
2021-08-03 13:00:27 GMT 53.801376 -0.562422 34,000 326 474 -64
2021-08-03 13:00:24 GMT 53.797028 -0.557478 33,975 326 474 0
2021-08-03 13:00:22 GMT 53.791626 -0.551200 34,000 326 474 0
2021-08-03 13:00:19 GMT 53.785492 -0.544059 34,000 326 474 0
2021-08-03 13:00:16 GMT 53.780266 -0.538007 33,975 326 474 -64
2021-08-03 13:00:13 GMT 53.775562 -0.532595 33,975 326 474 0
2021-08-03 13:00:10 GMT 53.769974 -0.526167 34,000 326 474 0
2021-08-03 13:00:07 GMT 53.765461 -0.520962 33,975 326 474 -64
2021-08-03 13:00:03 GMT 53.754135 -0.507804 33,975 326 474 -64
2021-08-03 13:00:00 GMT 53.746002 -0.498424 34,000 326 474 0
2021-08-03 12:59:57 GMT 53.746002 -0.498424 34,000 326 474 0
2021-08-03 12:59:54 GMT 53.741299 -0.493011 34,000 326 474 -64
2021-08-03 12:59:52 GMT 53.737343 -0.488407 34,000 326 474 -64
2021-08-03 12:59:49 GMT 53.731941 -0.482187 34,000 326 474 0
2021-08-03 12:59:46 GMT 53.721313 -0.469822 34,000 326 474 -64
2021-08-03 12:59:43 GMT 53.721313 -0.469822 34,000 326 474 0
2021-08-03 12:59:41 GMT 53.718430 -0.466527 34,000 326 474 0
2021-08-03 12:59:39 GMT 53.713028 -0.460249 34,000 326 474 -64
2021-08-03 12:59:36 GMT 53.710510 -0.457345 34,000 326 473 0
2021-08-03 12:59:34 GMT 53.705795 -0.451930 34,000 326 472 -64
2021-08-03 12:59:31 GMT 53.700760 -0.446123 34,000 326 472 0
2021-08-03 12:59:29 GMT 53.696983 -0.441796 34,000 326 472 -64
2021-08-03 12:59:26 GMT 53.690510 -0.434283 34,000 326 472 -64
2021-08-03 12:59:23 GMT 53.686554 -0.429679 34,000 326 472 -64
2021-08-03 12:59:21 GMT 53.682922 -0.425559 34,000 326 472 -64
2021-08-03 12:59:19 GMT 53.679340 -0.421358 34,000 326 472 0
2021-08-03 12:59:17 GMT 53.674850 -0.416225 34,000 326 472 0
2021-08-03 12:59:14 GMT 53.669449 -0.409947 34,000 326 472 64
2021-08-03 12:59:11 GMT 53.664780 -0.404532 34,000 326 472 64
2021-08-03 12:59:09 GMT 53.660252 -0.399385 34,000 326 473 64
2021-08-03 12:59:06 GMT 53.655396 -0.393781 34,000 326 472 64
2021-08-03 12:59:04 GMT 53.650570 -0.388157 33,975 326 472 64
2021-08-03 12:59:01 GMT 53.646240 -0.383148 33,975 326 472 64
2021-08-03 12:58:59 GMT 53.642654 -0.379028 33,975 326 472 64
2021-08-03 12:58:57 GMT 53.638458 -0.374320 33,975 327 472 64
2021-08-03 12:58:54 GMT 53.627808 -0.362226 33,975 326 472 64
2021-08-03 12:58:51 GMT 53.624405 -0.358311 33,975 326 472 64
2021-08-03 12:58:49 GMT 53.624405 -0.358311 33,975 326 472 64
2021-08-03 12:58:46 GMT 53.618683 -0.351562 33,975 323 472 64
2021-08-03 12:58:43 GMT 53.613831 -0.345285 33,975 321 472 64
2021-08-03 12:58:41 GMT 53.610302 -0.340415 33,975 320 472 64
2021-08-03 12:58:39 GMT 53.607193 -0.335868 33,975 317 472 0
2021-08-03 12:58:37 GMT 53.603832 -0.330640 33,975 317 472 0
2021-08-03 12:58:35 GMT 53.600555 -0.325274 33,975 311 473 0
2021-08-03 12:58:33 GMT 53.597687 -0.320219 33,975 312 473 0
2021-08-03 12:58:30 GMT 53.593266 -0.312060 33,975 309 473 0
2021-08-03 12:58:27 GMT 53.589249 -0.303850 33,975 308 473 0
2021-08-03 12:58:25 GMT 53.586594 -0.297965 33,975 307 473 -64
2021-08-03 12:58:23 GMT 53.584259 -0.292629 33,975 305 474 -64
2021-08-03 12:58:21 GMT 53.581673 -0.286291 33,975 304 474 -64
2021-08-03 12:58:19 GMT 53.578365 -0.277566 33,975 300 475 -128
2021-08-03 12:58:16 GMT 53.573318 -0.262495 34,000 295 476 -128
2021-08-03 12:58:14 GMT 53.573318 -0.262495 34,000 295 476 -128
2021-08-03 12:58:11 GMT 53.570873 -0.254220 34,000 295 476 -128
2021-08-03 12:58:09 GMT 53.566868 -0.238630 34,000 291 477 -64
2021-08-03 12:58:06 GMT 53.566868 -0.238630 34,000 287 478 64
2021-08-03 12:58:04 GMT 53.564941 -0.229928 34,000 287 478 64
2021-08-03 12:58:01 GMT 53.562866 -0.219000 34,000 287 478 64
2021-08-03 12:57:59 GMT 53.561096 -0.209063 33,975 287 478 64
2021-08-03 12:57:56 GMT 53.559887 -0.201874 33,975 286 478 0
2021-08-03 12:57:54 GMT 53.558350 -0.192967 33,975 286 479 0
2021-08-03 12:57:51 GMT 53.556625 -0.182648 33,975 286 478 -64
2021-08-03 12:57:49 GMT 53.555466 -0.175860 33,975 286 478 -64
2021-08-03 12:57:46 GMT 53.554047 -0.167228 33,975 286 478 -64
2021-08-03 12:57:44 GMT 53.550293 -0.145098 33,975 286 478 -64
2021-08-03 12:57:41 GMT 53.550293 -0.145098 34,000 286 478 -64
2021-08-03 12:57:38 GMT 53.549103 -0.137957 34,000 286 478 -64
2021-08-03 12:57:36 GMT 53.547318 -0.127206 34,000 286 478 -64
2021-08-03 12:57:33 GMT 53.543930 -0.107195 34,000 286 480 -64
2021-08-03 12:57:30 GMT 53.543930 -0.107195 34,000 286 479 -64
2021-08-03 12:57:27 GMT 53.542465 -0.098642 34,000 286 480 0
2021-08-03 12:57:25 GMT 53.541046 -0.090009 34,000 286 479 0
2021-08-03 12:57:22 GMT 53.538937 -0.077551 34,000 286 479 0
2021-08-03 12:57:19 GMT 53.537292 -0.067880 33,975 286 479 0
2021-08-03 12:57:16 GMT 53.535828 -0.059326 33,975 286 479 0
2021-08-03 12:57:13 GMT 53.534271 -0.049988 33,975 286 479 0
2021-08-03 12:57:10 GMT 53.532372 -0.038937 34,000 286 479 0
2021-08-03 12:57:08 GMT 53.530792 -0.029647 33,975 286 479 0
2021-08-03 12:57:05 GMT 53.528603 -0.016803 33,975 287 479 -64
2021-08-03 12:57:02 GMT 53.524834 0.005332 34,000 286 479 -64
2021-08-03 12:56:59 GMT 53.524834 0.005332 33,975 286 479 -64
2021-08-03 12:56:56 GMT 53.522968 0.016076 34,000 286 479 -64
2021-08-03 12:56:53 GMT 53.521667 0.023911 34,000 286 479 -64
2021-08-03 12:56:50 GMT 53.519199 0.038210 34,000 286 479 -64
2021-08-03 12:56:47 GMT 53.516033 0.056709 34,000 287 478 -64
2021-08-03 12:56:44 GMT 53.516033 0.056709 34,000 287 478 0
2021-08-03 12:56:41 GMT 53.514359 0.066726 34,000 287 478 0
2021-08-03 12:56:38 GMT 53.512264 0.078843 34,000 287 478 0
2021-08-03 12:56:35 GMT 53.509140 0.096994 34,000 287 477 0
2021-08-03 12:56:32 GMT 53.509140 0.096994 34,000 287 478 0
2021-08-03 12:56:30 GMT 53.507812 0.104841 34,000 287 477 0
2021-08-03 12:56:28 GMT 53.506630 0.111560 34,000 287 477 0
2021-08-03 12:56:26 GMT 53.504883 0.121870 34,000 287 477 0
2021-08-03 12:56:23 GMT 53.503094 0.132159 34,000 287 477 0
2021-08-03 12:56:20 GMT 53.501602 0.140722 34,000 287 477 0
2021-08-03 12:56:18 GMT 53.500076 0.149571 34,000 287 477 0
2021-08-03 12:56:15 GMT 53.497318 0.165603 34,000 287 477 0
2021-08-03 12:56:13 GMT 53.497318 0.165603 33,975 287 477 0
2021-08-03 12:56:11 GMT 53.496109 0.172712 33,975 287 477 64
2021-08-03 12:56:08 GMT 53.494015 0.184748 34,000 287 477 64
2021-08-03 12:56:05 GMT 53.492020 0.196498 33,975 287 477 0
2021-08-03 12:56:02 GMT 53.490189 0.207171 34,000 287 477 0
2021-08-03 12:55:59 GMT 53.488678 0.215646 33,975 287 477 0
2021-08-03 12:55:56 GMT 53.486847 0.226318 33,975 287 477 -64
2021-08-03 12:55:54 GMT 53.485451 0.234510 34,000 287 477 0
2021-08-03 12:55:51 GMT 53.483353 0.246546 33,975 287 477 -64
2021-08-03 12:55:48 GMT 53.482143 0.253655 33,975 287 477 0
2021-08-03 12:55:46 GMT 53.480850 0.261082 33,975 287 477 0
2021-08-03 12:55:44 GMT 53.479443 0.269327 34,000 287 477 0
2021-08-03 12:55:41 GMT 53.475586 0.291687 33,975 287 477 0
2021-08-03 12:55:38 GMT 53.475586 0.291687 33,975 287 478 0
2021-08-03 12:55:35 GMT 53.473949 0.301316 34,000 287 478 0
2021-08-03 12:55:32 GMT 53.470917 0.318682 33,975 287 479 0
2021-08-03 12:55:30 GMT 53.470917 0.318682 33,975 287 479 0
2021-08-03 12:55:28 GMT 53.469818 0.325117 33,975 287 479 0
2021-08-03 12:55:26 GMT 53.468582 0.332258 33,975 287 479 0
2021-08-03 12:55:23 GMT 53.466476 0.344343 33,975 287 479 0
2021-08-03 12:55:20 GMT 53.464546 0.355359 33,975 287 479 0
2021-08-03 12:55:18 GMT 53.463867 0.359253 33,975 287 479 0
2021-08-03 12:55:16 GMT 53.462032 0.369577 34,000 287 479 -64
2021-08-03 12:55:14 GMT 53.461121 0.374869 33,975 287 479 -64
2021-08-03 12:55:12 GMT 53.459244 0.385542 34,000 287 480 -64
2021-08-03 12:55:09 GMT 53.457333 0.396639 34,000 287 480 -64
2021-08-03 12:55:06 GMT 53.456039 0.404061 33,975 287 480 -64
2021-08-03 12:55:04 GMT 53.452835 0.422660 34,000 287 480 -64
2021-08-03 12:55:01 GMT 53.452835 0.422660 34,000 287 480 -64
2021-08-03 12:54:58 GMT 53.451324 0.431213 34,000 287 480 -64
2021-08-03 12:54:56 GMT 53.449791 0.440099 34,000 287 480 -64
2021-08-03 12:54:54 GMT 53.448906 0.445108 34,000 287 480 -64
2021-08-03 12:54:51 GMT 53.446609 0.458287 33,975 287 480 -64
2021-08-03 12:54:48 GMT 53.444809 0.468615 34,000 287 480 -64
2021-08-03 12:54:45 GMT 53.443497 0.476100 34,000 287 480 -64
2021-08-03 12:54:43 GMT 53.441986 0.484654 34,000 287 480 -64
2021-08-03 12:54:41 GMT 53.440060 0.495677 34,000 287 480 0
2021-08-03 12:54:38 GMT 53.437080 0.512803 33,975 287 480 0
2021-08-03 12:54:35 GMT 53.437080 0.512803 34,000 287 480 0
2021-08-03 12:54:33 GMT 53.435120 0.523812 33,975 287 479 0
2021-08-03 12:54:29 GMT 53.433243 0.534485 34,000 287 479 0
2021-08-03 12:54:27 GMT 53.431309 0.545520 33,975 287 479 0
2021-08-03 12:54:24 GMT 53.430054 0.552628 33,975 287 479 0
2021-08-03 12:54:21 GMT 53.428471 0.561838 33,975 287 479 0
2021-08-03 12:54:19 GMT 53.426842 0.571127 33,975 287 479 0
2021-08-03 12:54:17 GMT 53.425873 0.576468 33,975 287 479 -64
2021-08-03 12:54:15 GMT 53.424557 0.583891 33,975 287 479 -64
2021-08-03 12:54:13 GMT 53.423264 0.591378 33,975 287 479 0
2021-08-03 12:54:11 GMT 53.420746 0.605582 34,000 287 479 -64
2021-08-03 12:54:09 GMT 53.418869 0.616255 34,000 287 479 -64
2021-08-03 12:54:07 GMT 53.418869 0.616255 33,975 287 479 -64
2021-08-03 12:54:04 GMT 53.417587 0.623317 34,000 287 478 -64
2021-08-03 12:54:02 GMT 53.416351 0.630458 34,000 287 479 -64
2021-08-03 12:53:59 GMT 53.413292 0.647789 34,000 287 478 -64
2021-08-03 12:53:57 GMT 53.411896 0.655625 34,000 287 478 -64
2021-08-03 12:53:55 GMT 53.411896 0.655625 34,000 287 479 -64
2021-08-03 12:53:53 GMT 53.410408 0.664188 34,000 287 478 -64
2021-08-03 12:53:50 GMT 53.408432 0.675188 34,000 287 478 -64
2021-08-03 12:53:48 GMT 53.406326 0.687195 34,000 287 478 -64
2021-08-03 12:53:44 GMT 53.404816 0.695748 34,000 287 478 -64
2021-08-03 12:53:42 GMT 53.403534 0.702811 34,000 287 478 64
2021-08-03 12:53:39 GMT 53.401749 0.713061 34,000 287 478 -64
2021-08-03 12:53:37 GMT 53.400421 0.720546 34,000 287 478 0
2021-08-03 12:53:34 GMT 53.398636 0.730434 34,000 287 477 0
2021-08-03 12:53:32 GMT 53.397400 0.737497 33,975 287 478 64
2021-08-03 12:53:29 GMT 53.395325 0.749251 34,000 287 478 64
2021-08-03 12:53:27 GMT 53.394299 0.754906 33,975 287 478 64
2021-08-03 12:53:25 GMT 53.393181 0.761207 33,975 287 478 64
2021-08-03 12:53:23 GMT 53.389801 0.779951 33,975 287 478 64
2021-08-03 12:53:20 GMT 53.389801 0.779951 33,975 287 478 64
2021-08-03 12:53:17 GMT 53.387558 0.792664 33,975 287 478 64
2021-08-03 12:53:14 GMT 53.385735 0.802971 33,975 287 478 64
2021-08-03 12:53:12 GMT 53.382751 0.819580 33,975 287 478 64
2021-08-03 12:53:09 GMT 53.382751 0.819580 33,975 287 477 0
2021-08-03 12:53:07 GMT 53.379959 0.835118 33,975 287 477 0
2021-08-03 12:53:05 GMT 53.379959 0.835118 33,975 287 477 0
2021-08-03 12:53:02 GMT 53.377945 0.846418 33,975 287 481 0
2021-08-03 12:52:59 GMT 53.376434 0.854893 34,000 287 479 -64
2021-08-03 12:52:57 GMT 53.375427 0.860543 34,000 287 479 -64
2021-08-03 12:52:55 GMT 53.374004 0.868728 33,975 287 480 64
2021-08-03 12:52:53 GMT 53.373119 0.873655 34,000 287 479 -64
2021-08-03 12:52:51 GMT 53.371723 0.881491 33,975 287 479 -64
2021-08-03 12:52:49 GMT 53.369953 0.891427 34,000 287 480 -64
2021-08-03 12:52:47 GMT 53.368790 0.897809 34,000 287 480 -64
2021-08-03 12:52:45 GMT 53.367252 0.906291 33,975 287 480 -64
2021-08-03 12:52:42 GMT 53.365448 0.916574 33,975 287 480 -64
2021-08-03 12:52:39 GMT 53.363716 0.926164 33,975 287 481 -64
2021-08-03 12:52:37 GMT 53.362518 0.932896 34,000 287 481 -64
2021-08-03 12:52:35 GMT 53.361294 0.939654 34,000 287 481 -64
2021-08-03 12:52:33 GMT 53.360130 0.946117 34,000 287 481 -64
2021-08-03 12:52:31 GMT 53.356544 0.965989 34,000 287 481 -64
2021-08-03 12:52:28 GMT 53.356544 0.965989 34,000 287 481 -64
2021-08-03 12:52:25 GMT 53.354965 0.974880 34,000 287 481 -64
2021-08-03 12:52:23 GMT 53.353474 0.983034 34,000 287 481 -64
2021-08-03 12:52:20 GMT 53.349838 1.003366 34,000 287 481 -64
2021-08-03 12:52:17 GMT 53.349838 1.003366 34,000 287 481 -64
2021-08-03 12:52:15 GMT 53.348072 1.012923 34,000 287 481 -64
2021-08-03 12:52:12 GMT 53.346165 1.023586 34,000 287 481 -64
2021-08-03 12:52:09 GMT 53.344490 1.032876 34,000 287 481 -64
2021-08-03 12:52:07 GMT 53.343231 1.039985 34,000 287 481 -64
2021-08-03 12:52:05 GMT 53.342010 1.046762 34,000 287 481 0
2021-08-03 12:52:03 GMT 53.340160 1.057030 34,000 287 481 -64
2021-08-03 12:52:00 GMT 53.338856 1.064139 34,000 287 481 0
2021-08-03 12:51:58 GMT 53.337551 1.071248 34,000 287 481 -64
2021-08-03 12:51:55 GMT 53.335644 1.081911 34,000 287 481 0
2021-08-03 12:51:53 GMT 53.332569 1.098956 34,000 287 481 0
2021-08-03 12:51:50 GMT 53.332569 1.098956 34,000 287 480 0
2021-08-03 12:51:47 GMT 53.329826 1.113901 34,000 287 480 0
2021-08-03 12:51:44 GMT 53.328232 1.122803 34,000 287 480 64
2021-08-03 12:51:41 GMT 53.326752 1.130946 33,975 287 480 64
2021-08-03 12:51:38 GMT 53.324249 1.144775 33,975 287 480 64
2021-08-03 12:51:35 GMT 53.322556 1.153957 33,975 287 480 64
2021-08-03 12:51:33 GMT 53.321503 1.159607 33,975 287 480 64
2021-08-03 12:51:31 GMT 53.319538 1.170609 33,975 287 479 64
2021-08-03 12:51:28 GMT 53.316238 1.188642 33,975 287 479 0
2021-08-03 12:51:25 GMT 53.316238 1.188642 33,975 287 479 0
2021-08-03 12:51:23 GMT 53.314976 1.195409 33,975 287 479 0
2021-08-03 12:51:20 GMT 53.313126 1.205671 33,975 287 480 -64
2021-08-03 12:51:17 GMT 53.310879 1.218109 33,975 287 480 -64
2021-08-03 12:51:15 GMT 53.309437 1.225864 34,000 287 480 -64
2021-08-03 12:51:12 GMT 53.307587 1.236119 34,000 287 480 0
2021-08-03 12:51:09 GMT 53.305851 1.245737 33,975 287 480 -64
2021-08-03 12:51:06 GMT 53.304108 1.255266 33,975 288 482 -64
2021-08-03 12:51:03 GMT 53.301941 1.266982 34,000 288 481 -64
2021-08-03 12:51:00 GMT 53.300079 1.277318 34,000 288 482 -64
2021-08-03 12:50:57 GMT 53.298309 1.286854 34,000 288 482 0
2021-08-03 12:50:54 GMT 53.294586 1.307454 33,975 288 482 0
2021-08-03 12:50:52 GMT 53.294586 1.307454 33,975 288 482 0
2021-08-03 12:50:49 GMT 53.292862 1.316663 33,975 288 482 0
2021-08-03 12:50:46 GMT 53.291245 1.325579 34,000 288 482 0
2021-08-03 12:50:44 GMT 53.288544 1.340489 33,975 288 482 64
2021-08-03 12:50:42 GMT 53.288544 1.340489 33,975 288 482 64
2021-08-03 12:50:39 GMT 53.285831 1.355034 33,975 288 482 0
2021-08-03 12:50:36 GMT 53.284016 1.364970 33,975 288 482 64
2021-08-03 12:50:33 GMT 53.282410 1.373840 33,975 288 482 0
2021-08-03 12:50:30 GMT 53.280029 1.386553 33,975 288 482 0
2021-08-03 12:50:27 GMT 53.278664 1.394052 33,975 288 482 -64
2021-08-03 12:50:24 GMT 53.274536 1.416373 33,975 288 482 0
2021-08-03 12:50:21 GMT 53.274536 1.416373 33,975 288 482 -64
2021-08-03 12:50:19 GMT 53.273346 1.422808 34,000 288 483 -64
2021-08-03 12:50:16 GMT 53.271309 1.433797 33,975 288 482 -64
2021-08-03 12:50:13 GMT 53.268932 1.446560 34,000 288 483 -64
2021-08-03 12:50:10 GMT 53.267715 1.453334 34,000 288 483 -64
2021-08-03 12:50:07 GMT 53.266048 1.462232 34,000 288 483 -64
2021-08-03 12:50:05 GMT 53.262371 1.482104 34,000 288 483 -64
2021-08-03 12:50:03 GMT 53.262371 1.482104 34,000 288 483 -64
2021-08-03 12:50:00 GMT 53.258789 1.501674 34,000 288 483 -64
2021-08-03 12:49:57 GMT 53.258789 1.501674 34,000 288 483 -64
2021-08-03 12:49:54 GMT 53.257187 1.510228 34,000 288 483 -64
2021-08-03 12:49:51 GMT 53.255356 1.520194 34,000 288 482 -64
2021-08-03 12:49:48 GMT 53.250965 1.543902 34,000 288 482 0
2021-08-03 12:49:45 GMT 53.249542 1.551348 34,000 288 482 0
2021-08-03 12:49:43 GMT 53.249542 1.551348 34,000 288 481 64
2021-08-03 12:49:40 GMT 53.247849 1.560608 34,000 288 481 64
2021-08-03 12:49:38 GMT 53.246590 1.567329 34,000 288 481 64
2021-08-03 12:49:35 GMT 53.243088 1.586033 34,000 288 480 64
2021-08-03 12:49:33 GMT 53.241421 1.594876 33,975 288 480 64
2021-08-03 12:49:30 GMT 53.241421 1.594876 34,000 288 480 64
2021-08-03 12:49:28 GMT 53.239380 1.605809 34,000 288 480 64
2021-08-03 12:49:25 GMT 53.237823 1.614284 33,975 288 480 64
2021-08-03 12:49:23 GMT 53.236633 1.620640 33,975 288 480 64
2021-08-03 12:49:20 GMT 53.234577 1.631631 33,975 288 480 64
2021-08-03 12:49:18 GMT 53.232788 1.641122 33,975 288 479 -64
2021-08-03 12:49:15 GMT 53.231094 1.650303 33,975 288 480 0
2021-08-03 12:49:13 GMT 53.229263 1.660191 33,975 288 479 0
2021-08-03 12:49:10 GMT 53.227936 1.667254 34,000 288 479 -64
2021-08-03 12:49:07 GMT 53.226242 1.676435 33,975 288 480 0
2021-08-03 12:49:04 GMT 53.222195 1.697953 33,975 288 480 -64
2021-08-03 12:49:02 GMT 53.222195 1.697953 33,975 288 480 -64
2021-08-03 12:48:59 GMT 53.220753 1.705708 34,000 288 480 0
2021-08-03 12:48:57 GMT 53.219448 1.712736 33,975 288 481 0
2021-08-03 12:48:54 GMT 53.217449 1.723319 34,000 288 480 0
2021-08-03 12:48:52 GMT 53.216080 1.730739 34,000 288 480 0
2021-08-03 12:48:49 GMT 53.214283 1.740202 34,000 288 481 0
2021-08-03 12:48:47 GMT 53.213013 1.746905 34,000 288 481 0
2021-08-03 12:48:44 GMT 53.210419 1.760721 33,975 288 481 0
2021-08-03 12:48:41 GMT 53.209167 1.767386 33,975 288 480 0
2021-08-03 12:48:39 GMT 53.207764 1.774777 33,975 288 481 0
2021-08-03 12:48:36 GMT 53.205250 1.788186 33,975 288 480 0
2021-08-03 12:48:33 GMT 53.203251 1.798769 34,000 288 480 -64
2021-08-03 12:48:30 GMT 53.201614 1.807565 34,000 288 480 0
2021-08-03 12:48:28 GMT 53.199387 1.819207 34,000 288 481 0
2021-08-03 12:48:26 GMT 53.199387 1.819207 34,000 288 481 0
2021-08-03 12:48:24 GMT 53.197521 1.829062 34,000 288 480 -64
2021-08-03 12:48:22 GMT 53.196220 1.836090 33,975 288 480 -64
2021-08-03 12:48:19 GMT 53.193565 1.850227 33,975 288 480 -64
2021-08-03 12:48:16 GMT 53.192215 1.857255 34,000 288 480 -64
2021-08-03 12:48:13 GMT 53.189564 1.871311 34,000 288 480 -64
2021-08-03 12:48:10 GMT 53.187702 1.881166 34,000 288 480 -64
2021-08-03 12:48:07 GMT 53.185776 1.891375 34,000 288 480 -64
2021-08-03 12:48:04 GMT 53.183838 1.901604 34,000 288 480 -64
2021-08-03 12:48:01 GMT 53.182114 1.910732 34,000 288 480 -64
2021-08-03 12:47:58 GMT 53.180603 1.918841 34,000 288 480 -64
2021-08-03 12:47:56 GMT 53.178947 1.927616 34,000 288 480 -64
2021-08-03 12:47:54 GMT 53.177181 1.936744 34,000 288 480 0
2021-08-03 12:47:51 GMT 53.175522 1.945522 34,000 288 480 0
2021-08-03 12:47:48 GMT 53.173279 1.957528 34,000 288 480 0
2021-08-03 12:47:46 GMT 53.172226 1.963100 34,000 288 480 0
2021-08-03 12:47:42 GMT 53.167282 1.989153 33,975 288 479 64
2021-08-03 12:47:39 GMT 53.166008 1.995796 33,975 288 479 64
2021-08-03 12:47:36 GMT 53.166008 1.995796 33,975 288 479 0
2021-08-03 12:47:34 GMT 53.164284 2.004924 33,975 288 479 0
2021-08-03 12:47:31 GMT 53.160187 2.026350 33,975 288 479 64
2021-08-03 12:47:28 GMT 53.160187 2.026350 33,975 288 480 64
2021-08-03 12:47:25 GMT 53.158092 2.037237 33,975 288 479 0
2021-08-03 12:47:23 GMT 53.157394 2.041103 33,975 288 480 0
2021-08-03 12:47:21 GMT 53.155300 2.052020 33,975 288 480 0
2021-08-03 12:47:18 GMT 53.153595 2.060800 34,000 288 480 0
2021-08-03 12:47:16 GMT 53.150116 2.079084 34,000 288 480 0
2021-08-03 12:47:13 GMT 53.147461 2.093131 34,000 288 480 0
2021-08-03 12:47:10 GMT 53.147461 2.093131 34,000 288 480 -64
2021-08-03 12:47:07 GMT 53.145813 2.101606 34,000 288 480 0
2021-08-03 12:47:04 GMT 53.144127 2.110425 33,975 288 480 -64
2021-08-03 12:47:01 GMT 53.141846 2.122381 33,975 288 480 0
2021-08-03 12:46:58 GMT 53.139847 2.132883 33,975 288 481 -64
2021-08-03 12:46:55 GMT 53.138168 2.141706 34,000 288 481 -64
2021-08-03 12:46:52 GMT 53.135654 2.154694 33,975 288 481 -64
2021-08-03 12:46:49 GMT 53.134369 2.161403 34,000 288 481 -64
2021-08-03 12:46:46 GMT 53.131744 2.175131 34,000 288 481 0
2021-08-03 12:46:43 GMT 53.129654 2.186044 34,000 288 481 -64
2021-08-03 12:46:41 GMT 53.128738 2.190988 34,000 288 481 -64
2021-08-03 12:46:38 GMT 53.126347 2.203324 34,000 288 481 0
2021-08-03 12:46:36 GMT 53.125416 2.208252 34,000 288 481 0
2021-08-03 12:46:33 GMT 53.123337 2.219160 34,000 288 481 0
2021-08-03 12:46:31 GMT 53.119675 2.238150 33,975 288 481 0
2021-08-03 12:46:28 GMT 53.119675 2.238150 34,000 288 481 0
2021-08-03 12:46:26 GMT 53.117966 2.246946 33,975 288 481 0
2021-08-03 12:46:23 GMT 53.114502 2.264832 33,975 288 481 0
2021-08-03 12:46:20 GMT 53.114502 2.264832 33,975 288 481 0
2021-08-03 12:46:17 GMT 53.111115 2.282410 33,975 288 481 0
2021-08-03 12:46:15 GMT 53.111115 2.282410 33,975 288 481 -64
2021-08-03 12:46:12 GMT 53.109028 2.293315 34,000 288 481 0
2021-08-03 12:46:10 GMT 53.107258 2.302444 34,000 288 481 0
2021-08-03 12:46:07 GMT 53.105068 2.313672 34,000 288 481 0
2021-08-03 12:46:04 GMT 53.101719 2.331202 34,000 288 481 0
2021-08-03 12:46:02 GMT 53.101719 2.331202 34,000 288 481 0
2021-08-03 12:45:59 GMT 53.100464 2.337503 33,975 288 481 0
2021-08-03 12:45:57 GMT 53.098694 2.346631 34,000 288 481 64
2021-08-03 12:45:54 GMT 53.096741 2.356803 34,000 288 481 0
2021-08-03 12:45:52 GMT 53.093765 2.372284 33,975 288 481 0
2021-08-03 12:45:50 GMT 53.093765 2.372284 34,000 288 481 0
2021-08-03 12:45:47 GMT 53.092316 2.379639 33,975 288 481 0
2021-08-03 12:45:44 GMT 53.089848 2.392273 33,975 288 481 -64
2021-08-03 12:45:42 GMT 53.088409 2.399673 33,975 288 481 -64
2021-08-03 12:45:40 GMT 53.084747 2.418594 34,000 288 481 -64
2021-08-03 12:45:37 GMT 53.083050 2.427351 34,000 288 481 -64
2021-08-03 12:45:34 GMT 53.081375 2.435826 34,000 288 481 -64
2021-08-03 12:45:32 GMT 53.081375 2.435826 34,000 288 481 0
2021-08-03 12:45:29 GMT 53.078476 2.450867 34,000 288 481 0
2021-08-03 12:45:27 GMT 53.078476 2.450867 33,975 288 481 -64
2021-08-03 12:45:24 GMT 53.076004 2.463531 33,975 288 481 0
2021-08-03 12:45:21 GMT 53.074299 2.472316 33,975 289 481 64
2021-08-03 12:45:18 GMT 53.072346 2.482125 34,000 289 481 0
2021-08-03 12:45:15 GMT 53.068451 2.502136 33,975 289 481 64
2021-08-03 12:45:12 GMT 53.068451 2.502136 33,975 289 481 64
2021-08-03 12:45:10 GMT 53.066666 2.511292 33,975 289 481 0
2021-08-03 12:45:07 GMT 53.064743 2.521057 33,975 289 481 0
2021-08-03 12:45:04 GMT 53.062893 2.530544 33,975 289 481 -64
2021-08-03 12:45:02 GMT 53.061172 2.539291 34,000 289 481 -64
2021-08-03 12:45:00 GMT 53.059448 2.548043 33,975 289 481 -64
2021-08-03 12:44:57 GMT 53.057354 2.558637 34,000 289 481 -64
2021-08-03 12:44:54 GMT 53.055866 2.566328 34,000 289 481 -64
2021-08-03 12:44:51 GMT 53.051441 2.588771 34,000 289 481 -64
2021-08-03 12:44:48 GMT 53.050091 2.595755 34,000 289 481 0
2021-08-03 12:44:46 GMT 53.050091 2.595755 34,000 289 481 0
2021-08-03 12:44:42 GMT 53.047207 2.610509 34,000 289 481 -64
2021-08-03 12:44:39 GMT 53.045197 2.620697 33,975 289 481 0
2021-08-03 12:44:37 GMT 53.043900 2.627380 33,975 289 481 0
2021-08-03 12:44:35 GMT 53.040596 2.644174 33,975 289 481 0
2021-08-03 12:44:32 GMT 53.040596 2.644174 33,975 289 481 0
2021-08-03 12:44:29 GMT 53.038193 2.656479 34,000 289 480 -64
2021-08-03 12:44:26 GMT 53.036407 2.665558 34,000 289 480 -64
2021-08-03 12:44:23 GMT 53.034302 2.676086 34,000 289 480 -64
2021-08-03 12:44:21 GMT 53.032242 2.686615 34,000 289 480 0
2021-08-03 12:44:18 GMT 53.030869 2.693634 34,000 289 480 -64
2021-08-03 12:44:15 GMT 53.028809 2.704086 34,000 289 480 -64
2021-08-03 12:44:12 GMT 53.026772 2.714251 34,000 289 480 0
2021-08-03 12:44:10 GMT 53.025421 2.721235 34,000 289 480 -64
2021-08-03 12:44:07 GMT 53.022625 2.735282 34,000 289 480 0
2021-08-03 12:44:04 GMT 53.020859 2.744306 34,000 289 480 0
2021-08-03 12:44:01 GMT 53.018967 2.753754 33,975 289 480 0
2021-08-03 12:43:58 GMT 53.017365 2.761806 34,000 289 480 64
2021-08-03 12:43:56 GMT 53.015831 2.769496 33,975 289 480 64
2021-08-03 12:43:54 GMT 53.013783 2.780012 34,000 289 480 0
2021-08-03 12:43:51 GMT 53.012466 2.786636 33,975 289 480 0
2021-08-03 12:43:48 GMT 53.010571 2.796099 34,000 289 480 0
2021-08-03 12:43:46 GMT 53.006607 2.815933 34,000 289 480 0
2021-08-03 12:43:43 GMT 53.006607 2.815933 34,000 289 480 0
2021-08-03 12:43:40 GMT 53.005169 2.823251 34,000 289 480 -64
2021-08-03 12:43:38 GMT 53.003494 2.831648 33,975 289 480 -64
2021-08-03 12:43:36 GMT 53.002098 2.838632 33,975 289 479 0
2021-08-03 12:43:34 GMT 53.000282 2.847656 34,000 289 479 0
2021-08-03 12:43:32 GMT 52.998688 2.855682 34,000 289 479 0
2021-08-03 12:43:30 GMT 52.997070 2.863743 34,000 289 479 0
2021-08-03 12:43:27 GMT 52.995159 2.873474 34,000 289 479 0
2021-08-03 12:43:24 GMT 52.993065 2.883911 34,000 289 479 0
2021-08-03 12:43:21 GMT 52.991730 2.890549 34,000 289 479 0
2021-08-03 12:43:18 GMT 52.989155 2.903373 34,000 289 479 0
2021-08-03 12:43:15 GMT 52.987427 2.912064 34,000 289 479 64
2021-08-03 12:43:13 GMT 52.985458 2.921829 33,975 289 478 0
2021-08-03 12:43:10 GMT 52.984173 2.928406 33,975 289 478 0
2021-08-03 12:43:08 GMT 52.982361 2.937509 33,975 289 478 0
2021-08-03 12:43:06 GMT 52.980881 2.944794 33,975 289 478 0
2021-08-03 12:43:04 GMT 52.979427 2.952105 33,975 289 478 0
2021-08-03 12:43:01 GMT 52.977749 2.960423 33,975 289 478 -64
2021-08-03 12:42:59 GMT 52.975754 2.970505 34,000 289 478 -64
2021-08-03 12:42:56 GMT 52.973747 2.980591 33,975 289 478 -64
2021-08-03 12:42:54 GMT 52.972687 2.985764 33,975 289 479 -64
2021-08-03 12:42:51 GMT 52.969070 3.003845 34,000 289 478 0
2021-08-03 12:42:49 GMT 52.969070 3.003845 34,000 289 478 0
2021-08-03 12:42:46 GMT 52.966808 3.015276 34,000 289 479 -64
2021-08-03 12:42:44 GMT 52.965134 3.023594 33,975 289 478 0
2021-08-03 12:42:41 GMT 52.963806 3.030243 33,975 289 478 0
2021-08-03 12:42:39 GMT 52.962109 3.038897 34,000 289 478 0
2021-08-03 12:42:36 GMT 52.959641 3.051071 33,975 289 478 64
2021-08-03 12:42:32 GMT 52.957359 3.062517 33,975 289 478 -64
2021-08-03 12:42:29 GMT 52.954926 3.074722 33,975 289 478 -64
2021-08-03 12:42:26 GMT 52.953140 3.083725 33,975 289 478 -64
2021-08-03 12:42:23 GMT 52.951401 3.092416 34,000 289 478 -64
2021-08-03 12:42:21 GMT 52.949936 3.099670 34,000 289 478 -64
2021-08-03 12:42:19 GMT 52.947769 3.110465 33,975 289 478 0
2021-08-03 12:42:16 GMT 52.945953 3.119489 33,975 289 478 -64
2021-08-03 12:42:14 GMT 52.944977 3.124355 34,000 289 478 -64
2021-08-03 12:42:11 GMT 52.942932 3.134384 33,975 289 478 -64
2021-08-03 12:42:09 GMT 52.940964 3.144150 33,975 289 479 -64
2021-08-03 12:42:05 GMT 52.938858 3.154526 34,000 289 478 -64
2021-08-03 12:42:03 GMT 52.937111 3.163199 34,000 289 478 -64
2021-08-03 12:42:01 GMT 52.936066 3.168411 34,000 289 478 -64
2021-08-03 12:41:59 GMT 52.934097 3.178177 34,000 289 478 -64
2021-08-03 12:41:56 GMT 52.931942 3.188939 34,000 289 478 -64
2021-08-03 12:41:53 GMT 52.929886 3.199005 34,000 289 479 0
2021-08-03 12:41:50 GMT 52.927780 3.209381 34,000 289 478 0
2021-08-03 12:41:47 GMT 52.925331 3.221505 34,000 289 478 0
2021-08-03 12:41:44 GMT 52.923981 3.228073 34,000 289 478 0
2021-08-03 12:41:41 GMT 52.919838 3.248422 34,000 289 477 0
2021-08-03 12:41:39 GMT 52.919838 3.248422 34,000 289 477 0
2021-08-03 12:41:36 GMT 52.918674 3.253993 33,975 289 476 0
2021-08-03 12:41:34 GMT 52.917137 3.261605 33,975 289 477 64
2021-08-03 12:41:32 GMT 52.915237 3.270874 33,975 289 476 64
2021-08-03 12:41:30 GMT 52.914207 3.276045 34,000 289 476 64
2021-08-03 12:41:27 GMT 52.912064 3.286403 33,975 289 474 0
2021-08-03 12:41:25 GMT 52.910389 3.294643 33,975 289 474 0
2021-08-03 12:41:20 GMT 52.906200 3.315281 34,000 289 474 -64
2021-08-03 12:41:17 GMT 52.904846 3.321762 34,000 289 474 -64
2021-08-03 12:41:14 GMT 52.902603 3.332748 34,000 289 474 0
2021-08-03 12:41:11 GMT 52.900566 3.342747 34,000 289 474 0
2021-08-03 12:41:09 GMT 52.897797 3.356094 34,000 289 474 0
2021-08-03 12:41:07 GMT 52.897797 3.356094 34,000 289 474 0
2021-08-03 12:41:05 GMT 52.896286 3.363647 34,000 289 474 0
2021-08-03 12:41:03 GMT 52.894936 3.370135 34,000 289 474 0
2021-08-03 12:41:00 GMT 52.892372 3.382533 34,000 289 474 0
2021-08-03 12:40:57 GMT 52.890656 3.391037 34,000 289 473 64
2021-08-03 12:40:54 GMT 52.887955 3.404083 34,000 289 474 0
2021-08-03 12:40:51 GMT 52.886322 3.411961 34,000 289 473 0
2021-08-03 12:40:48 GMT 52.884178 3.422241 34,000 289 473 0
2021-08-03 12:40:46 GMT 52.883148 3.427353 33,975 289 473 0
2021-08-03 12:40:43 GMT 52.880173 3.441696 33,975 289 473 64
2021-08-03 12:40:40 GMT 52.878082 3.451590 33,975 289 473 64
2021-08-03 12:40:37 GMT 52.876740 3.458099 33,975 289 473 64
2021-08-03 12:40:34 GMT 52.873764 3.472443 34,000 309 470 -64
2021-08-03 12:40:31 GMT 52.872726 3.477565 33,975 289 473 64
2021-08-03 12:40:29 GMT 52.870728 3.487139 33,975 289 473 0
2021-08-03 12:40:27 GMT 52.869282 3.493966 33,975 289 473 -64
2021-08-03 12:40:24 GMT 52.865662 3.511429 33,975 289 473 -64
2021-08-03 12:40:21 GMT 52.865662 3.511429 33,975 289 473 -64
2021-08-03 12:40:19 GMT 52.863464 3.521981 33,975 289 474 0
2021-08-03 12:40:17 GMT 52.862137 3.528519 33,975 289 474 -64
2021-08-03 12:40:14 GMT 52.859554 3.541207 33,975 289 473 -64
2021-08-03 12:40:11 GMT 52.858109 3.548355 34,000 290 473 -64
2021-08-03 12:40:08 GMT 52.854992 3.563023 33,975 292 473 -64
2021-08-03 12:40:03 GMT 52.852432 3.574142 34,000 294 472 -64
2021-08-03 12:40:00 GMT 52.849453 3.585781 34,000 296 472 0
2021-08-03 12:39:56 GMT 52.845448 3.600141 34,000 296 472 0
2021-08-03 12:39:53 GMT 52.841679 3.612383 34,000 299 472 0
2021-08-03 12:39:50 GMT 52.840237 3.616778 34,000 300 471 0
2021-08-03 12:39:47 GMT 52.836685 3.627167 33,975 303 471 0
2021-08-03 12:39:44 GMT 52.830734 3.643036 33,975 303 471 0
2021-08-03 12:39:42 GMT 52.827347 3.651428 33,975 305 471 0
2021-08-03 12:39:39 GMT 52.827347 3.651428 33,975 307 471 0
2021-08-03 12:39:36 GMT 52.820755 3.666611 34,000 317 471 -128
2021-08-03 12:39:34 GMT 52.820755 3.666611 33,975 308 471 0
2021-08-03 12:39:32 GMT 52.818775 3.670846 33,975 309 471 0
2021-08-03 12:39:29 GMT 52.814400 3.679871 33,975 311 471 -64
2021-08-03 12:39:26 GMT 52.809650 3.689131 33,975 316 471 -64
2021-08-03 12:39:23 GMT 52.802898 3.701372 34,000 315 471 -64
2021-08-03 12:39:21 GMT 52.802898 3.701372 34,000 320 471 0
2021-08-03 12:39:18 GMT 52.793518 3.716888 34,000 318 471 -64
2021-08-03 12:39:15 GMT 52.788757 3.724213 34,000 318 471 -64
2021-08-03 12:39:12 GMT 52.788757 3.724213 34,000 321 471 0
2021-08-03 12:39:09 GMT 52.784000 3.731114 34,000 321 472 64
2021-08-03 12:39:06 GMT 52.779018 3.738098 33,975 321 471 0
2021-08-03 12:39:03 GMT 52.770592 3.749398 34,000 321 471 0
2021-08-03 12:39:01 GMT 52.770592 3.749398 33,975 322 472 0
2021-08-03 12:38:58 GMT 52.766006 3.755493 34,000 321 471 0
2021-08-03 12:38:56 GMT 52.761097 3.762111 33,975 321 471 0
2021-08-03 12:38:53 GMT 52.757744 3.766584 34,000 321 471 0
2021-08-03 12:38:50 GMT 52.752823 3.773117 33,975 322 471 0
2021-08-03 12:38:48 GMT 52.747742 3.779907 33,975 322 472 -64
2021-08-03 12:38:46 GMT 52.744522 3.784241 33,975 322 472 0
2021-08-03 12:38:43 GMT 52.740475 3.789655 33,975 322 472 -64
2021-08-03 12:38:41 GMT 52.735886 3.795700 34,000 322 472 -64
2021-08-03 12:38:38 GMT 52.730804 3.802490 33,975 322 472 -64
2021-08-03 12:38:35 GMT 52.726929 3.807704 34,000 322 472 -64
2021-08-03 12:38:33 GMT 52.722702 3.813324 34,000 322 471 0
2021-08-03 12:38:30 GMT 52.716778 3.821202 34,000 322 472 -64
2021-08-03 12:38:27 GMT 52.713867 3.825073 34,000 322 472 -64
2021-08-03 12:38:25 GMT 52.710308 3.829756 34,000 322 472 -64
2021-08-03 12:38:23 GMT 52.706451 3.834991 34,000 322 472 -64
2021-08-03 12:38:21 GMT 52.703232 3.839251 34,000 322 471 0
2021-08-03 12:38:18 GMT 52.697983 3.846207 34,000 322 471 0
2021-08-03 12:38:15 GMT 52.692902 3.852997 33,975 322 471 0
2021-08-03 12:38:13 GMT 52.689312 3.857692 34,000 322 471 0
2021-08-03 12:38:11 GMT 52.681538 3.868051 34,000 322 471 0
2021-08-03 12:38:08 GMT 52.681538 3.868051 34,000 322 471 0
2021-08-03 12:38:05 GMT 52.675644 3.875961 34,000 322 471 0
2021-08-03 12:38:02 GMT 52.665482 3.889465 34,000 322 471 0
2021-08-03 12:37:59 GMT 52.665482 3.889465 34,000 322 471 0
2021-08-03 12:37:56 GMT 52.660400 3.896179 34,000 322 471 0
2021-08-03 12:37:53 GMT 52.655319 3.902893 34,000 322 471 0
2021-08-03 12:37:51 GMT 52.652073 3.907209 34,000 322 471 64
2021-08-03 12:37:48 GMT 52.646851 3.914108 33,975 322 471 64
2021-08-03 12:37:45 GMT 52.637173 3.926906 33,975 322 471 0
2021-08-03 12:37:42 GMT 52.637173 3.926906 34,000 322 471 0
2021-08-03 12:37:40 GMT 52.632614 3.932953 34,000 322 471 -64
2021-08-03 12:37:37 GMT 52.626652 3.940874 33,975 322 471 -64
2021-08-03 12:37:34 GMT 52.623138 3.945541 33,975 322 471 0
2021-08-03 12:37:32 GMT 52.618225 3.952096 34,000 322 471 64
2021-08-03 12:37:29 GMT 52.614830 3.956569 34,000 322 471 64
2021-08-03 12:37:26 GMT 52.605007 3.969596 33,975 322 472 0
2021-08-03 12:37:23 GMT 52.601440 3.974304 33,975 322 472 0
2021-08-03 12:37:21 GMT 52.598209 3.978542 33,975 322 472 0
2021-08-03 12:37:19 GMT 52.598209 3.978542 33,975 322 472 -64
2021-08-03 12:37:17 GMT 52.594620 3.983307 33,975 322 472 0
2021-08-03 12:37:15 GMT 52.589691 3.989764 33,975 322 473 -64
2021-08-03 12:37:12 GMT 52.585594 3.995178 33,975 322 473 -64
2021-08-03 12:37:09 GMT 52.580338 4.002151 33,975 322 473 -64
2021-08-03 12:37:07 GMT 52.577122 4.006400 33,975 322 473 -64
2021-08-03 12:37:05 GMT 52.569256 4.016759 33,975 322 473 -64
2021-08-03 12:37:02 GMT 52.569256 4.016759 33,975 322 473 -64
2021-08-03 12:36:59 GMT 52.563309 4.024658 34,000 322 475 -64
2021-08-03 12:36:56 GMT 52.558502 4.030991 34,000 322 475 -64
2021-08-03 12:36:53 GMT 52.553566 4.037476 33,975 322 475 -64
2021-08-03 12:36:51 GMT 52.548771 4.043832 34,000 322 475 -64
2021-08-03 12:36:48 GMT 52.543652 4.050581 33,975 322 475 -64
2021-08-03 12:36:45 GMT 52.538483 4.057329 33,975 322 475 -64
2021-08-03 12:36:42 GMT 52.535412 4.061410 34,000 322 475 -64
2021-08-03 12:36:40 GMT 52.531448 4.066544 34,000 322 476 -64
2021-08-03 12:36:37 GMT 52.525635 4.074249 34,000 322 476 -64
2021-08-03 12:36:35 GMT 52.523075 4.077654 34,000 322 476 -64
2021-08-03 12:36:32 GMT 52.513809 4.089818 34,000 322 476 -64
2021-08-03 12:36:30 GMT 52.513809 4.089818 34,000 322 476 0
2021-08-03 12:36:27 GMT 52.505402 4.100876 34,000 322 476 -64
2021-08-03 12:36:25 GMT 52.505402 4.100876 34,000 322 476 0
2021-08-03 12:36:22 GMT 52.497482 4.111252 34,000 322 476 -64
2021-08-03 12:36:20 GMT 52.497482 4.111252 33,975 322 476 0
2021-08-03 12:36:17 GMT 52.485809 4.126587 33,975 322 476 0
2021-08-03 12:36:14 GMT 52.485809 4.126587 34,000 322 476 -64
2021-08-03 12:36:11 GMT 52.480637 4.133301 34,000 322 476 -64
2021-08-03 12:36:08 GMT 52.477203 4.137802 33,975 322 476 -64
2021-08-03 12:36:06 GMT 52.473450 4.142761 34,000 322 475 0
2021-08-03 12:36:04 GMT 52.469494 4.147967 34,000 322 475 64
2021-08-03 12:36:01 GMT 52.463516 4.155807 34,000 322 475 0
2021-08-03 12:35:58 GMT 52.460083 4.160309 34,000 322 475 0
2021-08-03 12:35:56 GMT 52.456650 4.164810 34,000 322 475 0
2021-08-03 12:35:54 GMT 52.451843 4.171143 33,975 322 475 0
2021-08-03 12:35:51 GMT 52.441910 4.184189 33,975 322 475 0
2021-08-03 12:35:49 GMT 52.441910 4.184189 33,975 322 475 0
2021-08-03 12:35:46 GMT 52.436954 4.190656 33,975 322 475 0
2021-08-03 12:35:42 GMT 52.431976 4.197235 33,975 322 475 0
2021-08-03 12:35:38 GMT 52.424290 4.207293 33,975 322 475 -64
2021-08-03 12:35:35 GMT 52.419296 4.213867 34,000 322 476 -64
2021-08-03 12:35:32 GMT 52.414169 4.220581 34,000 322 476 -64
2021-08-03 12:35:29 GMT 52.408184 4.228402 34,000 322 476 -64
2021-08-03 12:35:26 GMT 52.404556 4.233170 33,975 322 476 -128
2021-08-03 12:35:24 GMT 52.401123 4.237671 34,000 322 476 -64
2021-08-03 12:35:21 GMT 52.395309 4.245300 34,000 322 476 -64
2021-08-03 12:35:18 GMT 52.390823 4.251099 34,000 322 476 -64
2021-08-03 12:35:16 GMT 52.387234 4.255790 34,000 322 476 -64
2021-08-03 12:35:14 GMT 52.382584 4.261856 34,000 322 476 0
2021-08-03 12:35:11 GMT 52.378464 4.267197 34,000 322 476 -64
2021-08-03 12:35:08 GMT 52.373291 4.273911 34,000 322 476 0
2021-08-03 12:35:06 GMT 52.370224 4.277954 33,975 322 476 0
2021-08-03 12:35:04 GMT 52.361938 4.288635 34,000 322 475 0
2021-08-03 12:35:01 GMT 52.358185 4.293518 33,975 322 474 0
2021-08-03 12:34:59 GMT 52.358185 4.293518 33,975 322 474 0
2021-08-03 12:34:56 GMT 52.353058 4.300232 33,975 322 474 0
2021-08-03 12:34:54 GMT 52.347885 4.306946 34,000 322 474 0
2021-08-03 12:34:51 GMT 52.341064 4.315872 33,975 322 473 -64
2021-08-03 12:34:49 GMT 52.341064 4.315872 34,000 322 473 -64
2021-08-03 12:34:46 GMT 52.335938 4.322510 34,000 322 473 -64
2021-08-03 12:34:44 GMT 52.330490 4.329681 34,000 322 473 -64
2021-08-03 12:34:41 GMT 52.327229 4.333871 34,000 322 473 -64
2021-08-03 12:34:39 GMT 52.323303 4.338989 34,000 322 473 -64
2021-08-03 12:34:36 GMT 52.318012 4.345878 34,000 322 472 -64
2021-08-03 12:34:34 GMT 52.313736 4.351425 34,000 322 472 0
2021-08-03 12:34:31 GMT 52.310349 4.355850 34,000 322 472 0
2021-08-03 12:34:29 GMT 52.306915 4.360275 34,000 322 472 0
2021-08-03 12:34:26 GMT 52.300926 4.368007 34,000 322 472 0
2021-08-03 12:34:24 GMT 52.297668 4.372177 33,975 322 470 -64
2021-08-03 12:34:21 GMT 52.293228 4.377975 33,975 322 472 64
2021-08-03 12:34:19 GMT 52.288834 4.383698 33,975 322 471 0
2021-08-03 12:34:16 GMT 52.283890 4.390137 34,000 322 471 0
2021-08-03 12:34:13 GMT 52.279793 4.395394 33,975 322 470 0
2021-08-03 12:34:10 GMT 52.273647 4.403399 33,975 322 471 64
2021-08-03 12:34:07 GMT 52.268898 4.409598 33,975 322 470 0
2021-08-03 12:34:04 GMT 52.262283 4.418182 33,975 322 470 64
2021-08-03 12:34:01 GMT 52.257027 4.425058 33,975 322 470 64
2021-08-03 12:33:58 GMT 52.253956 4.428981 33,975 322 470 0
2021-08-03 12:33:55 GMT 52.249859 4.434317 33,975 322 470 0
2021-08-03 12:33:53 GMT 52.244785 4.440909 33,975 322 470 0
2021-08-03 12:33:50 GMT 52.241386 4.445304 33,975 322 471 -64
2021-08-03 12:33:48 GMT 52.237106 4.450836 34,000 322 471 -64
2021-08-03 12:33:45 GMT 52.232540 4.456761 34,000 322 471 -64
2021-08-03 12:33:43 GMT 52.228271 4.462280 34,000 322 471 -64
2021-08-03 12:33:40 GMT 52.222458 4.469757 33,975 322 471 -64
2021-08-03 12:33:37 GMT 52.217697 4.475937 34,000 322 471 -64
2021-08-03 12:33:34 GMT 52.213455 4.481480 34,000 322 471 -64
2021-08-03 12:33:31 GMT 52.207310 4.489406 34,000 322 471 -64
2021-08-03 12:33:28 GMT 52.202888 4.495135 34,000 322 471 0
2021-08-03 12:33:25 GMT 52.197765 4.501726 34,000 322 471 -64
2021-08-03 12:33:22 GMT 52.191624 4.509652 34,000 322 471 -64
2021-08-03 12:33:19 GMT 52.187527 4.514910 34,000 322 471 0
2021-08-03 12:33:17 GMT 52.183960 4.519501 34,000 322 471 0
2021-08-03 12:33:15 GMT 52.178680 4.526367 33,975 322 471 0
2021-08-03 12:33:12 GMT 52.173885 4.532488 33,975 322 470 0
2021-08-03 12:33:09 GMT 52.164345 4.544809 33,975 322 470 0
2021-08-03 12:33:06 GMT 52.159424 4.551163 33,975 322 470 0
2021-08-03 12:33:03 GMT 52.155350 4.556427 33,975 322 470 0
2021-08-03 12:33:00 GMT 52.155350 4.556427 34,000 322 470 -64
2021-08-03 12:32:58 GMT 52.151775 4.561053 33,975 322 470 -64
2021-08-03 12:32:55 GMT 52.146835 4.567413 33,975 322 470 0
2021-08-03 12:32:53 GMT 52.142555 4.572902 33,975 322 470 0
2021-08-03 12:32:50 GMT 52.133339 4.584752 33,975 322 470 0
2021-08-03 12:32:48 GMT 52.133339 4.584752 33,975 322 470 -64
2021-08-03 12:32:45 GMT 52.129761 4.589310 33,975 322 471 -64
2021-08-03 12:32:43 GMT 52.125320 4.595032 34,000 322 471 -64
2021-08-03 12:32:40 GMT 52.120724 4.600917 33,975 322 471 0
2021-08-03 12:32:37 GMT 52.116627 4.606175 34,000 322 471 -64
2021-08-03 12:32:35 GMT 52.112366 4.611664 33,975 322 471 -64
2021-08-03 12:32:32 GMT 52.103485 4.623032 34,000 322 471 -64
2021-08-03 12:32:30 GMT 52.103485 4.623032 34,000 322 471 -64
2021-08-03 12:32:27 GMT 52.099216 4.628540 33,975 322 471 -64
2021-08-03 12:32:25 GMT 52.094795 4.634190 34,000 322 471 -64
2021-08-03 12:32:22 GMT 52.091351 4.638585 34,000 322 471 -64
2021-08-03 12:32:19 GMT 52.084877 4.646903 34,000 322 471 -64
2021-08-03 12:32:16 GMT 52.080597 4.652405 34,000 322 471 -64
2021-08-03 12:32:14 GMT 52.077381 4.656555 34,000 322 471 -64
2021-08-03 12:32:12 GMT 52.073776 4.661179 33,975 322 471 -64
2021-08-03 12:32:10 GMT 52.069702 4.666367 34,000 322 471 -64
2021-08-03 12:32:07 GMT 52.063889 4.673843 34,000 322 471 -64
2021-08-03 12:32:04 GMT 52.060455 4.678192 33,975 322 471 -64
2021-08-03 12:32:02 GMT 52.055180 4.684963 34,000 322 470 -64
2021-08-03 12:31:59 GMT 52.050430 4.691084 34,000 322 470 0
2021-08-03 12:31:56 GMT 52.046986 4.695478 34,000 322 470 -64
2021-08-03 12:31:54 GMT 52.043427 4.700012 34,000 322 470 0
2021-08-03 12:31:52 GMT 52.039307 4.705276 34,000 322 470 0
2021-08-03 12:31:49 GMT 52.029785 4.717407 33,975 322 470 64
2021-08-03 12:31:46 GMT 52.029785 4.717407 33,975 322 470 64
2021-08-03 12:31:44 GMT 52.021912 4.727402 33,975 322 469 64
2021-08-03 12:31:42 GMT 52.021912 4.727402 33,975 322 469 64
2021-08-03 12:31:39 GMT 52.017151 4.733505 33,975 322 469 64
2021-08-03 12:31:36 GMT 52.009003 4.743958 33,975 322 468 0
2021-08-03 12:31:34 GMT 52.003738 4.750645 34,000 322 468 0
2021-08-03 12:31:32 GMT 52.003738 4.750645 33,975 322 468 0
2021-08-03 12:31:29 GMT 52.000340 4.755040 33,975 322 468 0
2021-08-03 12:31:27 GMT 51.996941 4.759356 33,975 322 468 0
2021-08-03 12:31:24 GMT 51.992340 4.765244 33,975 322 468 0
2021-08-03 12:31:22 GMT 51.987213 4.771729 33,975 322 468 0
2021-08-03 12:31:19 GMT 51.983505 4.776459 33,975 322 468 0
2021-08-03 12:31:17 GMT 51.979065 4.782104 33,975 322 468 -64
2021-08-03 12:31:14 GMT 51.974670 4.787750 34,000 322 468 -64
2021-08-03 12:31:12 GMT 51.970406 4.793178 33,975 322 468 -64
2021-08-03 12:31:09 GMT 51.966354 4.798357 34,000 322 468 -64
2021-08-03 12:31:07 GMT 51.958008 4.809036 34,000 322 468 -64
2021-08-03 12:31:04 GMT 51.954620 4.813309 34,000 322 468 -64
2021-08-03 12:30:59 GMT 51.949318 4.820016 34,000 322 468 -64
2021-08-03 12:30:57 GMT 51.944244 4.826529 34,000 322 468 -64
2021-08-03 12:30:54 GMT 51.940845 4.830845 34,000 322 468 0
2021-08-03 12:30:52 GMT 51.937271 4.835434 34,000 322 469 0
2021-08-03 12:30:49 GMT 51.932144 4.841919 34,000 322 469 0
2021-08-03 12:30:47 GMT 51.926880 4.848580 33,975 322 468 0
2021-08-03 12:30:44 GMT 51.922829 4.853838 33,975 322 467 0
2021-08-03 12:30:41 GMT 51.919235 4.858322 33,975 322 467 0
2021-08-03 12:30:39 GMT 51.915009 4.863726 33,975 322 467 0
2021-08-03 12:30:37 GMT 51.911087 4.868698 33,975 322 467 -64
2021-08-03 12:30:34 GMT 51.906647 4.874344 34,000 322 467 0
2021-08-03 12:30:32 GMT 51.903091 4.878871 34,000 322 467 -64
2021-08-03 12:30:29 GMT 51.896484 4.887238 34,000 322 467 -64
2021-08-03 12:30:26 GMT 51.892090 4.892850 34,000 322 467 -64
2021-08-03 12:30:23 GMT 51.888519 4.897385 34,000 322 467 -64
2021-08-03 12:30:20 GMT 51.882568 4.904950 34,000 322 467 -64
2021-08-03 12:30:18 GMT 51.879349 4.908981 34,000 322 467 -64
2021-08-03 12:30:16 GMT 51.875793 4.913561 34,000 322 467 -64
2021-08-03 12:30:13 GMT 51.871719 4.918683 33,975 322 467 64
2021-08-03 12:30:11 GMT 51.867432 4.924088 33,975 322 467 64
2021-08-03 12:30:09 GMT 51.863384 4.929199 34,000 322 467 64
2021-08-03 12:30:07 GMT 51.854862 4.939957 33,975 322 467 0
2021-08-03 12:30:04 GMT 51.850662 4.945332 33,975 322 467 64
2021-08-03 12:30:02 GMT 51.850662 4.945332 33,975 322 467 64
2021-08-03 12:29:59 GMT 51.847229 4.949564 33,975 322 467 64
2021-08-03 12:29:57 GMT 51.837219 4.962234 33,975 323 466 0
2021-08-03 12:29:54 GMT 51.837219 4.962234 33,975 323 466 64
2021-08-03 12:29:51 GMT 51.833679 4.966711 33,975 323 466 64
2021-08-03 12:29:48 GMT 51.822975 4.980240 33,975 323 466 -64
2021-08-03 12:29:45 GMT 51.822975 4.980240 33,975 323 466 -64
2021-08-03 12:29:42 GMT 51.813263 4.992395 33,975 323 467 -64
2021-08-03 12:29:39 GMT 51.813263 4.992395 34,000 323 466 -64
2021-08-03 12:29:37 GMT 51.809875 4.996701 34,000 323 466 64
2021-08-03 12:29:34 GMT 51.803421 5.004792 34,000 322 467 -64
2021-08-03 12:29:31 GMT 51.800213 5.008850 34,000 322 467 -64
2021-08-03 12:29:29 GMT 51.796280 5.013848 34,000 322 467 -64
2021-08-03 12:29:27 GMT 51.786072 5.026691 34,000 322 467 -64
2021-08-03 12:29:24 GMT 51.786072 5.026691 34,000 322 467 -64
2021-08-03 12:29:21 GMT 51.782684 5.030996 34,000 322 467 -64
2021-08-03 12:29:18 GMT 51.777447 5.037613 34,000 322 467 0
2021-08-03 12:29:16 GMT 51.774048 5.041962 34,000 322 467 64
2021-08-03 12:29:13 GMT 51.768768 5.048589 34,000 322 467 64
2021-08-03 12:29:11 GMT 51.765381 5.052894 34,000 322 467 64
2021-08-03 12:29:08 GMT 51.760456 5.059052 33,975 322 467 64
2021-08-03 12:29:06 GMT 51.755173 5.065737 33,975 322 467 64
2021-08-03 12:29:03 GMT 51.748539 5.074081 33,975 323 466 0
2021-08-03 12:29:01 GMT 51.748539 5.074081 33,975 323 466 0
2021-08-03 12:28:58 GMT 51.743637 5.080286 33,975 323 466 0
2021-08-03 12:28:55 GMT 51.736496 5.089194 33,975 323 467 0
2021-08-03 12:28:52 GMT 51.733269 5.093307 33,975 323 468 0
2021-08-03 12:28:49 GMT 51.728302 5.099512 33,975 323 467 0
2021-08-03 12:28:47 GMT 51.719101 5.111018 33,975 323 467 0
2021-08-03 12:28:44 GMT 51.719101 5.111018 34,000 323 470 -64
2021-08-03 12:28:41 GMT 51.715027 5.116140 33,975 323 468 0
2021-08-03 12:28:38 GMT 51.709061 5.123672 33,975 323 468 -64
2021-08-03 12:28:35 GMT 51.702915 5.131378 33,975 323 468 -64
2021-08-03 12:28:32 GMT 51.697796 5.137787 34,000 323 468 -64
2021-08-03 12:28:29 GMT 51.694027 5.142517 33,975 323 468 -64
2021-08-03 12:28:27 GMT 51.689758 5.147837 34,000 323 468 -64
2021-08-03 12:28:24 GMT 51.678818 5.161570 34,000 323 470 -64
2021-08-03 12:28:21 GMT 51.678818 5.161570 34,000 323 470 -64
2021-08-03 12:28:18 GMT 51.675064 5.166247 34,000 323 470 0
2021-08-03 12:28:16 GMT 51.670795 5.171661 34,000 323 470 -64
2021-08-03 12:28:13 GMT 51.667027 5.176392 34,000 323 470 -64
2021-08-03 12:28:11 GMT 51.663757 5.180425 33,975 323 470 -64
2021-08-03 12:28:08 GMT 51.657761 5.187912 34,000 323 470 0
2021-08-03 12:28:05 GMT 51.651443 5.195865 34,000 323 470 -64
2021-08-03 12:28:02 GMT 51.647003 5.201433 34,000 323 470 -64
2021-08-03 12:27:59 GMT 51.642727 5.206833 34,000 323 470 0
2021-08-03 12:27:57 GMT 51.639977 5.210266 34,000 323 470 0
2021-08-03 12:27:55 GMT 51.634483 5.217133 33,975 323 470 0
2021-08-03 12:27:52 GMT 51.629883 5.222886 33,975 323 470 0
2021-08-03 12:27:49 GMT 51.625397 5.228453 34,000 323 470 -64
2021-08-03 12:27:46 GMT 51.619217 5.236173 34,000 323 470 -64
2021-08-03 12:27:43 GMT 51.612030 5.245081 34,000 323 470 -64
2021-08-03 12:27:41 GMT 51.606693 5.251770 34,000 323 470 0
2021-08-03 12:27:39 GMT 51.602596 5.256882 34,000 323 470 0
2021-08-03 12:27:36 GMT 51.602596 5.256882 34,000 323 470 -64
2021-08-03 12:27:33 GMT 51.593987 5.267563 34,000 323 470 -64
2021-08-03 12:27:30 GMT 51.593987 5.267563 34,000 324 471 64
2021-08-03 12:27:27 GMT 51.587311 5.275887 34,000 323 470 -64
2021-08-03 12:27:25 GMT 51.583878 5.280193 33,975 323 470 0
2021-08-03 12:27:22 GMT 51.577553 5.288086 33,975 323 470 0
2021-08-03 12:27:19 GMT 51.575130 5.291061 33,975 323 470 0
2021-08-03 12:27:17 GMT 51.570335 5.297012 33,975 323 470 0
2021-08-03 12:27:15 GMT 51.567764 5.300235 34,000 323 470 0
2021-08-03 12:27:12 GMT 51.561218 5.308327 34,000 323 470 0
2021-08-03 12:27:09 GMT 51.556931 5.313644 34,000 323 470 -64
2021-08-03 12:27:06 GMT 51.553158 5.318375 34,000 323 470 0
2021-08-03 12:27:04 GMT 51.548691 5.323944 34,000 323 470 0
2021-08-03 12:27:01 GMT 51.537376 5.337982 34,000 323 469 -64
2021-08-03 12:26:58 GMT 51.531883 5.344772 33,975 323 469 -64
2021-08-03 12:26:55 GMT 51.531883 5.344772 34,000 323 469 -64
2021-08-03 12:26:52 GMT 51.526764 5.351181 33,975 323 469 0
2021-08-03 12:26:49 GMT 51.522667 5.356293 34,000 323 469 0
2021-08-03 12:26:46 GMT 51.516148 5.364380 34,000 323 469 -64
2021-08-03 12:26:43 GMT 51.507210 5.375443 34,000 323 469 -64
2021-08-03 12:26:40 GMT 51.507210 5.375443 34,000 323 469 -64
2021-08-03 12:26:37 GMT 51.500839 5.383301 34,000 323 469 -64
2021-08-03 12:26:34 GMT 51.496223 5.389023 34,000 323 469 0
2021-08-03 12:26:31 GMT 51.486961 5.400543 33,975 323 469 0
2021-08-03 12:26:28 GMT 51.486961 5.400543 33,975 323 469 0
2021-08-03 12:26:25 GMT 51.481659 5.407129 33,975 323 469 0
2021-08-03 12:26:22 GMT 51.476997 5.412827 34,000 323 469 0
2021-08-03 12:26:20 GMT 51.472046 5.419006 33,975 323 469 0
2021-08-03 12:26:17 GMT 51.465687 5.426865 33,975 323 469 64
2021-08-03 12:26:14 GMT 51.460567 5.433197 33,975 323 469 0
2021-08-03 12:26:11 GMT 51.456470 5.438309 33,975 323 469 0
2021-08-03 12:26:08 GMT 51.452328 5.443344 33,975 323 469 0
2021-08-03 12:26:06 GMT 51.445484 5.451889 33,975 323 469 0
2021-08-03 12:26:04 GMT 51.445484 5.451889 33,975 323 469 0
2021-08-03 12:26:01 GMT 51.439133 5.459685 33,975 323 468 -64
2021-08-03 12:25:58 GMT 51.430775 5.470047 33,975 323 468 -64
2021-08-03 12:25:56 GMT 51.430775 5.470047 33,975 323 468 -64
2021-08-03 12:25:53 GMT 51.427139 5.474532 33,975 323 468 -128
2021-08-03 12:25:50 GMT 51.419632 5.483811 34,000 323 468 -128
2021-08-03 12:25:47 GMT 51.415512 5.488859 34,000 323 468 -128
2021-08-03 12:25:44 GMT 51.409870 5.495834 34,000 323 468 -128
2021-08-03 12:25:41 GMT 51.404892 5.501998 34,000 323 468 -128
2021-08-03 12:25:38 GMT 51.399765 5.508307 34,000 323 467 -128
2021-08-03 12:25:35 GMT 51.395485 5.513535 34,000 323 467 64
2021-08-03 12:25:32 GMT 51.390366 5.519867 34,000 323 467 64
2021-08-03 12:25:29 GMT 51.384174 5.527420 34,000 323 467 192
2021-08-03 12:25:26 GMT 51.381100 5.531235 33,950 323 467 256
2021-08-03 12:25:24 GMT 51.376354 5.537109 33,975 323 465 384
2021-08-03 12:25:21 GMT 51.371063 5.543642 33,950 323 465 384
2021-08-03 12:25:18 GMT 51.363235 5.553218 33,925 323 465 576
2021-08-03 12:25:16 GMT 51.363235 5.553218 33,875 323 465 640
2021-08-03 12:25:14 GMT 51.360340 5.556793 33,875 323 465 704
2021-08-03 12:25:11 GMT 51.355042 5.563313 33,850 323 465 704
2021-08-03 12:25:08 GMT 51.349960 5.569549 33,800 323 465 640
2021-08-03 12:25:06 GMT 51.345886 5.574597 33,800 323 465 640
2021-08-03 12:25:04 GMT 51.341812 5.579570 33,775 323 464 640
2021-08-03 12:25:01 GMT 51.336876 5.585632 33,750 323 464 640
2021-08-03 12:24:58 GMT 51.332291 5.591299 33,725 323 464 576
2021-08-03 12:24:56 GMT 51.328686 5.595627 33,700 323 464 576
2021-08-03 12:24:54 GMT 51.325657 5.599442 33,400 323 462 1344
2021-08-03 12:24:51 GMT 51.319511 5.606918 33,650 323 464 448
2021-08-03 12:24:48 GMT 51.311554 5.616686 33,625 323 462 384
2021-08-03 12:24:46 GMT 51.311554 5.616686 33,625 323 462 384
2021-08-03 12:24:44 GMT 51.303406 5.626707 33,600 323 462 512
2021-08-03 12:24:41 GMT 51.303406 5.626707 33,575 323 462 512
2021-08-03 12:24:38 GMT 51.298370 5.632869 33,550 323 462 768
2021-08-03 12:24:36 GMT 51.294468 5.637665 33,525 323 462 960
2021-08-03 12:24:34 GMT 51.290222 5.642890 33,475 323 462 1152
2021-08-03 12:24:31 GMT 51.281113 5.654099 33,350 323 462 1408
2021-08-03 12:24:28 GMT 51.281113 5.654099 33,350 323 462 1408
2021-08-03 12:24:26 GMT 51.277725 5.658256 33,300 323 463 1472
2021-08-03 12:24:24 GMT 51.274498 5.662231 33,200 323 465 1536
2021-08-03 12:24:21 GMT 51.268570 5.669539 33,050 323 465 1408
2021-08-03 12:24:18 GMT 51.263977 5.675125 33,100 323 465 1408
2021-08-03 12:24:16 GMT 51.261230 5.678482 33,025 323 465 1280
2021-08-03 12:24:13 GMT 51.255783 5.685120 33,000 323 466 1152
2021-08-03 12:24:10 GMT 51.250488 5.691586 32,875 323 466 1024
2021-08-03 12:24:07 GMT 51.241722 5.702209 32,875 323 467 1024
2021-08-03 12:24:05 GMT 51.241722 5.702209 32,850 323 467 1024
2021-08-03 12:24:03 GMT 51.239349 5.705185 32,825 323 466 1024
2021-08-03 12:24:00 GMT 51.233688 5.712074 32,750 323 466 832
2021-08-03 12:23:57 GMT 51.229568 5.717048 32,750 323 466 832
2021-08-03 12:23:55 GMT 51.225128 5.722467 32,700 323 466 768
2021-08-03 12:23:53 GMT 51.217575 5.731597 32,650 323 466 768
2021-08-03 12:23:50 GMT 51.217575 5.731597 32,625 323 466 832
2021-08-03 12:23:47 GMT 51.212769 5.737387 32,625 323 466 960
2021-08-03 12:23:45 GMT 51.208160 5.742950 32,575 323 466 960
2021-08-03 12:23:42 GMT 51.202293 5.750046 32,475 323 467 1280
2021-08-03 12:23:39 GMT 51.197021 5.756465 32,475 323 466 1152
2021-08-03 12:23:36 GMT 51.192753 5.761719 32,375 323 467 1152
2021-08-03 12:23:33 GMT 51.187630 5.767975 32,325 323 467 1216
2021-08-03 12:23:30 GMT 51.180954 5.776136 32,125 323 467 1344
2021-08-03 12:23:27 GMT 51.178253 5.779477 32,125 323 467 1408
2021-08-03 12:23:25 GMT 51.174133 5.784524 32,200 323 467 1472
2021-08-03 12:23:23 GMT 51.170219 5.789337 32,150 323 468 1472
2021-08-03 12:23:20 GMT 51.164402 5.796509 31,950 323 469 1664
2021-08-03 12:23:17 GMT 51.161453 5.800039 31,975 323 470 1728
2021-08-03 12:23:15 GMT 51.152718 5.810776 31,900 323 469 1728
2021-08-03 12:23:13 GMT 51.152718 5.810776 31,875 323 470 1728
2021-08-03 12:23:10 GMT 51.146851 5.817871 31,750 323 471 1664
2021-08-03 12:23:07 GMT 51.143032 5.822525 31,475 323 472 1600
2021-08-03 12:23:04 GMT 51.137447 5.829239 31,650 323 472 1600
2021-08-03 12:23:01 GMT 51.127720 5.840988 31,500 323 473 1408
2021-08-03 12:22:59 GMT 51.127720 5.840988 31,500 323 473 1408
2021-08-03 12:22:56 GMT 51.118687 5.851898 31,350 323 473 1344
2021-08-03 12:22:53 GMT 51.118687 5.851898 31,375 323 473 1344
2021-08-03 12:22:50 GMT 51.113251 5.858459 31,250 323 475 1280
2021-08-03 12:22:47 GMT 51.108540 5.864105 31,225 323 475 1152
2021-08-03 12:22:45 GMT 51.104023 5.869598 31,150 323 475 1152
2021-08-03 12:22:42 GMT 51.099136 5.875549 31,150 323 475 1088
2021-08-03 12:22:40 GMT 51.095856 5.879541 31,125 323 475 1024
2021-08-03 12:22:38 GMT 51.090591 5.885925 31,050 323 475 960
2021-08-03 12:22:35 GMT 51.088165 5.888895 31,000 323 475 960
2021-08-03 12:22:32 GMT 51.081207 5.897357 30,925 323 475 832
2021-08-03 12:22:29 GMT 51.075989 5.903667 30,925 323 473 832
2021-08-03 12:22:26 GMT 51.070404 5.910422 30,900 323 473 832
2021-08-03 12:22:23 GMT 51.066036 5.915680 30,775 323 474 2112
2021-08-03 12:22:20 GMT 51.061661 5.920889 30,625 323 474 1856
2021-08-03 12:22:17 GMT 51.054016 5.930168 30,725 323 473 1344
2021-08-03 12:22:14 GMT 51.046005 5.939818 30,600 323 474 1856
2021-08-03 12:22:11 GMT 51.046005 5.939818 30,625 323 474 2240
2021-08-03 12:22:09 GMT 51.042572 5.944049 30,550 323 474 2112
2021-08-03 12:22:06 GMT 51.036667 5.951249 30,350 323 476 2496
2021-08-03 12:22:03 GMT 51.031448 5.957633 30,200 323 477 2496
2021-08-03 12:22:00 GMT 51.025303 5.965118 30,125 323 480 2560
2021-08-03 12:21:57 GMT 51.020920 5.970475 30,075 323 480 2496
2021-08-03 12:21:55 GMT 51.011719 5.981536 29,850 323 482 2368
2021-08-03 12:21:52 GMT 51.011719 5.981536 29,800 323 484 2304
2021-08-03 12:21:49 GMT 51.006409 5.987994 29,525 323 488 1664
2021-08-03 12:21:46 GMT 51.000488 5.995102 29,625 323 486 2112
2021-08-03 12:21:43 GMT 50.994762 6.001968 29,500 323 487 1920
2021-08-03 12:21:40 GMT 50.989563 6.008185 29,350 323 488 1664
2021-08-03 12:21:37 GMT 50.984013 6.014862 29,300 324 490 1536
2021-08-03 12:21:34 GMT 50.979858 6.019765 29,150 324 490 1472
2021-08-03 12:21:31 GMT 50.975677 6.024780 29,200 324 490 1536
2021-08-03 12:21:29 GMT 50.970978 6.030350 29,150 324 490 1472
2021-08-03 12:21:26 GMT 50.964458 6.038055 29,050 324 490 1472
2021-08-03 12:21:23 GMT 50.959431 6.044083 28,975 324 490 1536
2021-08-03 12:21:21 GMT 50.949982 6.055374 28,900 324 490 1408
2021-08-03 12:21:18 GMT 50.945847 6.060296 28,825 323 491 1472
2021-08-03 12:21:15 GMT 50.945847 6.060296 28,700 323 491 1536
2021-08-03 12:21:12 GMT 50.934433 6.073914 28,675 323 491 1536
2021-08-03 12:21:09 GMT 50.934433 6.073914 28,625 323 491 1536
2021-08-03 12:21:07 GMT 50.930801 6.078262 28,575 323 491 1664
2021-08-03 12:21:05 GMT 50.928085 6.081526 28,425 323 493 2112
2021-08-03 12:21:02 GMT 50.921173 6.089840 28,400 323 493 2112
2021-08-03 12:20:59 GMT 50.917923 6.093701 28,375 323 493 2112
2021-08-03 12:20:57 GMT 50.912476 6.100307 28,225 323 495 2112
2021-08-03 12:20:55 GMT 50.908642 6.104889 28,175 323 495 2112
2021-08-03 12:20:52 GMT 50.902081 6.112747 28,000 323 497 1024
2021-08-03 12:20:49 GMT 50.897701 6.118011 28,000 323 496 1344
2021-08-03 12:20:46 GMT 50.891693 6.125249 27,850 323 497 1024
2021-08-03 12:20:43 GMT 50.887089 6.130753 27,875 323 497 1024
2021-08-03 12:20:40 GMT 50.875031 6.145248 27,775 323 496 1024
2021-08-03 12:20:37 GMT 50.875031 6.145248 27,775 323 496 1024
2021-08-03 12:20:34 GMT 50.865005 6.157243 27,700 324 495 1024
2021-08-03 12:20:31 GMT 50.865005 6.157243 27,650 324 495 960
2021-08-03 12:20:28 GMT 50.858780 6.164592 27,625 324 494 896
2021-08-03 12:20:25 GMT 50.854923 6.169128 27,575 324 494 896
2021-08-03 12:20:22 GMT 50.848526 6.176766 27,550 324 494 832
2021-08-03 12:20:19 GMT 50.844177 6.181962 27,450 323 493 768
2021-08-03 12:20:16 GMT 50.837791 6.189499 27,425 323 492 768
2021-08-03 12:20:13 GMT 50.828156 6.200966 27,425 324 492 768
2021-08-03 12:20:11 GMT 50.828156 6.200966 27,400 323 491 768
2021-08-03 12:20:08 GMT 50.823639 6.206360 27,375 323 491 768
2021-08-03 12:20:06 GMT 50.820923 6.209651 27,325 323 490 832
2021-08-03 12:20:04 GMT 50.817493 6.213760 27,275 323 489 768
2021-08-03 12:20:01 GMT 50.809208 6.223602 27,275 323 489 704
2021-08-03 12:19:58 GMT 50.806503 6.226873 27,150 323 487 832
2021-08-03 12:19:55 GMT 50.799271 6.235484 27,200 323 488 704
2021-08-03 12:19:52 GMT 50.792309 6.243820 27,150 323 487 896
2021-08-03 12:19:50 GMT 50.792309 6.243820 27,150 323 487 896
2021-08-03 12:19:48 GMT 50.787094 6.250033 27,100 323 486 960
2021-08-03 12:19:45 GMT 50.782059 6.256046 27,050 323 486 960
2021-08-03 12:19:42 GMT 50.775970 6.263321 27,000 324 485 960
2021-08-03 12:19:39 GMT 50.770248 6.270076 26,950 324 485 896
2021-08-03 12:19:36 GMT 50.765404 6.275787 26,875 324 484 832
2021-08-03 12:19:33 GMT 50.759857 6.282398 26,825 319 482 832
2021-08-03 12:19:30 GMT 50.756287 6.286629 26,825 322 483 768
2021-08-03 12:19:28 GMT 50.752274 6.291656 26,825 320 482 832
2021-08-03 12:19:25 GMT 50.746307 6.299546 26,775 319 482 832
2021-08-03 12:19:22 GMT 50.742325 6.305262 26,700 314 480 1344
2021-08-03 12:19:19 GMT 50.732815 6.320419 26,550 310 480 1600
2021-08-03 12:19:16 GMT 50.732815 6.320419 26,550 311 480 1600
2021-08-03 12:19:13 GMT 50.723644 6.337509 26,475 309 480 1600
2021-08-03 12:19:10 GMT 50.723644 6.337509 26,375 307 480 1536
2021-08-03 12:19:07 GMT 50.720154 6.344757 26,300 305 479 1472
2021-08-03 12:19:05 GMT 50.716614 6.352768 26,275 304 480 1408
2021-08-03 12:19:02 GMT 50.713577 6.360119 26,225 302 480 1344
2021-08-03 12:18:59 GMT 50.710236 6.368713 26,150 299 479 1152
2021-08-03 12:18:56 GMT 50.707123 6.377563 26,075 297 478 1024
2021-08-03 12:18:53 GMT 50.703186 6.390034 26,025 286 471 1152
2021-08-03 12:18:50 GMT 50.700989 6.397680 26,000 294 477 832
2021-08-03 12:18:48 GMT 50.699661 6.402802 25,975 292 477 768
2021-08-03 12:18:45 GMT 50.697948 6.409607 25,950 291 476 832
2021-08-03 12:18:43 GMT 50.695713 6.419373 25,725 287 474 1152
2021-08-03 12:18:40 GMT 50.693619 6.429901 25,850 287 474 1152
2021-08-03 12:18:38 GMT 50.692703 6.434871 25,800 286 474 1088
2021-08-03 12:18:35 GMT 50.690266 6.448517 25,725 286 474 1152
2021-08-03 12:18:32 GMT 50.686867 6.467743 25,675 286 473 1088
2021-08-03 12:18:29 GMT 50.685471 6.475754 25,625 286 473 1088
2021-08-03 12:18:26 GMT 50.684074 6.483688 25,550 286 472 1152
2021-08-03 12:18:24 GMT 50.684074 6.483688 25,550 286 472 1088
2021-08-03 12:18:21 GMT 50.682587 6.492310 25,500 286 472 1152
2021-08-03 12:18:18 GMT 50.680527 6.503832 25,425 286 471 1152
2021-08-03 12:18:15 GMT 50.679092 6.512070 25,375 286 471 1152
2021-08-03 12:18:13 GMT 50.677929 6.518707 25,275 286 470 1152
2021-08-03 12:18:09 GMT 50.675766 6.530927 25,200 286 468 1216
2021-08-03 12:18:07 GMT 50.674164 6.540131 25,200 286 468 1216
2021-08-03 12:18:04 GMT 50.672810 6.547699 25,175 286 468 1216
2021-08-03 12:18:01 GMT 50.671085 6.557576 25,050 286 468 1280
2021-08-03 12:17:58 GMT 50.669132 6.568711 25,025 286 468 1344
2021-08-03 12:17:55 GMT 50.667969 6.575243 25,000 286 468 1344
2021-08-03 12:17:52 GMT 50.665512 6.589339 24,900 286 467 1280
2021-08-03 12:17:49 GMT 50.663731 6.599517 24,800 286 466 1280
2021-08-03 12:17:46 GMT 50.662308 6.607698 24,725 286 467 1216
2021-08-03 12:17:43 GMT 50.660110 6.620130 24,675 286 466 1216
2021-08-03 12:17:40 GMT 50.658890 6.626983 24,625 286 466 1216
2021-08-03 12:17:37 GMT 50.655121 6.648174 24,575 286 465 1152
2021-08-03 12:17:34 GMT 50.655121 6.648174 24,500 286 462 1088
2021-08-03 12:17:31 GMT 50.653748 6.655980 24,450 286 463 1088
2021-08-03 12:17:28 GMT 50.652092 6.665361 24,450 286 463 1088
2021-08-03 12:17:25 GMT 50.650372 6.675085 24,325 286 462 1088
2021-08-03 12:17:22 GMT 50.648323 6.686740 24,300 286 461 1152
2021-08-03 12:17:19 GMT 50.646423 6.697396 24,250 286 461 1152
2021-08-03 12:17:16 GMT 50.644970 6.705446 24,200 286 460 1152
2021-08-03 12:17:14 GMT 50.642410 6.719624 23,775 287 456 1280
2021-08-03 12:17:12 GMT 50.642410 6.719624 24,100 286 458 1152
2021-08-03 12:17:08 GMT 50.639923 6.733463 24,025 286 458 1152
2021-08-03 12:17:05 GMT 50.638870 6.739173 24,025 287 458 1152
2021-08-03 12:17:02 GMT 50.636673 6.751388 23,925 287 457 1280
2021-08-03 12:16:59 GMT 50.635117 6.759627 23,875 287 457 1280
2021-08-03 12:16:57 GMT 50.633892 6.766390 23,775 287 456 1216
2021-08-03 12:16:54 GMT 50.632278 6.774951 23,700 287 455 1216
2021-08-03 12:16:51 GMT 50.630630 6.783841 23,600 287 455 1152
2021-08-03 12:16:48 GMT 50.628983 6.792731 23,650 287 455 1152
2021-08-03 12:16:45 GMT 50.625000 6.814342 22,975 287 452 1024
2021-08-03 12:16:42 GMT 50.623581 6.821859 22,975 287 452 1024
2021-08-03 12:16:39 GMT 50.623581 6.821859 23,500 287 452 960
2021-08-03 12:16:36 GMT 50.621277 6.834164 23,300 287 451 1152
2021-08-03 12:16:33 GMT 50.619919 6.841447 23,400 287 451 1152
2021-08-03 12:16:30 GMT 50.618111 6.851163 23,325 287 450 1280
2021-08-03 12:16:27 GMT 50.616203 6.861185 23,150 287 448 1344
2021-08-03 12:16:23 GMT 50.613922 6.873394 23,125 287 447 1344
2021-08-03 12:16:20 GMT 50.612000 6.883441 23,100 287 448 1344
2021-08-03 12:16:17 GMT 50.608795 6.900281 22,975 287 447 1344
2021-08-03 12:16:14 GMT 50.608795 6.900281 22,950 287 447 1344
2021-08-03 12:16:11 GMT 50.606518 6.912405 22,875 287 447 1344
2021-08-03 12:16:08 GMT 50.605076 6.919828 22,700 287 446 1344
2021-08-03 12:16:05 GMT 50.603634 6.927251 22,700 287 446 1344
2021-08-03 12:16:02 GMT 50.601257 6.939648 22,675 287 444 1344
2021-08-03 12:15:59 GMT 50.599548 6.948636 22,600 287 444 1408
2021-08-03 12:15:56 GMT 50.596695 6.963773 22,525 287 443 1408
2021-08-03 12:15:53 GMT 50.596695 6.963773 22,525 287 443 1408
2021-08-03 12:15:50 GMT 50.594509 6.975502 22,425 286 443 1408
2021-08-03 12:15:47 GMT 50.592773 6.985136 22,275 285 440 1408
2021-08-03 12:15:44 GMT 50.589844 7.001833 22,300 286 441 1408
2021-08-03 12:15:41 GMT 50.589844 7.001833 22,150 285 440 1344
2021-08-03 12:15:38 GMT 50.587830 7.014192 22,125 284 438 1344
2021-08-03 12:15:35 GMT 50.586128 7.025089 22,050 284 438 1344
2021-08-03 12:15:32 GMT 50.585293 7.030656 22,000 283 437 1344
2021-08-03 12:15:29 GMT 50.582684 7.048620 21,900 283 437 1344
2021-08-03 12:15:26 GMT 50.582684 7.048620 21,525 283 437 1408
2021-08-03 12:15:23 GMT 50.581284 7.058210 21,825 283 436 1408
2021-08-03 12:15:20 GMT 50.579845 7.068440 21,675 283 436 1408
2021-08-03 12:15:17 GMT 50.578354 7.078907 21,625 283 435 1408
2021-08-03 12:15:14 GMT 50.577393 7.086037 21,575 283 435 1408
2021-08-03 12:15:11 GMT 50.576111 7.095289 21,475 283 434 1472
2021-08-03 12:15:08 GMT 50.574631 7.106076 21,450 282 434 1472
2021-08-03 12:15:06 GMT 50.573792 7.112237 21,375 282 432 1472
2021-08-03 12:15:03 GMT 50.571095 7.133170 21,300 282 432 1472
2021-08-03 12:15:00 GMT 50.571095 7.133170 21,225 281 431 1408
2021-08-03 12:14:57 GMT 50.570709 7.136560 21,200 281 431 1408
2021-08-03 12:14:55 GMT 50.569511 7.146087 21,100 281 430 1408
2021-08-03 12:14:52 GMT 50.568485 7.154698 21,025 281 429 1408
2021-08-03 12:14:49 GMT 50.567505 7.162941 21,000 281 429 1408
2021-08-03 12:14:46 GMT 50.566113 7.174295 20,900 281 428 1472
2021-08-03 12:14:43 GMT 50.565170 7.181951 20,825 281 427 1408
2021-08-03 12:14:40 GMT 50.563877 7.192630 20,475 281 425 1408
2021-08-03 12:14:37 GMT 50.563065 7.199008 20,700 281 426 1472
2021-08-03 12:14:35 GMT 50.561966 7.208115 20,450 281 425 1408
2021-08-03 12:14:32 GMT 50.559872 7.224773 20,575 281 425 1408
2021-08-03 12:14:29 GMT 50.559872 7.224773 20,500 281 424 1344
2021-08-03 12:14:26 GMT 50.558617 7.235091 20,400 281 424 1344
2021-08-03 12:14:23 GMT 50.557732 7.242366 20,075 282 423 1344
2021-08-03 12:14:20 GMT 50.555191 7.262541 20,225 282 422 1408
2021-08-03 12:14:17 GMT 50.555191 7.262541 20,200 282 421 1536
2021-08-03 12:14:14 GMT 50.554413 7.269191 20,150 282 421 1600
2021-08-03 12:14:11 GMT 50.552052 7.288093 20,050 282 416 1600
2021-08-03 12:14:08 GMT 50.552052 7.288093 19,950 281 419 1600
2021-08-03 12:14:05 GMT 50.550751 7.298536 19,875 281 419 1664
2021-08-03 12:14:02 GMT 50.550018 7.304535 19,825 281 419 1664
2021-08-03 12:13:59 GMT 50.548553 7.316533 19,625 281 419 1600
2021-08-03 12:13:56 GMT 50.547455 7.325496 19,675 282 418 1600
2021-08-03 12:13:53 GMT 50.546513 7.332929 19,600 282 417 1536
2021-08-03 12:13:50 GMT 50.545258 7.343024 19,525 282 417 1600
2021-08-03 12:13:47 GMT 50.544205 7.351660 19,425 282 417 1600
2021-08-03 12:13:45 GMT 50.543766 7.354901 19,300 282 416 1600
2021-08-03 12:13:42 GMT 50.542461 7.365591 19,300 282 416 1600
2021-08-03 12:13:39 GMT 50.541485 7.373311 19,225 282 416 1600
2021-08-03 12:13:36 GMT 50.540176 7.383680 19,125 282 415 1600
2021-08-03 12:13:33 GMT 50.539204 7.391646 19,050 282 414 1664
2021-08-03 12:13:30 GMT 50.537716 7.403523 18,950 282 414 1664
2021-08-03 12:13:26 GMT 50.535049 7.424445 18,775 282 414 1600
2021-08-03 12:13:22 GMT 50.535049 7.424445 18,750 282 413 1408
2021-08-03 12:13:19 GMT 50.533665 7.435294 18,675 282 411 1536
2021-08-03 12:13:16 GMT 50.532921 7.441233 18,625 282 412 1408
2021-08-03 12:13:14 GMT 50.532173 7.447097 18,475 282 412 1408
2021-08-03 12:13:11 GMT 50.531158 7.455019 18,450 282 412 1408
2021-08-03 12:13:08 GMT 50.529602 7.466728 18,450 282 411 1536
2021-08-03 12:13:05 GMT 50.528728 7.473375 18,250 283 410 1856
2021-08-03 12:13:02 GMT 50.527100 7.485030 18,275 283 410 1856
2021-08-03 12:12:58 GMT 50.525425 7.496684 18,150 284 410 1984
2021-08-03 12:12:55 GMT 50.524109 7.505035 18,000 285 410 1920
2021-08-03 12:12:52 GMT 50.522633 7.513980 17,950 286 410 1856
2021-08-03 12:12:49 GMT 50.521561 7.520290 17,725 289 410 1664
2021-08-03 12:12:46 GMT 50.519897 7.529104 17,775 289 410 1664
2021-08-03 12:12:44 GMT 50.518768 7.534543 17,650 290 410 1664
2021-08-03 12:12:41 GMT 50.516602 7.544355 17,625 292 410 1600
2021-08-03 12:12:38 GMT 50.515091 7.550426 17,575 294 410 1600
2021-08-03 12:12:35 GMT 50.511932 7.562569 17,425 294 410 1664
2021-08-03 12:12:32 GMT 50.510056 7.569074 17,375 297 410 1792
2021-08-03 12:12:29 GMT 50.507401 7.577603 17,250 299 410 1984
2021-08-03 12:12:26 GMT 50.505066 7.584397 17,225 300 411 1984
2021-08-03 12:12:24 GMT 50.504150 7.586999 17,000 301 410 2048
2021-08-03 12:12:21 GMT 50.500992 7.595167 17,000 304 411 1984
2021-08-03 12:12:18 GMT 50.493027 7.613309 16,925 306 411 1920
2021-08-03 12:12:15 GMT 50.493027 7.613309 16,775 310 413 1728
2021-08-03 12:12:12 GMT 50.490044 7.619241 16,725 312 413 1728
2021-08-03 12:12:09 GMT 50.486649 7.625625 16,300 314 413 1664
2021-08-03 12:12:06 GMT 50.482407 7.632968 16,600 314 413 1664
2021-08-03 12:12:03 GMT 50.479523 7.637739 16,500 316 413 1664
2021-08-03 12:12:00 GMT 50.475288 7.644257 16,450 318 414 1728
2021-08-03 12:11:57 GMT 50.468723 7.653462 16,325 320 413 1856
2021-08-03 12:11:54 GMT 50.466843 7.656025 15,975 323 413 1920
2021-08-03 12:11:51 GMT 50.461487 7.662747 16,125 324 413 1920
2021-08-03 12:11:48 GMT 50.456760 7.668383 16,000 324 413 1920
2021-08-03 12:11:45 GMT 50.446239 7.680334 15,925 324 413 1920
2021-08-03 12:11:42 GMT 50.446239 7.680334 15,850 324 413 1856
2021-08-03 12:11:39 GMT 50.443493 7.683526 15,750 324 411 1728
2021-08-03 12:11:36 GMT 50.438416 7.689273 15,675 324 411 1664
2021-08-03 12:11:33 GMT 50.435486 7.692657 15,275 324 410 1728
2021-08-03 12:11:30 GMT 50.428738 7.700377 15,200 325 409 1792
2021-08-03 12:11:27 GMT 50.425186 7.704379 15,475 324 410 1792
2021-08-03 12:11:24 GMT 50.420609 7.709656 15,275 325 409 1792
2021-08-03 12:11:21 GMT 50.415237 7.715743 15,275 325 409 1792
2021-08-03 12:11:17 GMT 50.409897 7.721799 15,175 325 408 1856
2021-08-03 12:11:14 GMT 50.404678 7.727653 14,700 325 405 1984
2021-08-03 12:11:11 GMT 50.399639 7.733336 14,700 325 405 1984
2021-08-03 12:11:08 GMT 50.396568 7.736750 14,850 325 406 1920
2021-08-03 12:11:05 GMT 50.391075 7.742912 14,775 325 406 1920
2021-08-03 12:11:03 GMT 50.389114 7.745144 14,675 325 405 1984
2021-08-03 12:11:00 GMT 50.383621 7.751360 14,575 324 404 1984
2021-08-03 12:10:57 GMT 50.377579 7.758227 14,500 324 404 1984
2021-08-03 12:10:53 GMT 50.373047 7.763359 14,350 325 403 1920
2021-08-03 12:10:50 GMT 50.368637 7.768373 14,225 325 403 1984
2021-08-03 12:10:47 GMT 50.363388 7.774345 14,200 325 403 1920
2021-08-03 12:10:44 GMT 50.359131 7.779115 14,025 325 402 1856
2021-08-03 12:10:41 GMT 50.355976 7.782700 13,300 325 401 1728
2021-08-03 12:10:38 GMT 50.345734 7.794354 13,900 325 401 1728
2021-08-03 12:10:35 GMT 50.345734 7.794354 13,825 324 400 1728
2021-08-03 12:10:33 GMT 50.343521 7.796896 13,775 324 400 1664
2021-08-03 12:10:30 GMT 50.338394 7.802678 13,675 324 399 1600
2021-08-03 12:10:27 GMT 50.333908 7.807738 13,625 325 397 1664
2021-08-03 12:10:24 GMT 50.329147 7.813159 13,525 325 397 1664
2021-08-03 12:10:21 GMT 50.325577 7.817206 13,450 325 396 1856
2021-08-03 12:10:18 GMT 50.320969 7.822414 13,300 325 395 1984
2021-08-03 12:10:15 GMT 50.315659 7.828427 13,300 325 394 2048
2021-08-03 12:10:12 GMT 50.311798 7.832732 13,150 325 394 2240
2021-08-03 12:10:09 GMT 50.307220 7.837878 13,000 325 394 2240
2021-08-03 12:10:06 GMT 50.301182 7.844684 12,950 325 393 2176
2021-08-03 12:10:03 GMT 50.298203 7.848024 12,675 325 391 1920
2021-08-03 12:10:00 GMT 50.292480 7.854502 12,725 325 392 1984
2021-08-03 12:09:57 GMT 50.288956 7.858477 12,625 325 390 1856
2021-08-03 12:09:54 GMT 50.285263 7.862648 12,575 325 391 1856
2021-08-03 12:09:51 GMT 50.281036 7.867440 12,450 325 389 1920
2021-08-03 12:09:47 GMT 50.275623 7.873486 12,400 325 389 1984
2021-08-03 12:09:44 GMT 50.270969 7.878756 11,550 325 384 1856
2021-08-03 12:09:42 GMT 50.268173 7.881895 12,150 325 387 2176
2021-08-03 12:09:39 GMT 50.263275 7.887461 12,050 325 387 2176
2021-08-03 12:09:36 GMT 50.258774 7.892489 11,725 325 386 2048
2021-08-03 12:09:33 GMT 50.253387 7.898519 11,775 325 385 2048
2021-08-03 12:09:30 GMT 50.248764 7.903723 11,725 325 385 2112
2021-08-03 12:09:27 GMT 50.245880 7.906976 11,725 325 385 2112
2021-08-03 12:09:24 GMT 50.240246 7.913348 11,550 325 384 1920
2021-08-03 12:09:20 GMT 50.236084 7.918035 11,400 325 382 1920
2021-08-03 12:09:17 GMT 50.226467 7.928863 11,300 325 381 2048
2021-08-03 12:09:14 GMT 50.222462 7.933391 11,225 325 381 2240
2021-08-03 12:09:11 GMT 50.217064 7.939478 10,950 325 381 2240
2021-08-03 12:09:08 GMT 50.217064 7.939478 11,000 324 380 2112
2021-08-03 12:09:04 GMT 50.212921 7.944199 10,875 325 380 2112
2021-08-03 12:09:02 GMT 50.210083 7.947380 10,800 325 380 1984
2021-08-03 12:08:59 GMT 50.206650 7.951283 10,700 325 379 1984
2021-08-03 12:08:56 GMT 50.200256 7.958481 10,600 325 378 1920
2021-08-03 12:08:52 GMT 50.196301 7.962935 10,500 325 378 1856
2021-08-03 12:08:49 GMT 50.190491 7.969497 10,400 324 377 1792
2021-08-03 12:08:46 GMT 50.188389 7.971917 10,300 324 375 1920
2021-08-03 12:08:43 GMT 50.183762 7.977158 10,275 324 375 1984
2021-08-03 12:08:40 GMT 50.179447 7.982087 10,050 325 373 2304
2021-08-03 12:08:37 GMT 50.173817 7.988397 9,975 325 373 2496
2021-08-03 12:08:34 GMT 50.170074 7.992626 9,875 325 373 2496
2021-08-03 12:08:32 GMT 50.163345 8.000143 9,750 325 373 2496
2021-08-03 12:08:29 GMT 50.163345 8.000143 9,600 325 373 2432
2021-08-03 12:08:26 GMT 50.159683 8.004191 9,425 325 373 2432
2021-08-03 12:08:23 GMT 50.156174 8.008142 9,425 325 373 2432
2021-08-03 12:08:21 GMT 50.151215 8.013514 9,325 325 373 2432
2021-08-03 12:08:18 GMT 50.149376 8.015566 8,975 325 373 2304
2021-08-03 12:08:15 GMT 50.144302 8.021133 9,025 325 373 2240
2021-08-03 12:08:12 GMT 50.139507 8.026403 8,950 325 373 1792
2021-08-03 12:08:09 GMT 50.135147 8.031223 8,850 325 372 1344
2021-08-03 12:08:06 GMT 50.131485 8.035270 8,825 325 368 832
2021-08-03 12:08:03 GMT 50.124207 8.043221 8,775 325 368 832
2021-08-03 12:08:01 GMT 50.124207 8.043221 8,775 325 367 704
2021-08-03 12:07:58 GMT 50.120747 8.046966 8,725 326 361 640
2021-08-03 12:07:55 GMT 50.115208 8.052979 8,700 326 362 640
2021-08-03 12:07:52 GMT 50.112350 8.056159 8,700 326 359 640
2021-08-03 12:07:49 GMT 50.106354 8.062592 8,625 326 352 704
2021-08-03 12:07:45 GMT 50.102451 8.066786 8,600 326 352 704
2021-08-03 12:07:42 GMT 50.099518 8.069978 8,575 326 350 576
2021-08-03 12:07:39 GMT 50.094589 8.075168 8,525 326 339 896
2021-08-03 12:07:35 GMT 50.088673 8.081484 8,500 326 340 768
2021-08-03 12:07:32 GMT 50.085159 8.085215 8,450 325 337 1280
2021-08-03 12:07:29 GMT 50.081505 8.089352 8,400 323 335 1152
2021-08-03 12:07:26 GMT 50.078247 8.093382 8,125 310 319 1024
2021-08-03 12:07:23 GMT 50.074196 8.098854 8,300 317 328 896
2021-08-03 12:07:21 GMT 50.071472 8.102923 8,250 315 325 1024
2021-08-03 12:07:18 GMT 50.069027 8.106797 8,175 313 324 1152
2021-08-03 12:07:15 GMT 50.066528 8.111090 8,175 312 321 1152
2021-08-03 12:07:12 GMT 50.062836 8.118006 8,100 309 318 1024
2021-08-03 12:07:09 GMT 50.059937 8.123956 8,050 305 312 1344
2021-08-03 12:07:05 GMT 50.057144 8.130244 7,975 303 310 1344
2021-08-03 12:07:02 GMT 50.054363 8.137232 7,900 300 306 1216
2021-08-03 12:06:58 GMT 50.051514 8.145134 7,800 298 304 1280
2021-08-03 12:06:55 GMT 50.048264 8.155253 7,625 296 298 1408
2021-08-03 12:06:52 GMT 50.048264 8.155253 7,625 296 295 1472
2021-08-03 12:06:49 GMT 50.045929 8.162986 7,600 295 296 1472
2021-08-03 12:06:46 GMT 50.044727 8.167073 7,550 296 295 1536
2021-08-03 12:06:43 GMT 50.042679 8.173756 7,475 295 292 1280
2021-08-03 12:06:40 GMT 50.041374 8.178134 7,400 295 289 1280
2021-08-03 12:06:37 GMT 50.039291 8.185104 7,350 295 288 1600
2021-08-03 12:06:34 GMT 50.037930 8.189788 7,275 295 286 2048
2021-08-03 12:06:31 GMT 50.036255 8.195430 7,150 296 284 2432
2021-08-03 12:06:28 GMT 50.033066 8.205992 6,900 296 285 2816
2021-08-03 12:06:25 GMT 50.033066 8.205992 6,850 296 285 2816
2021-08-03 12:06:21 GMT 50.030201 8.215398 6,675 296 286 2752
2021-08-03 12:06:18 GMT 50.028900 8.219481 6,525 297 286 2112
2021-08-03 12:06:15 GMT 50.027252 8.224857 6,400 297 286 2112
2021-08-03 12:06:11 GMT 50.024918 8.232229 6,225 297 284 1792
2021-08-03 12:06:08 GMT 50.023041 8.238084 6,100 297 283 1856
2021-08-03 12:06:05 GMT 50.021393 8.243215 6,150 297 283 1856
2021-08-03 12:06:02 GMT 50.018509 8.252250 6,000 296 279 1792
2021-08-03 12:05:57 GMT 50.017029 8.257191 5,875 291 275 1728
2021-08-03 12:05:54 GMT 50.015491 8.263500 5,825 289 274 1664
2021-08-03 12:05:50 GMT 50.014095 8.270998 5,700 282 269 1856
2021-08-03 12:05:47 GMT 50.013397 8.276342 5,450 260 262 2752
2021-08-03 12:05:44 GMT 50.012924 8.282246 5,525 274 265 2176
2021-08-03 12:05:41 GMT 50.012791 8.287700 5,350 269 263 2432
2021-08-03 12:05:38 GMT 50.012836 8.292673 5,325 266 262 2560
2021-08-03 12:05:34 GMT 50.013443 8.301656 5,100 262 262 2624
2021-08-03 12:05:31 GMT 50.014004 8.306852 5,000 260 262 2752
2021-08-03 12:05:28 GMT 50.014664 8.312169 4,825 260 262 2432
2021-08-03 12:05:25 GMT 50.015350 8.317912 4,725 260 262 2368
2021-08-03 12:05:22 GMT 50.016098 8.324222 4,600 260 261 2112
2021-08-03 12:05:20 GMT 50.016541 8.327709 4,550 260 260 2112
2021-08-03 12:05:16 GMT 50.017273 8.333925 4,300 260 258 2176
2021-08-03 12:05:13 GMT 50.018051 8.340330 4,300 260 257 2176
2021-08-03 12:05:10 GMT 50.018646 8.345273 4,250 260 257 2176
2021-08-03 12:05:07 GMT 50.019215 8.349758 4,100 260 256 2176
2021-08-03 12:05:04 GMT 50.019913 8.355548 3,900 260 254 2240
2021-08-03 12:05:01 GMT 50.020569 8.360813 3,900 260 254 2240
2021-08-03 12:04:58 GMT 50.021484 8.368257 3,725 260 252 2112
2021-08-03 12:04:54 GMT 50.022102 8.373438 3,575 260 251 1920
2021-08-03 12:04:50 GMT 50.023087 8.381412 3,450 259 248 1664
2021-08-03 12:04:47 GMT 50.023731 8.386503 3,400 259 247 1472
2021-08-03 12:04:44 GMT 50.024368 8.391603 3,300 259 244 1344
2021-08-03 12:04:41 GMT 50.024963 8.396084 3,275 259 242 1280
2021-08-03 12:04:37 GMT 50.025871 8.403056 3,150 258 238 1408
2021-08-03 12:04:34 GMT 50.026619 8.408401 3,100 258 234 1728
2021-08-03 12:04:30 GMT 50.027435 8.414226 3,025 258 234 1728
2021-08-03 12:04:27 GMT 50.028214 8.419792 2,875 258 232 1792
2021-08-03 12:04:24 GMT 50.028946 8.424996 2,775 260 231 1216
2021-08-03 12:04:21 GMT 50.029690 8.431339 2,750 263 229 768
2021-08-03 12:04:17 GMT 50.030155 8.437203 2,700 267 223 640
2021-08-03 12:04:14 GMT 50.030342 8.441434 2,700 269 221 832
2021-08-03 12:04:11 GMT 50.030411 8.446318 2,650 270 219 1088
2021-08-03 12:04:07 GMT 50.030319 8.453184 2,550 277 208 896
2021-08-03 12:04:02 GMT 50.030064 8.459250 2,450 276 211 896
2021-08-03 12:03:59 GMT 50.029724 8.464532 2,425 277 206 1024
2021-08-03 12:03:56 GMT 50.029358 8.468941 2,400 278 202 1024
2021-08-03 12:03:53 GMT 50.029083 8.472909 2,350 278 204 1088
2021-08-03 12:03:50 GMT 50.028671 8.477109 2,275 279 201 1280
2021-08-03 12:03:47 GMT 50.028107 8.483227 2,200 279 199 1664
2021-08-03 12:03:43 GMT 50.027710 8.486794 2,075 279 198 2432
2021-08-03 12:03:40 GMT 50.027317 8.490873 2,025 278 198 2496
2021-08-03 12:03:39 GMT 50.027023 8.495251 1,900 275 197 2560
2021-08-03 12:03:37 GMT 50.027023 8.495251 1,875 273 198 2496
2021-08-03 12:03:36 GMT 50.026932 8.496696 1,850 273 198 2496
2021-08-03 12:03:34 GMT 50.026886 8.499515 1,750 271 198 2496
2021-08-03 12:03:33 GMT 50.026886 8.500888 1,725 269 197 2560
2021-08-03 12:03:31 GMT 50.026932 8.502912 1,650 266 197 2624
2021-08-03 12:03:30 GMT 50.027023 8.505442 1,575 264 197 2752
2021-08-03 12:03:29 GMT 50.027161 8.506815 1,525 262 197 2752
2021-08-03 12:03:28 GMT 50.027390 8.509634 1,450 259 196 2752
2021-08-03 12:03:25 GMT 50.027828 8.512845 1,325 257 196 2688
2021-08-03 12:03:24 GMT 50.028214 8.515416 1,250 254 196 2624
2021-08-03 12:03:21 GMT 50.028671 8.517874 1,175 252 197 2560
2021-08-03 12:03:19 GMT 50.029366 8.521011 1,075 251 196 2624
2021-08-03 12:03:17 GMT 50.029968 8.523609 1,000 250 196 2624
2021-08-03 12:03:16 GMT 50.030296 8.524945 950 250 196 2560
2021-08-03 12:03:14 GMT 50.030762 8.526801 900 250 196 2368
2021-08-03 12:03:13 GMT 50.031086 8.528137 850 250 196 2304
2021-08-03 12:03:11 GMT 50.032059 8.532185 725 250 194 2048
2021-08-03 12:03:07 GMT 50.033089 8.536525 625 250 193 2048
2021-08-03 12:03:00 GMT 50.035309 8.545701 400 250 177 0
2021-08-03 12:02:49 GMT 50.038395 8.558721 350 250 167 -64
2021-08-03 12:02:39 GMT 50.040894 8.569264 350 250 135 -64
2021-08-03 12:02:29 GMT 50.042816 8.577214 375 250 92
2021-08-03 12:02:23 GMT 50.043667 8.580842 0 250 72
2021-08-03 12:02:19 GMT 50.044086 8.582586 0 250 54
2021-08-03 12:02:10 GMT 50.044636 8.584894 0 250 12
2021-08-03 12:02:06 GMT 50.044693 8.585111 0 250 8
2021-08-03 12:01:59 GMT 50.044762 8.585407 0 247 6
2021-08-03 12:01:49 GMT 50.044842 8.585778 0 244 7
2021-08-03 12:01:38 GMT 50.044991 8.586285 0 180 9
2021-08-03 12:01:28 GMT 50.045414 8.586205 0 160 9
2021-08-03 12:01:17 GMT 50.045784 8.585982 0 157 8
2021-08-03 12:01:09 GMT 50.046101 8.585797 0 154 8
2021-08-03 12:00:56 GMT 50.046494 8.585481 0 104 10
2021-08-03 12:00:46 GMT 50.046543 8.584869 0 70 8
2021-08-03 11:59:18 GMT 50.045963 8.582400 0 70 11
2021-08-03 11:58:49 GMT 50.045471 8.580322 0 70 11
2021-08-03 11:58:35 GMT 50.045238 8.579357 0 70 12
2021-08-03 11:58:25 GMT 50.045052 8.578596 0 70 12
2021-08-03 11:58:13 GMT 50.044842 8.577702 0 70 12
2021-08-03 11:58:00 GMT 50.044613 8.576763 0 70 11
2021-08-03 11:57:49 GMT 50.044422 8.575943 0 70 11
2021-08-03 11:57:45 GMT 50.044365 8.575701 0 70 11
2021-08-03 11:57:30 GMT 50.044109 8.574594 0 70 12
2021-08-03 11:57:25 GMT 50.044006 8.574197 0 70 11
2021-08-03 11:57:11 GMT 50.043777 8.573221 0 70 11
2021-08-03 11:57:02 GMT 50.043606 8.572534 0 70 11
2021-08-03 11:56:55 GMT 50.043468 8.571974 0 70 11
2021-08-03 11:56:41 GMT 50.043236 8.571006 0 70 11
2021-08-03 11:56:29 GMT 50.043026 8.570134 0 70 11
2021-08-03 11:56:22 GMT 50.042900 8.569614 0 70 11
2021-08-03 11:56:13 GMT 50.042759 8.569002 0 95 10

Making use of Plane Finder data

You are free to use the raw flight data, aircraft information and images provided in this report for your own purposes provided the data is correctly attributed to Plane Finder. We ask that you please credit Plane Finder and link to planefinder.net in close proximity to the content.

Optionally one of the following logos (no smaller then 150x24px) can be used and must link to planefinder.net

Embedding the Plane Finder map

You are welcome to embed the Plane Finder playback map on your website to offer visitors a more interactive experience. We suggest using the following HTML code:

<iframe src="//planefinder.net/data/report/UA47-N19951-7700-squawk-2021-08-03/map" width="800" height="600" seamless="seamless"></iframe>

Where our data comes from

Plane Finder has a global network of data feeds and antenna radars that receive data broadcast directly from aircraft. The primary technologies used are ADS-B and MLAT. We also show feeds from the FAA and a FLARM glider feed.

Click here to find out more about the Plane Finder network.

How we collect our data